<?xml version="1.0" encoding="UTF-8" standalone="no" ?>
<gpx xmlns="http://www.topografix.com/GPX/1/1" xmlns:xsi="http://www.w3.org/2001/XMLSchema-instance" xsi:schemaLocation="http://www.topografix.com/GPX/1/1 http://www.topografix.com/GPX/1/1/gpx.xsd" version="1.1" creator="VisuGPX - https://www.visugpx.com">
  <metadata>
    <name>jour_1_1 toutes les traces</name>
  </metadata>
  <trk>
    <name><![CDATA[jour 1_1_52km_complet]]></name>
    <extensions>
      <line xmlns="http://www.topografix.com/GPX/gpx_style/0/2">
        <color>0000FF</color>
        <width>4</width>
      </line>
    </extensions>
    <trkseg>
      <trkpt lat="50.62459" lon="5.56676">
        <ele>69</ele>
        <time>2025-03-20T20:24:03Z</time>
      </trkpt>
      <trkpt lat="50.62478" lon="5.56758">
        <ele>65</ele>
        <time>2025-03-20T20:24:16Z</time>
      </trkpt>
      <trkpt lat="50.62439" lon="5.56826">
        <ele>67</ele>
        <time>2025-03-20T20:24:30Z</time>
      </trkpt>
      <trkpt lat="50.62514" lon="5.56895">
        <ele>67</ele>
        <time>2025-03-20T20:24:50Z</time>
      </trkpt>
      <trkpt lat="50.62536" lon="5.56923">
        <ele>67</ele>
        <time>2025-03-20T20:24:56Z</time>
      </trkpt>
      <trkpt lat="50.62626" lon="5.57087">
        <ele>66</ele>
        <time>2025-03-20T20:25:29Z</time>
      </trkpt>
      <trkpt lat="50.62753" lon="5.5727">
        <ele>70</ele>
        <time>2025-03-20T20:26:09Z</time>
      </trkpt>
      <trkpt lat="50.62768" lon="5.57303">
        <ele>67</ele>
        <time>2025-03-20T20:26:15Z</time>
      </trkpt>
      <trkpt lat="50.62761" lon="5.57312">
        <ele>67</ele>
        <time>2025-03-20T20:26:17Z</time>
      </trkpt>
      <trkpt lat="50.62781" lon="5.57369">
        <ele>61</ele>
        <time>2025-03-20T20:26:26Z</time>
      </trkpt>
      <trkpt lat="50.62865" lon="5.57542">
        <ele>65</ele>
        <time>2025-03-20T20:26:59Z</time>
      </trkpt>
      <trkpt lat="50.62848" lon="5.5756">
        <ele>66</ele>
        <time>2025-03-20T20:27:04Z</time>
      </trkpt>
      <trkpt lat="50.6279" lon="5.576">
        <ele>72</ele>
        <time>2025-03-20T20:27:18Z</time>
      </trkpt>
      <trkpt lat="50.62769" lon="5.57586">
        <ele>73</ele>
        <time>2025-03-20T20:27:24Z</time>
      </trkpt>
      <trkpt lat="50.62757" lon="5.57585">
        <ele>74</ele>
        <time>2025-03-20T20:27:26Z</time>
      </trkpt>
      <trkpt lat="50.62708" lon="5.57618">
        <ele>69</ele>
        <time>2025-03-20T20:27:39Z</time>
      </trkpt>
      <trkpt lat="50.62562" lon="5.57732">
        <ele>65</ele>
        <time>2025-03-20T20:28:17Z</time>
      </trkpt>
      <trkpt lat="50.62546" lon="5.57761">
        <ele>66</ele>
        <time>2025-03-20T20:28:23Z</time>
      </trkpt>
      <trkpt lat="50.62497" lon="5.57793">
        <ele>66</ele>
        <time>2025-03-20T20:28:35Z</time>
      </trkpt>
      <trkpt lat="50.62488" lon="5.57807">
        <ele>67</ele>
        <time>2025-03-20T20:28:38Z</time>
      </trkpt>
      <trkpt lat="50.62484" lon="5.57832">
        <ele>67</ele>
        <time>2025-03-20T20:28:42Z</time>
      </trkpt>
      <trkpt lat="50.625" lon="5.57977">
        <ele>66</ele>
        <time>2025-03-20T20:29:04Z</time>
      </trkpt>
      <trkpt lat="50.62425" lon="5.57984">
        <ele>63</ele>
        <time>2025-03-20T20:29:21Z</time>
      </trkpt>
      <trkpt lat="50.62398" lon="5.57993">
        <ele>62</ele>
        <time>2025-03-20T20:29:28Z</time>
      </trkpt>
      <trkpt lat="50.62364" lon="5.58012">
        <ele>61</ele>
        <time>2025-03-20T20:29:36Z</time>
      </trkpt>
      <trkpt lat="50.62331" lon="5.58038">
        <ele>61</ele>
        <time>2025-03-20T20:29:45Z</time>
      </trkpt>
      <trkpt lat="50.62281" lon="5.58093">
        <ele>62</ele>
        <time>2025-03-20T20:29:59Z</time>
      </trkpt>
      <trkpt lat="50.6228" lon="5.58103">
        <ele>63</ele>
        <time>2025-03-20T20:30:00Z</time>
      </trkpt>
      <trkpt lat="50.62223" lon="5.58216">
        <ele>66</ele>
        <time>2025-03-20T20:30:22Z</time>
      </trkpt>
      <trkpt lat="50.62212" lon="5.58221">
        <ele>65</ele>
        <time>2025-03-20T20:30:24Z</time>
      </trkpt>
      <trkpt lat="50.62206" lon="5.58229">
        <ele>65</ele>
        <time>2025-03-20T20:30:26Z</time>
      </trkpt>
      <trkpt lat="50.62197" lon="5.58249">
        <ele>66</ele>
        <time>2025-03-20T20:30:30Z</time>
      </trkpt>
      <trkpt lat="50.62162" lon="5.58342">
        <ele>69</ele>
        <time>2025-03-20T20:30:46Z</time>
      </trkpt>
      <trkpt lat="50.6216" lon="5.5836">
        <ele>69</ele>
        <time>2025-03-20T20:30:49Z</time>
      </trkpt>
      <trkpt lat="50.62042" lon="5.58702">
        <ele>65</ele>
        <time>2025-03-20T20:31:46Z</time>
      </trkpt>
      <trkpt lat="50.62011" lon="5.58803">
        <ele>66</ele>
        <time>2025-03-20T20:32:03Z</time>
      </trkpt>
      <trkpt lat="50.61961" lon="5.58935">
        <ele>69</ele>
        <time>2025-03-20T20:32:26Z</time>
      </trkpt>
      <trkpt lat="50.6192" lon="5.59032">
        <ele>70</ele>
        <time>2025-03-20T20:32:43Z</time>
      </trkpt>
      <trkpt lat="50.61833" lon="5.59211">
        <ele>64</ele>
        <time>2025-03-20T20:33:16Z</time>
      </trkpt>
      <trkpt lat="50.61821" lon="5.59222">
        <ele>64</ele>
        <time>2025-03-20T20:33:20Z</time>
      </trkpt>
      <trkpt lat="50.61762" lon="5.59153">
        <ele>65</ele>
        <time>2025-03-20T20:33:37Z</time>
      </trkpt>
      <trkpt lat="50.61703" lon="5.59281">
        <ele>70</ele>
        <time>2025-03-20T20:34:00Z</time>
      </trkpt>
      <trkpt lat="50.61628" lon="5.59468">
        <ele>72</ele>
        <time>2025-03-20T20:34:33Z</time>
      </trkpt>
      <trkpt lat="50.61571" lon="5.59655">
        <ele>67</ele>
        <time>2025-03-20T20:35:04Z</time>
      </trkpt>
      <trkpt lat="50.61505" lon="5.59902">
        <ele>64</ele>
        <time>2025-03-20T20:35:43Z</time>
      </trkpt>
      <trkpt lat="50.61487" lon="5.59983">
        <ele>64</ele>
        <time>2025-03-20T20:35:56Z</time>
      </trkpt>
      <trkpt lat="50.61482" lon="5.6004">
        <ele>64</ele>
        <time>2025-03-20T20:36:05Z</time>
      </trkpt>
      <trkpt lat="50.61473" lon="5.60093">
        <ele>65</ele>
        <time>2025-03-20T20:36:13Z</time>
      </trkpt>
      <trkpt lat="50.61455" lon="5.60131">
        <ele>65</ele>
        <time>2025-03-20T20:36:20Z</time>
      </trkpt>
      <trkpt lat="50.61448" lon="5.60184">
        <ele>66</ele>
        <time>2025-03-20T20:36:28Z</time>
      </trkpt>
      <trkpt lat="50.61428" lon="5.60195">
        <ele>67</ele>
        <time>2025-03-20T20:36:33Z</time>
      </trkpt>
      <trkpt lat="50.6141" lon="5.60246">
        <ele>68</ele>
        <time>2025-03-20T20:36:41Z</time>
      </trkpt>
      <trkpt lat="50.61152" lon="5.61203">
        <ele>65</ele>
        <time>2025-03-20T20:39:16Z</time>
      </trkpt>
      <trkpt lat="50.61127" lon="5.6119">
        <ele>64</ele>
        <time>2025-03-20T20:39:22Z</time>
      </trkpt>
      <trkpt lat="50.61118" lon="5.61224">
        <ele>65</ele>
        <time>2025-03-20T20:39:27Z</time>
      </trkpt>
      <trkpt lat="50.61108" lon="5.61238">
        <ele>65</ele>
        <time>2025-03-20T20:39:30Z</time>
      </trkpt>
      <trkpt lat="50.61093" lon="5.61248">
        <ele>64</ele>
        <time>2025-03-20T20:39:34Z</time>
      </trkpt>
      <trkpt lat="50.61074" lon="5.61252">
        <ele>64</ele>
        <time>2025-03-20T20:39:39Z</time>
      </trkpt>
      <trkpt lat="50.61052" lon="5.6125">
        <ele>65</ele>
        <time>2025-03-20T20:39:44Z</time>
      </trkpt>
      <trkpt lat="50.60952" lon="5.61221">
        <ele>67</ele>
        <time>2025-03-20T20:40:07Z</time>
      </trkpt>
      <trkpt lat="50.60892" lon="5.61197">
        <ele>68</ele>
        <time>2025-03-20T20:40:22Z</time>
      </trkpt>
      <trkpt lat="50.60926" lon="5.6122">
        <ele>67</ele>
        <time>2025-03-20T20:40:31Z</time>
      </trkpt>
      <trkpt lat="50.60854" lon="5.61471">
        <ele>67</ele>
        <time>2025-03-20T20:41:11Z</time>
      </trkpt>
      <trkpt lat="50.6084" lon="5.61557">
        <ele>69</ele>
        <time>2025-03-20T20:41:25Z</time>
      </trkpt>
      <trkpt lat="50.60851" lon="5.61565">
        <ele>69</ele>
        <time>2025-03-20T20:41:27Z</time>
      </trkpt>
      <trkpt lat="50.60849" lon="5.61612">
        <ele>69</ele>
        <time>2025-03-20T20:41:34Z</time>
      </trkpt>
      <trkpt lat="50.60814" lon="5.61728">
        <ele>70</ele>
        <time>2025-03-20T20:41:53Z</time>
      </trkpt>
      <trkpt lat="50.60815" lon="5.61745">
        <ele>70</ele>
        <time>2025-03-20T20:41:56Z</time>
      </trkpt>
      <trkpt lat="50.60802" lon="5.61794">
        <ele>70</ele>
        <time>2025-03-20T20:42:04Z</time>
      </trkpt>
      <trkpt lat="50.60744" lon="5.61975">
        <ele>71</ele>
        <time>2025-03-20T20:42:34Z</time>
      </trkpt>
      <trkpt lat="50.60686" lon="5.62091">
        <ele>71</ele>
        <time>2025-03-20T20:42:56Z</time>
      </trkpt>
      <trkpt lat="50.60663" lon="5.6215">
        <ele>72</ele>
        <time>2025-03-20T20:43:06Z</time>
      </trkpt>
      <trkpt lat="50.60504" lon="5.62638">
        <ele>70</ele>
        <time>2025-03-20T20:44:27Z</time>
      </trkpt>
      <trkpt lat="50.60464" lon="5.62767">
        <ele>70</ele>
        <time>2025-03-20T20:44:49Z</time>
      </trkpt>
      <trkpt lat="50.60446" lon="5.62758">
        <ele>70</ele>
        <time>2025-03-20T20:44:53Z</time>
      </trkpt>
      <trkpt lat="50.60441" lon="5.62762">
        <ele>70</ele>
        <time>2025-03-20T20:44:54Z</time>
      </trkpt>
      <trkpt lat="50.60425" lon="5.62801">
        <ele>70</ele>
        <time>2025-03-20T20:45:01Z</time>
      </trkpt>
      <trkpt lat="50.60396" lon="5.62964">
        <ele>70</ele>
        <time>2025-03-20T20:45:26Z</time>
      </trkpt>
      <trkpt lat="50.6035" lon="5.63151">
        <ele>71</ele>
        <time>2025-03-20T20:45:56Z</time>
      </trkpt>
      <trkpt lat="50.60335" lon="5.6325">
        <ele>70</ele>
        <time>2025-03-20T20:46:11Z</time>
      </trkpt>
      <trkpt lat="50.60322" lon="5.63363">
        <ele>72</ele>
        <time>2025-03-20T20:46:28Z</time>
      </trkpt>
      <trkpt lat="50.60317" lon="5.63439">
        <ele>73</ele>
        <time>2025-03-20T20:46:39Z</time>
      </trkpt>
      <trkpt lat="50.60318" lon="5.63457">
        <ele>73</ele>
        <time>2025-03-20T20:46:42Z</time>
      </trkpt>
      <trkpt lat="50.60331" lon="5.63503">
        <ele>74</ele>
        <time>2025-03-20T20:46:50Z</time>
      </trkpt>
      <trkpt lat="50.60346" lon="5.63505">
        <ele>75</ele>
        <time>2025-03-20T20:46:53Z</time>
      </trkpt>
      <trkpt lat="50.60355" lon="5.63523">
        <ele>76</ele>
        <time>2025-03-20T20:46:56Z</time>
      </trkpt>
      <trkpt lat="50.60354" lon="5.6355">
        <ele>77</ele>
        <time>2025-03-20T20:47:00Z</time>
      </trkpt>
      <trkpt lat="50.60348" lon="5.63563">
        <ele>78</ele>
        <time>2025-03-20T20:47:03Z</time>
      </trkpt>
      <trkpt lat="50.60351" lon="5.63584">
        <ele>79</ele>
        <time>2025-03-20T20:47:06Z</time>
      </trkpt>
      <trkpt lat="50.60402" lon="5.63632">
        <ele>83</ele>
        <time>2025-03-20T20:47:20Z</time>
      </trkpt>
      <trkpt lat="50.60446" lon="5.63616">
        <ele>83</ele>
        <time>2025-03-20T20:47:30Z</time>
      </trkpt>
      <trkpt lat="50.60487" lon="5.63582">
        <ele>83</ele>
        <time>2025-03-20T20:47:41Z</time>
      </trkpt>
      <trkpt lat="50.60534" lon="5.63635">
        <ele>87</ele>
        <time>2025-03-20T20:47:55Z</time>
      </trkpt>
      <trkpt lat="50.60618" lon="5.63705">
        <ele>93</ele>
        <time>2025-03-20T20:48:17Z</time>
      </trkpt>
      <trkpt lat="50.60625" lon="5.63692">
        <ele>93</ele>
        <time>2025-03-20T20:48:20Z</time>
      </trkpt>
      <trkpt lat="50.6064" lon="5.63685">
        <ele>93</ele>
        <time>2025-03-20T20:48:23Z</time>
      </trkpt>
      <trkpt lat="50.60697" lon="5.63679">
        <ele>95</ele>
        <time>2025-03-20T20:48:37Z</time>
      </trkpt>
      <trkpt lat="50.60769" lon="5.63651">
        <ele>96</ele>
        <time>2025-03-20T20:48:54Z</time>
      </trkpt>
      <trkpt lat="50.60814" lon="5.63627">
        <ele>96</ele>
        <time>2025-03-20T20:49:05Z</time>
      </trkpt>
      <trkpt lat="50.60846" lon="5.63601">
        <ele>95</ele>
        <time>2025-03-20T20:49:13Z</time>
      </trkpt>
      <trkpt lat="50.60881" lon="5.6356">
        <ele>94</ele>
        <time>2025-03-20T20:49:24Z</time>
      </trkpt>
      <trkpt lat="50.60907" lon="5.63525">
        <ele>93</ele>
        <time>2025-03-20T20:49:32Z</time>
      </trkpt>
      <trkpt lat="50.60932" lon="5.63479">
        <ele>92</ele>
        <time>2025-03-20T20:49:40Z</time>
      </trkpt>
      <trkpt lat="50.60955" lon="5.63424">
        <ele>93</ele>
        <time>2025-03-20T20:49:50Z</time>
      </trkpt>
      <trkpt lat="50.60969" lon="5.63384">
        <ele>95</ele>
        <time>2025-03-20T20:49:57Z</time>
      </trkpt>
      <trkpt lat="50.60994" lon="5.63284">
        <ele>99</ele>
        <time>2025-03-20T20:50:13Z</time>
      </trkpt>
      <trkpt lat="50.61019" lon="5.63156">
        <ele>100</ele>
        <time>2025-03-20T20:50:33Z</time>
      </trkpt>
      <trkpt lat="50.61079" lon="5.62877">
        <ele>98</ele>
        <time>2025-03-20T20:51:16Z</time>
      </trkpt>
      <trkpt lat="50.61096" lon="5.62825">
        <ele>98</ele>
        <time>2025-03-20T20:51:25Z</time>
      </trkpt>
      <trkpt lat="50.61129" lon="5.62747">
        <ele>101</ele>
        <time>2025-03-20T20:51:39Z</time>
      </trkpt>
      <trkpt lat="50.61172" lon="5.62671">
        <ele>104</ele>
        <time>2025-03-20T20:51:54Z</time>
      </trkpt>
      <trkpt lat="50.61182" lon="5.62664">
        <ele>105</ele>
        <time>2025-03-20T20:51:57Z</time>
      </trkpt>
      <trkpt lat="50.61233" lon="5.62608">
        <ele>110</ele>
        <time>2025-03-20T20:52:11Z</time>
      </trkpt>
      <trkpt lat="50.61269" lon="5.62581">
        <ele>112</ele>
        <time>2025-03-20T20:52:20Z</time>
      </trkpt>
      <trkpt lat="50.61321" lon="5.62553">
        <ele>113</ele>
        <time>2025-03-20T20:52:33Z</time>
      </trkpt>
      <trkpt lat="50.61469" lon="5.62488">
        <ele>109</ele>
        <time>2025-03-20T20:53:09Z</time>
      </trkpt>
      <trkpt lat="50.61526" lon="5.62453">
        <ele>113</ele>
        <time>2025-03-20T20:53:23Z</time>
      </trkpt>
      <trkpt lat="50.61566" lon="5.62421">
        <ele>120</ele>
        <time>2025-03-20T20:53:34Z</time>
      </trkpt>
      <trkpt lat="50.61596" lon="5.62391">
        <ele>123</ele>
        <time>2025-03-20T20:53:42Z</time>
      </trkpt>
      <trkpt lat="50.6164" lon="5.62336">
        <ele>122</ele>
        <time>2025-03-20T20:53:55Z</time>
      </trkpt>
      <trkpt lat="50.61748" lon="5.62154">
        <ele>125</ele>
        <time>2025-03-20T20:54:32Z</time>
      </trkpt>
      <trkpt lat="50.61791" lon="5.62093">
        <ele>127</ele>
        <time>2025-03-20T20:54:46Z</time>
      </trkpt>
      <trkpt lat="50.61841" lon="5.62045">
        <ele>128</ele>
        <time>2025-03-20T20:54:59Z</time>
      </trkpt>
      <trkpt lat="50.61864" lon="5.62028">
        <ele>129</ele>
        <time>2025-03-20T20:55:05Z</time>
      </trkpt>
      <trkpt lat="50.61895" lon="5.62009">
        <ele>130</ele>
        <time>2025-03-20T20:55:13Z</time>
      </trkpt>
      <trkpt lat="50.61932" lon="5.61996">
        <ele>130</ele>
        <time>2025-03-20T20:55:22Z</time>
      </trkpt>
      <trkpt lat="50.61981" lon="5.6199">
        <ele>131</ele>
        <time>2025-03-20T20:55:34Z</time>
      </trkpt>
      <trkpt lat="50.6203" lon="5.6199">
        <ele>131</ele>
        <time>2025-03-20T20:55:45Z</time>
      </trkpt>
      <trkpt lat="50.62041" lon="5.61985">
        <ele>131</ele>
        <time>2025-03-20T20:55:48Z</time>
      </trkpt>
      <trkpt lat="50.62087" lon="5.62001">
        <ele>131</ele>
        <time>2025-03-20T20:55:59Z</time>
      </trkpt>
      <trkpt lat="50.62124" lon="5.62018">
        <ele>132</ele>
        <time>2025-03-20T20:56:08Z</time>
      </trkpt>
      <trkpt lat="50.62151" lon="5.62036">
        <ele>132</ele>
        <time>2025-03-20T20:56:14Z</time>
      </trkpt>
      <trkpt lat="50.62193" lon="5.62071">
        <ele>134</ele>
        <time>2025-03-20T20:56:26Z</time>
      </trkpt>
      <trkpt lat="50.62215" lon="5.62097">
        <ele>134</ele>
        <time>2025-03-20T20:56:32Z</time>
      </trkpt>
      <trkpt lat="50.62268" lon="5.62171">
        <ele>137</ele>
        <time>2025-03-20T20:56:49Z</time>
      </trkpt>
      <trkpt lat="50.62273" lon="5.6217">
        <ele>137</ele>
        <time>2025-03-20T20:56:50Z</time>
      </trkpt>
      <trkpt lat="50.62281" lon="5.62183">
        <ele>137</ele>
        <time>2025-03-20T20:56:52Z</time>
      </trkpt>
      <trkpt lat="50.62279" lon="5.62188">
        <ele>138</ele>
        <time>2025-03-20T20:56:53Z</time>
      </trkpt>
      <trkpt lat="50.62297" lon="5.62215">
        <ele>138</ele>
        <time>2025-03-20T20:56:59Z</time>
      </trkpt>
      <trkpt lat="50.62407" lon="5.6237">
        <ele>143</ele>
        <time>2025-03-20T20:57:34Z</time>
      </trkpt>
      <trkpt lat="50.62444" lon="5.62406">
        <ele>143</ele>
        <time>2025-03-20T20:57:44Z</time>
      </trkpt>
      <trkpt lat="50.62479" lon="5.62433">
        <ele>143</ele>
        <time>2025-03-20T20:57:53Z</time>
      </trkpt>
      <trkpt lat="50.62511" lon="5.62452">
        <ele>142</ele>
        <time>2025-03-20T20:58:01Z</time>
      </trkpt>
      <trkpt lat="50.62543" lon="5.62466">
        <ele>142</ele>
        <time>2025-03-20T20:58:09Z</time>
      </trkpt>
      <trkpt lat="50.62571" lon="5.62474">
        <ele>142</ele>
        <time>2025-03-20T20:58:15Z</time>
      </trkpt>
      <trkpt lat="50.62605" lon="5.62479">
        <ele>142</ele>
        <time>2025-03-20T20:58:23Z</time>
      </trkpt>
      <trkpt lat="50.62668" lon="5.6248">
        <ele>145</ele>
        <time>2025-03-20T20:58:38Z</time>
      </trkpt>
      <trkpt lat="50.62836" lon="5.62436">
        <ele>150</ele>
        <time>2025-03-20T20:59:18Z</time>
      </trkpt>
      <trkpt lat="50.6284" lon="5.62409">
        <ele>149</ele>
        <time>2025-03-20T20:59:22Z</time>
      </trkpt>
      <trkpt lat="50.62855" lon="5.62413">
        <ele>150</ele>
        <time>2025-03-20T20:59:25Z</time>
      </trkpt>
      <trkpt lat="50.62864" lon="5.62429">
        <ele>151</ele>
        <time>2025-03-20T20:59:28Z</time>
      </trkpt>
      <trkpt lat="50.62871" lon="5.62429">
        <ele>151</ele>
        <time>2025-03-20T20:59:30Z</time>
      </trkpt>
      <trkpt lat="50.63105" lon="5.62361">
        <ele>153</ele>
        <time>2025-03-20T21:00:26Z</time>
      </trkpt>
      <trkpt lat="50.6312" lon="5.62345">
        <ele>154</ele>
        <time>2025-03-20T21:00:30Z</time>
      </trkpt>
      <trkpt lat="50.63147" lon="5.62335">
        <ele>155</ele>
        <time>2025-03-20T21:00:36Z</time>
      </trkpt>
      <trkpt lat="50.63201" lon="5.6233">
        <ele>155</ele>
        <time>2025-03-20T21:00:49Z</time>
      </trkpt>
      <trkpt lat="50.63258" lon="5.62329">
        <ele>154</ele>
        <time>2025-03-20T21:01:02Z</time>
      </trkpt>
      <trkpt lat="50.63302" lon="5.6235">
        <ele>155</ele>
        <time>2025-03-20T21:01:13Z</time>
      </trkpt>
      <trkpt lat="50.63385" lon="5.6241">
        <ele>157</ele>
        <time>2025-03-20T21:01:34Z</time>
      </trkpt>
      <trkpt lat="50.63421" lon="5.62456">
        <ele>158</ele>
        <time>2025-03-20T21:01:45Z</time>
      </trkpt>
      <trkpt lat="50.63463" lon="5.62533">
        <ele>161</ele>
        <time>2025-03-20T21:02:00Z</time>
      </trkpt>
      <trkpt lat="50.63488" lon="5.62606">
        <ele>163</ele>
        <time>2025-03-20T21:02:13Z</time>
      </trkpt>
      <trkpt lat="50.63505" lon="5.62676">
        <ele>164</ele>
        <time>2025-03-20T21:02:24Z</time>
      </trkpt>
      <trkpt lat="50.63513" lon="5.62797">
        <ele>168</ele>
        <time>2025-03-20T21:02:42Z</time>
      </trkpt>
      <trkpt lat="50.63509" lon="5.62862">
        <ele>171</ele>
        <time>2025-03-20T21:02:51Z</time>
      </trkpt>
      <trkpt lat="50.63492" lon="5.62962">
        <ele>174</ele>
        <time>2025-03-20T21:03:07Z</time>
      </trkpt>
      <trkpt lat="50.63481" lon="5.63002">
        <ele>174</ele>
        <time>2025-03-20T21:03:13Z</time>
      </trkpt>
      <trkpt lat="50.63483" lon="5.63008">
        <ele>174</ele>
        <time>2025-03-20T21:03:14Z</time>
      </trkpt>
      <trkpt lat="50.63474" lon="5.63019">
        <ele>174</ele>
        <time>2025-03-20T21:03:17Z</time>
      </trkpt>
      <trkpt lat="50.63462" lon="5.63054">
        <ele>175</ele>
        <time>2025-03-20T21:03:23Z</time>
      </trkpt>
      <trkpt lat="50.63419" lon="5.63135">
        <ele>177</ele>
        <time>2025-03-20T21:03:38Z</time>
      </trkpt>
      <trkpt lat="50.63384" lon="5.6318">
        <ele>178</ele>
        <time>2025-03-20T21:03:49Z</time>
      </trkpt>
      <trkpt lat="50.63318" lon="5.63234">
        <ele>180</ele>
        <time>2025-03-20T21:04:06Z</time>
      </trkpt>
      <trkpt lat="50.63305" lon="5.63235">
        <ele>180</ele>
        <time>2025-03-20T21:04:09Z</time>
      </trkpt>
      <trkpt lat="50.63171" lon="5.63284">
        <ele>183</ele>
        <time>2025-03-20T21:04:41Z</time>
      </trkpt>
      <trkpt lat="50.62843" lon="5.63393">
        <ele>187</ele>
        <time>2025-03-20T21:06:00Z</time>
      </trkpt>
      <trkpt lat="50.62805" lon="5.63414">
        <ele>187</ele>
        <time>2025-03-20T21:06:09Z</time>
      </trkpt>
      <trkpt lat="50.62754" lon="5.63452">
        <ele>187</ele>
        <time>2025-03-20T21:06:22Z</time>
      </trkpt>
      <trkpt lat="50.62691" lon="5.6352">
        <ele>187</ele>
        <time>2025-03-20T21:06:40Z</time>
      </trkpt>
      <trkpt lat="50.62627" lon="5.63611">
        <ele>191</ele>
        <time>2025-03-20T21:07:00Z</time>
      </trkpt>
      <trkpt lat="50.62612" lon="5.63639">
        <ele>192</ele>
        <time>2025-03-20T21:07:06Z</time>
      </trkpt>
      <trkpt lat="50.62576" lon="5.63722">
        <ele>194</ele>
        <time>2025-03-20T21:07:21Z</time>
      </trkpt>
      <trkpt lat="50.62554" lon="5.63799">
        <ele>195</ele>
        <time>2025-03-20T21:07:33Z</time>
      </trkpt>
      <trkpt lat="50.62487" lon="5.64115">
        <ele>203</ele>
        <time>2025-03-20T21:08:22Z</time>
      </trkpt>
      <trkpt lat="50.62477" lon="5.64199">
        <ele>204</ele>
        <time>2025-03-20T21:08:35Z</time>
      </trkpt>
      <trkpt lat="50.62464" lon="5.64504">
        <ele>206</ele>
        <time>2025-03-20T21:09:20Z</time>
      </trkpt>
      <trkpt lat="50.62456" lon="5.64573">
        <ele>206</ele>
        <time>2025-03-20T21:09:31Z</time>
      </trkpt>
      <trkpt lat="50.62445" lon="5.64633">
        <ele>207</ele>
        <time>2025-03-20T21:09:40Z</time>
      </trkpt>
      <trkpt lat="50.62431" lon="5.64688">
        <ele>208</ele>
        <time>2025-03-20T21:09:49Z</time>
      </trkpt>
      <trkpt lat="50.62402" lon="5.64777">
        <ele>212</ele>
        <time>2025-03-20T21:10:04Z</time>
      </trkpt>
      <trkpt lat="50.62382" lon="5.64826">
        <ele>216</ele>
        <time>2025-03-20T21:10:12Z</time>
      </trkpt>
      <trkpt lat="50.62357" lon="5.64873">
        <ele>220</ele>
        <time>2025-03-20T21:10:21Z</time>
      </trkpt>
      <trkpt lat="50.62285" lon="5.64977">
        <ele>224</ele>
        <time>2025-03-20T21:10:44Z</time>
      </trkpt>
      <trkpt lat="50.62241" lon="5.65022">
        <ele>226</ele>
        <time>2025-03-20T21:10:56Z</time>
      </trkpt>
      <trkpt lat="50.62078" lon="5.6515">
        <ele>228</ele>
        <time>2025-03-20T21:11:39Z</time>
      </trkpt>
      <trkpt lat="50.62037" lon="5.65187">
        <ele>229</ele>
        <time>2025-03-20T21:11:50Z</time>
      </trkpt>
      <trkpt lat="50.61975" lon="5.65265">
        <ele>234</ele>
        <time>2025-03-20T21:12:08Z</time>
      </trkpt>
      <trkpt lat="50.61938" lon="5.65332">
        <ele>236</ele>
        <time>2025-03-20T21:12:22Z</time>
      </trkpt>
      <trkpt lat="50.6191" lon="5.65398">
        <ele>237</ele>
        <time>2025-03-20T21:12:33Z</time>
      </trkpt>
      <trkpt lat="50.61842" lon="5.65584">
        <ele>235</ele>
        <time>2025-03-20T21:13:05Z</time>
      </trkpt>
      <trkpt lat="50.61841" lon="5.65602">
        <ele>235</ele>
        <time>2025-03-20T21:13:08Z</time>
      </trkpt>
      <trkpt lat="50.61816" lon="5.65671">
        <ele>234</ele>
        <time>2025-03-20T21:13:20Z</time>
      </trkpt>
      <trkpt lat="50.61803" lon="5.65685">
        <ele>233</ele>
        <time>2025-03-20T21:13:23Z</time>
      </trkpt>
      <trkpt lat="50.61697" lon="5.65987">
        <ele>234</ele>
        <time>2025-03-20T21:14:14Z</time>
      </trkpt>
      <trkpt lat="50.61644" lon="5.66126">
        <ele>240</ele>
        <time>2025-03-20T21:14:38Z</time>
      </trkpt>
      <trkpt lat="50.61647" lon="5.66147">
        <ele>240</ele>
        <time>2025-03-20T21:14:42Z</time>
      </trkpt>
      <trkpt lat="50.61637" lon="5.6616">
        <ele>240</ele>
        <time>2025-03-20T21:14:45Z</time>
      </trkpt>
      <trkpt lat="50.61602" lon="5.66259">
        <ele>242</ele>
        <time>2025-03-20T21:15:01Z</time>
      </trkpt>
      <trkpt lat="50.61552" lon="5.66379">
        <ele>247</ele>
        <time>2025-03-20T21:15:23Z</time>
      </trkpt>
      <trkpt lat="50.61493" lon="5.66496">
        <ele>247</ele>
        <time>2025-03-20T21:15:45Z</time>
      </trkpt>
      <trkpt lat="50.61199" lon="5.67022">
        <ele>256</ele>
        <time>2025-03-20T21:17:29Z</time>
      </trkpt>
      <trkpt lat="50.61197" lon="5.67042">
        <ele>256</ele>
        <time>2025-03-20T21:17:32Z</time>
      </trkpt>
      <trkpt lat="50.61189" lon="5.67044">
        <ele>256</ele>
        <time>2025-03-20T21:17:34Z</time>
      </trkpt>
      <trkpt lat="50.61158" lon="5.67097">
        <ele>256</ele>
        <time>2025-03-20T21:17:44Z</time>
      </trkpt>
      <trkpt lat="50.61133" lon="5.67161">
        <ele>257</ele>
        <time>2025-03-20T21:17:55Z</time>
      </trkpt>
      <trkpt lat="50.61115" lon="5.67216">
        <ele>256</ele>
        <time>2025-03-20T21:18:05Z</time>
      </trkpt>
      <trkpt lat="50.61097" lon="5.67308">
        <ele>257</ele>
        <time>2025-03-20T21:18:19Z</time>
      </trkpt>
      <trkpt lat="50.61088" lon="5.67404">
        <ele>258</ele>
        <time>2025-03-20T21:18:33Z</time>
      </trkpt>
      <trkpt lat="50.61088" lon="5.67469">
        <ele>259</ele>
        <time>2025-03-20T21:18:43Z</time>
      </trkpt>
      <trkpt lat="50.61094" lon="5.67549">
        <ele>260</ele>
        <time>2025-03-20T21:18:55Z</time>
      </trkpt>
      <trkpt lat="50.61107" lon="5.67621">
        <ele>260</ele>
        <time>2025-03-20T21:19:06Z</time>
      </trkpt>
      <trkpt lat="50.61127" lon="5.67692">
        <ele>261</ele>
        <time>2025-03-20T21:19:17Z</time>
      </trkpt>
      <trkpt lat="50.61162" lon="5.67779">
        <ele>263</ele>
        <time>2025-03-20T21:19:33Z</time>
      </trkpt>
      <trkpt lat="50.61218" lon="5.67879">
        <ele>263</ele>
        <time>2025-03-20T21:19:53Z</time>
      </trkpt>
      <trkpt lat="50.61428" lon="5.68211">
        <ele>261</ele>
        <time>2025-03-20T21:21:02Z</time>
      </trkpt>
      <trkpt lat="50.61452" lon="5.68236">
        <ele>261</ele>
        <time>2025-03-20T21:21:09Z</time>
      </trkpt>
      <trkpt lat="50.61468" lon="5.68236">
        <ele>261</ele>
        <time>2025-03-20T21:21:12Z</time>
      </trkpt>
      <trkpt lat="50.61469" lon="5.68244">
        <ele>261</ele>
        <time>2025-03-20T21:21:14Z</time>
      </trkpt>
      <trkpt lat="50.61485" lon="5.68269">
        <ele>261</ele>
        <time>2025-03-20T21:21:19Z</time>
      </trkpt>
      <trkpt lat="50.61481" lon="5.68286">
        <ele>261</ele>
        <time>2025-03-20T21:21:22Z</time>
      </trkpt>
      <trkpt lat="50.61512" lon="5.68332">
        <ele>261</ele>
        <time>2025-03-20T21:21:32Z</time>
      </trkpt>
      <trkpt lat="50.61515" lon="5.68348">
        <ele>261</ele>
        <time>2025-03-20T21:21:34Z</time>
      </trkpt>
      <trkpt lat="50.61662" lon="5.68581">
        <ele>261</ele>
        <time>2025-03-20T21:22:23Z</time>
      </trkpt>
      <trkpt lat="50.61672" lon="5.68589">
        <ele>261</ele>
        <time>2025-03-20T21:22:25Z</time>
      </trkpt>
      <trkpt lat="50.61675" lon="5.68605">
        <ele>261</ele>
        <time>2025-03-20T21:22:28Z</time>
      </trkpt>
      <trkpt lat="50.61689" lon="5.68618">
        <ele>261</ele>
        <time>2025-03-20T21:22:32Z</time>
      </trkpt>
      <trkpt lat="50.61757" lon="5.68735">
        <ele>262</ele>
        <time>2025-03-20T21:22:55Z</time>
      </trkpt>
      <trkpt lat="50.61818" lon="5.68853">
        <ele>262</ele>
        <time>2025-03-20T21:23:18Z</time>
      </trkpt>
      <trkpt lat="50.62058" lon="5.69424">
        <ele>260</ele>
        <time>2025-03-20T21:24:59Z</time>
      </trkpt>
      <trkpt lat="50.62058" lon="5.69434">
        <ele>260</ele>
        <time>2025-03-20T21:25:01Z</time>
      </trkpt>
      <trkpt lat="50.62068" lon="5.69447">
        <ele>260</ele>
        <time>2025-03-20T21:25:04Z</time>
      </trkpt>
      <trkpt lat="50.6227" lon="5.69925">
        <ele>263</ele>
        <time>2025-03-20T21:26:29Z</time>
      </trkpt>
      <trkpt lat="50.6229" lon="5.69985">
        <ele>262</ele>
        <time>2025-03-20T21:26:39Z</time>
      </trkpt>
      <trkpt lat="50.62301" lon="5.69994">
        <ele>262</ele>
        <time>2025-03-20T21:26:42Z</time>
      </trkpt>
      <trkpt lat="50.62359" lon="5.70155">
        <ele>263</ele>
        <time>2025-03-20T21:27:09Z</time>
      </trkpt>
      <trkpt lat="50.627" lon="5.7127">
        <ele>272</ele>
        <time>2025-03-20T21:30:12Z</time>
      </trkpt>
      <trkpt lat="50.62904" lon="5.71922">
        <ele>266</ele>
        <time>2025-03-20T21:32:00Z</time>
      </trkpt>
      <trkpt lat="50.63133" lon="5.72911">
        <ele>274</ele>
        <time>2025-03-20T21:34:36Z</time>
      </trkpt>
      <trkpt lat="50.63145" lon="5.72956">
        <ele>274</ele>
        <time>2025-03-20T21:34:43Z</time>
      </trkpt>
      <trkpt lat="50.63166" lon="5.73005">
        <ele>273</ele>
        <time>2025-03-20T21:34:52Z</time>
      </trkpt>
      <trkpt lat="50.63195" lon="5.73122">
        <ele>274</ele>
        <time>2025-03-20T21:35:11Z</time>
      </trkpt>
      <trkpt lat="50.63195" lon="5.73196">
        <ele>275</ele>
        <time>2025-03-20T21:35:22Z</time>
      </trkpt>
      <trkpt lat="50.63205" lon="5.7325">
        <ele>275</ele>
        <time>2025-03-20T21:35:30Z</time>
      </trkpt>
      <trkpt lat="50.6326" lon="5.73484">
        <ele>276</ele>
        <time>2025-03-20T21:36:07Z</time>
      </trkpt>
      <trkpt lat="50.63277" lon="5.73541">
        <ele>277</ele>
        <time>2025-03-20T21:36:16Z</time>
      </trkpt>
      <trkpt lat="50.63333" lon="5.73783">
        <ele>278</ele>
        <time>2025-03-20T21:36:54Z</time>
      </trkpt>
      <trkpt lat="50.63499" lon="5.74532">
        <ele>278</ele>
        <time>2025-03-20T21:38:52Z</time>
      </trkpt>
      <trkpt lat="50.63509" lon="5.74543">
        <ele>278</ele>
        <time>2025-03-20T21:38:55Z</time>
      </trkpt>
      <trkpt lat="50.63513" lon="5.74558">
        <ele>278</ele>
        <time>2025-03-20T21:38:57Z</time>
      </trkpt>
      <trkpt lat="50.63511" lon="5.74575">
        <ele>278</ele>
        <time>2025-03-20T21:39:00Z</time>
      </trkpt>
      <trkpt lat="50.63516" lon="5.74605">
        <ele>278</ele>
        <time>2025-03-20T21:39:04Z</time>
      </trkpt>
      <trkpt lat="50.63636" lon="5.75131">
        <ele>277</ele>
        <time>2025-03-20T21:40:27Z</time>
      </trkpt>
      <trkpt lat="50.63665" lon="5.75272">
        <ele>278</ele>
        <time>2025-03-20T21:40:49Z</time>
      </trkpt>
      <trkpt lat="50.63681" lon="5.75365">
        <ele>278</ele>
        <time>2025-03-20T21:41:03Z</time>
      </trkpt>
      <trkpt lat="50.63705" lon="5.75545">
        <ele>279</ele>
        <time>2025-03-20T21:41:31Z</time>
      </trkpt>
      <trkpt lat="50.64009" lon="5.78272">
        <ele>299</ele>
        <time>2025-03-20T21:48:21Z</time>
      </trkpt>
      <trkpt lat="50.64041" lon="5.78413">
        <ele>299</ele>
        <time>2025-03-20T21:48:43Z</time>
      </trkpt>
      <trkpt lat="50.64231" lon="5.79058">
        <ele>305</ele>
        <time>2025-03-20T21:50:28Z</time>
      </trkpt>
      <trkpt lat="50.64239" lon="5.79077">
        <ele>305</ele>
        <time>2025-03-20T21:50:32Z</time>
      </trkpt>
      <trkpt lat="50.64247" lon="5.79114">
        <ele>305</ele>
        <time>2025-03-20T21:50:37Z</time>
      </trkpt>
      <trkpt lat="50.64287" lon="5.7922">
        <ele>307</ele>
        <time>2025-03-20T21:50:56Z</time>
      </trkpt>
      <trkpt lat="50.64305" lon="5.79252">
        <ele>308</ele>
        <time>2025-03-20T21:51:02Z</time>
      </trkpt>
      <trkpt lat="50.64335" lon="5.79294">
        <ele>309</ele>
        <time>2025-03-20T21:51:11Z</time>
      </trkpt>
      <trkpt lat="50.64384" lon="5.79338">
        <ele>310</ele>
        <time>2025-03-20T21:51:25Z</time>
      </trkpt>
      <trkpt lat="50.64496" lon="5.79422">
        <ele>309</ele>
        <time>2025-03-20T21:51:54Z</time>
      </trkpt>
      <trkpt lat="50.64567" lon="5.79484">
        <ele>309</ele>
        <time>2025-03-20T21:52:12Z</time>
      </trkpt>
      <trkpt lat="50.64585" lon="5.79504">
        <ele>310</ele>
        <time>2025-03-20T21:52:18Z</time>
      </trkpt>
      <trkpt lat="50.64645" lon="5.79592">
        <ele>309</ele>
        <time>2025-03-20T21:52:37Z</time>
      </trkpt>
      <trkpt lat="50.64668" lon="5.79632">
        <ele>309</ele>
        <time>2025-03-20T21:52:45Z</time>
      </trkpt>
      <trkpt lat="50.64699" lon="5.79706">
        <ele>309</ele>
        <time>2025-03-20T21:52:58Z</time>
      </trkpt>
      <trkpt lat="50.64708" lon="5.79714">
        <ele>308</ele>
        <time>2025-03-20T21:53:00Z</time>
      </trkpt>
      <trkpt lat="50.64707" lon="5.79728">
        <ele>309</ele>
        <time>2025-03-20T21:53:02Z</time>
      </trkpt>
      <trkpt lat="50.64761" lon="5.79909">
        <ele>311</ele>
        <time>2025-03-20T21:53:32Z</time>
      </trkpt>
      <trkpt lat="50.65068" lon="5.80975">
        <ele>318</ele>
        <time>2025-03-20T21:56:25Z</time>
      </trkpt>
      <trkpt lat="50.65073" lon="5.80985">
        <ele>318</ele>
        <time>2025-03-20T21:56:27Z</time>
      </trkpt>
      <trkpt lat="50.6508" lon="5.80987">
        <ele>318</ele>
        <time>2025-03-20T21:56:29Z</time>
      </trkpt>
      <trkpt lat="50.6508" lon="5.81014">
        <ele>318</ele>
        <time>2025-03-20T21:56:33Z</time>
      </trkpt>
      <trkpt lat="50.65188" lon="5.81394">
        <ele>318</ele>
        <time>2025-03-20T21:57:35Z</time>
      </trkpt>
      <trkpt lat="50.6521" lon="5.81516">
        <ele>317</ele>
        <time>2025-03-20T21:57:53Z</time>
      </trkpt>
      <trkpt lat="50.65214" lon="5.81625">
        <ele>317</ele>
        <time>2025-03-20T21:58:10Z</time>
      </trkpt>
      <trkpt lat="50.65213" lon="5.81689">
        <ele>317</ele>
        <time>2025-03-20T21:58:19Z</time>
      </trkpt>
      <trkpt lat="50.65203" lon="5.81799">
        <ele>315</ele>
        <time>2025-03-20T21:58:35Z</time>
      </trkpt>
      <trkpt lat="50.65192" lon="5.81855">
        <ele>315</ele>
        <time>2025-03-20T21:58:44Z</time>
      </trkpt>
      <trkpt lat="50.65171" lon="5.81932">
        <ele>316</ele>
        <time>2025-03-20T21:58:57Z</time>
      </trkpt>
      <trkpt lat="50.6515" lon="5.81998">
        <ele>316</ele>
        <time>2025-03-20T21:59:07Z</time>
      </trkpt>
      <trkpt lat="50.64973" lon="5.82459">
        <ele>317</ele>
        <time>2025-03-20T22:00:27Z</time>
      </trkpt>
      <trkpt lat="50.64928" lon="5.82597">
        <ele>319</ele>
        <time>2025-03-20T22:00:50Z</time>
      </trkpt>
      <trkpt lat="50.64912" lon="5.82677">
        <ele>318</ele>
        <time>2025-03-20T22:01:03Z</time>
      </trkpt>
      <trkpt lat="50.64905" lon="5.82789">
        <ele>317</ele>
        <time>2025-03-20T22:01:19Z</time>
      </trkpt>
      <trkpt lat="50.64909" lon="5.82874">
        <ele>317</ele>
        <time>2025-03-20T22:01:32Z</time>
      </trkpt>
      <trkpt lat="50.64932" lon="5.8308">
        <ele>318</ele>
        <time>2025-03-20T22:02:03Z</time>
      </trkpt>
      <trkpt lat="50.64922" lon="5.83122">
        <ele>319</ele>
        <time>2025-03-20T22:02:10Z</time>
      </trkpt>
      <trkpt lat="50.64924" lon="5.83155">
        <ele>320</ele>
        <time>2025-03-20T22:02:14Z</time>
      </trkpt>
      <trkpt lat="50.64935" lon="5.83167">
        <ele>320</ele>
        <time>2025-03-20T22:02:18Z</time>
      </trkpt>
      <trkpt lat="50.64937" lon="5.83175">
        <ele>320</ele>
        <time>2025-03-20T22:02:19Z</time>
      </trkpt>
      <trkpt lat="50.64936" lon="5.83283">
        <ele>322</ele>
        <time>2025-03-20T22:02:35Z</time>
      </trkpt>
      <trkpt lat="50.64921" lon="5.83382">
        <ele>323</ele>
        <time>2025-03-20T22:02:50Z</time>
      </trkpt>
      <trkpt lat="50.64904" lon="5.83462">
        <ele>323</ele>
        <time>2025-03-20T22:03:02Z</time>
      </trkpt>
      <trkpt lat="50.64878" lon="5.83541">
        <ele>321</ele>
        <time>2025-03-20T22:03:16Z</time>
      </trkpt>
      <trkpt lat="50.64791" lon="5.83779">
        <ele>311</ele>
        <time>2025-03-20T22:03:56Z</time>
      </trkpt>
      <trkpt lat="50.64776" lon="5.83835">
        <ele>311</ele>
        <time>2025-03-20T22:04:05Z</time>
      </trkpt>
      <trkpt lat="50.64757" lon="5.83927">
        <ele>313</ele>
        <time>2025-03-20T22:04:20Z</time>
      </trkpt>
      <trkpt lat="50.64747" lon="5.84013">
        <ele>312</ele>
        <time>2025-03-20T22:04:33Z</time>
      </trkpt>
      <trkpt lat="50.64747" lon="5.84102">
        <ele>308</ele>
        <time>2025-03-20T22:04:46Z</time>
      </trkpt>
      <trkpt lat="50.64759" lon="5.84473">
        <ele>303</ele>
        <time>2025-03-20T22:05:41Z</time>
      </trkpt>
      <trkpt lat="50.64758" lon="5.84546">
        <ele>299</ele>
        <time>2025-03-20T22:05:52Z</time>
      </trkpt>
      <trkpt lat="50.64743" lon="5.84641">
        <ele>296</ele>
        <time>2025-03-20T22:06:06Z</time>
      </trkpt>
      <trkpt lat="50.64689" lon="5.84845">
        <ele>294</ele>
        <time>2025-03-20T22:06:39Z</time>
      </trkpt>
      <trkpt lat="50.64655" lon="5.85004">
        <ele>295</ele>
        <time>2025-03-20T22:07:04Z</time>
      </trkpt>
      <trkpt lat="50.64646" lon="5.85068">
        <ele>296</ele>
        <time>2025-03-20T22:07:13Z</time>
      </trkpt>
      <trkpt lat="50.64643" lon="5.85221">
        <ele>295</ele>
        <time>2025-03-20T22:07:36Z</time>
      </trkpt>
      <trkpt lat="50.64658" lon="5.85329">
        <ele>297</ele>
        <time>2025-03-20T22:07:52Z</time>
      </trkpt>
      <trkpt lat="50.64675" lon="5.85397">
        <ele>296</ele>
        <time>2025-03-20T22:08:03Z</time>
      </trkpt>
      <trkpt lat="50.647" lon="5.8547">
        <ele>294</ele>
        <time>2025-03-20T22:08:16Z</time>
      </trkpt>
      <trkpt lat="50.64725" lon="5.85518">
        <ele>290</ele>
        <time>2025-03-20T22:08:25Z</time>
      </trkpt>
      <trkpt lat="50.64759" lon="5.8557">
        <ele>286</ele>
        <time>2025-03-20T22:08:36Z</time>
      </trkpt>
      <trkpt lat="50.6481" lon="5.85637">
        <ele>284</ele>
        <time>2025-03-20T22:08:51Z</time>
      </trkpt>
      <trkpt lat="50.65086" lon="5.85989">
        <ele>282</ele>
        <time>2025-03-20T22:10:14Z</time>
      </trkpt>
      <trkpt lat="50.65121" lon="5.86053">
        <ele>281</ele>
        <time>2025-03-20T22:10:27Z</time>
      </trkpt>
      <trkpt lat="50.65158" lon="5.86146">
        <ele>281</ele>
        <time>2025-03-20T22:10:43Z</time>
      </trkpt>
      <trkpt lat="50.65192" lon="5.86262">
        <ele>280</ele>
        <time>2025-03-20T22:11:02Z</time>
      </trkpt>
      <trkpt lat="50.6524" lon="5.86567">
        <ele>277</ele>
        <time>2025-03-20T22:11:48Z</time>
      </trkpt>
      <trkpt lat="50.65255" lon="5.86641">
        <ele>279</ele>
        <time>2025-03-20T22:12:00Z</time>
      </trkpt>
      <trkpt lat="50.65376" lon="5.87372">
        <ele>271</ele>
        <time>2025-03-20T22:13:52Z</time>
      </trkpt>
      <trkpt lat="50.65389" lon="5.87418">
        <ele>270</ele>
        <time>2025-03-20T22:13:59Z</time>
      </trkpt>
      <trkpt lat="50.65427" lon="5.87507">
        <ele>270</ele>
        <time>2025-03-20T22:14:15Z</time>
      </trkpt>
      <trkpt lat="50.65461" lon="5.87556">
        <ele>273</ele>
        <time>2025-03-20T22:14:26Z</time>
      </trkpt>
      <trkpt lat="50.65522" lon="5.87612">
        <ele>275</ele>
        <time>2025-03-20T22:14:42Z</time>
      </trkpt>
      <trkpt lat="50.65562" lon="5.87633">
        <ele>273</ele>
        <time>2025-03-20T22:14:52Z</time>
      </trkpt>
      <trkpt lat="50.656" lon="5.87644">
        <ele>271</ele>
        <time>2025-03-20T22:15:01Z</time>
      </trkpt>
      <trkpt lat="50.65634" lon="5.87647">
        <ele>268</ele>
        <time>2025-03-20T22:15:09Z</time>
      </trkpt>
      <trkpt lat="50.65692" lon="5.87637">
        <ele>267</ele>
        <time>2025-03-20T22:15:23Z</time>
      </trkpt>
      <trkpt lat="50.6574" lon="5.87612">
        <ele>268</ele>
        <time>2025-03-20T22:15:35Z</time>
      </trkpt>
      <trkpt lat="50.66247" lon="5.8729">
        <ele>257</ele>
        <time>2025-03-20T22:17:42Z</time>
      </trkpt>
      <trkpt lat="50.66315" lon="5.87243">
        <ele>256</ele>
        <time>2025-03-20T22:18:00Z</time>
      </trkpt>
      <trkpt lat="50.66358" lon="5.87203">
        <ele>256</ele>
        <time>2025-03-20T22:18:11Z</time>
      </trkpt>
      <trkpt lat="50.66394" lon="5.87163">
        <ele>256</ele>
        <time>2025-03-20T22:18:22Z</time>
      </trkpt>
      <trkpt lat="50.66447" lon="5.87083">
        <ele>255</ele>
        <time>2025-03-20T22:18:39Z</time>
      </trkpt>
      <trkpt lat="50.66489" lon="5.86997">
        <ele>252</ele>
        <time>2025-03-20T22:18:55Z</time>
      </trkpt>
      <trkpt lat="50.66516" lon="5.8692">
        <ele>250</ele>
        <time>2025-03-20T22:19:08Z</time>
      </trkpt>
      <trkpt lat="50.66534" lon="5.8685">
        <ele>249</ele>
        <time>2025-03-20T22:19:19Z</time>
      </trkpt>
      <trkpt lat="50.66548" lon="5.8678">
        <ele>249</ele>
        <time>2025-03-20T22:19:30Z</time>
      </trkpt>
      <trkpt lat="50.66621" lon="5.86254">
        <ele>245</ele>
        <time>2025-03-20T22:20:49Z</time>
      </trkpt>
      <trkpt lat="50.66642" lon="5.86132">
        <ele>243</ele>
        <time>2025-03-20T22:21:08Z</time>
      </trkpt>
      <trkpt lat="50.66664" lon="5.86051">
        <ele>243</ele>
        <time>2025-03-20T22:21:21Z</time>
      </trkpt>
      <trkpt lat="50.66698" lon="5.85966">
        <ele>244</ele>
        <time>2025-03-20T22:21:36Z</time>
      </trkpt>
      <trkpt lat="50.66742" lon="5.85882">
        <ele>243</ele>
        <time>2025-03-20T22:21:52Z</time>
      </trkpt>
      <trkpt lat="50.66765" lon="5.85848">
        <ele>242</ele>
        <time>2025-03-20T22:22:00Z</time>
      </trkpt>
      <trkpt lat="50.66809" lon="5.85792">
        <ele>241</ele>
        <time>2025-03-20T22:22:13Z</time>
      </trkpt>
      <trkpt lat="50.66864" lon="5.8574">
        <ele>237</ele>
        <time>2025-03-20T22:22:28Z</time>
      </trkpt>
      <trkpt lat="50.66916" lon="5.85705">
        <ele>235</ele>
        <time>2025-03-20T22:22:41Z</time>
      </trkpt>
      <trkpt lat="50.66947" lon="5.8569">
        <ele>235</ele>
        <time>2025-03-20T22:22:49Z</time>
      </trkpt>
      <trkpt lat="50.66992" lon="5.85674">
        <ele>234</ele>
        <time>2025-03-20T22:22:59Z</time>
      </trkpt>
      <trkpt lat="50.6702" lon="5.85668">
        <ele>234</ele>
        <time>2025-03-20T22:23:06Z</time>
      </trkpt>
      <trkpt lat="50.67257" lon="5.85636">
        <ele>229</ele>
        <time>2025-03-20T22:24:01Z</time>
      </trkpt>
      <trkpt lat="50.67316" lon="5.85619">
        <ele>226</ele>
        <time>2025-03-20T22:24:15Z</time>
      </trkpt>
      <trkpt lat="50.67342" lon="5.85606">
        <ele>226</ele>
        <time>2025-03-20T22:24:22Z</time>
      </trkpt>
      <trkpt lat="50.67416" lon="5.85545">
        <ele>222</ele>
        <time>2025-03-20T22:24:41Z</time>
      </trkpt>
      <trkpt lat="50.67518" lon="5.8542">
        <ele>220</ele>
        <time>2025-03-20T22:25:12Z</time>
      </trkpt>
      <trkpt lat="50.67547" lon="5.85392">
        <ele>218</ele>
        <time>2025-03-20T22:25:19Z</time>
      </trkpt>
      <trkpt lat="50.67597" lon="5.85358">
        <ele>214</ele>
        <time>2025-03-20T22:25:32Z</time>
      </trkpt>
      <trkpt lat="50.6762" lon="5.85348">
        <ele>213</ele>
        <time>2025-03-20T22:25:38Z</time>
      </trkpt>
      <trkpt lat="50.6766" lon="5.85338">
        <ele>212</ele>
        <time>2025-03-20T22:25:47Z</time>
      </trkpt>
      <trkpt lat="50.67699" lon="5.85337">
        <ele>213</ele>
        <time>2025-03-20T22:25:56Z</time>
      </trkpt>
      <trkpt lat="50.67954" lon="5.85292">
        <ele>214</ele>
        <time>2025-03-20T22:26:56Z</time>
      </trkpt>
      <trkpt lat="50.68041" lon="5.85284">
        <ele>216</ele>
        <time>2025-03-20T22:27:17Z</time>
      </trkpt>
      <trkpt lat="50.68049" lon="5.85279">
        <ele>215</ele>
        <time>2025-03-20T22:27:19Z</time>
      </trkpt>
      <trkpt lat="50.68064" lon="5.85286">
        <ele>216</ele>
        <time>2025-03-20T22:27:22Z</time>
      </trkpt>
      <trkpt lat="50.68071" lon="5.8528">
        <ele>216</ele>
        <time>2025-03-20T22:27:24Z</time>
      </trkpt>
      <trkpt lat="50.68149" lon="5.85266">
        <ele>216</ele>
        <time>2025-03-20T22:27:42Z</time>
      </trkpt>
      <trkpt lat="50.68213" lon="5.8526">
        <ele>215</ele>
        <time>2025-03-20T22:27:57Z</time>
      </trkpt>
      <trkpt lat="50.68248" lon="5.85263">
        <ele>214</ele>
        <time>2025-03-20T22:28:06Z</time>
      </trkpt>
      <trkpt lat="50.68307" lon="5.85276">
        <ele>212</ele>
        <time>2025-03-20T22:28:20Z</time>
      </trkpt>
      <trkpt lat="50.68342" lon="5.85289">
        <ele>210</ele>
        <time>2025-03-20T22:28:28Z</time>
      </trkpt>
      <trkpt lat="50.68786" lon="5.85489">
        <ele>198</ele>
        <time>2025-03-20T22:30:16Z</time>
      </trkpt>
      <trkpt lat="50.68823" lon="5.85501">
        <ele>202</ele>
        <time>2025-03-20T22:30:25Z</time>
      </trkpt>
      <trkpt lat="50.68872" lon="5.85509">
        <ele>205</ele>
        <time>2025-03-20T22:30:36Z</time>
      </trkpt>
      <trkpt lat="50.6908" lon="5.85525">
        <ele>209</ele>
        <time>2025-03-20T22:31:25Z</time>
      </trkpt>
      <trkpt lat="50.69636" lon="5.85607">
        <ele>220</ele>
        <time>2025-03-20T22:33:35Z</time>
      </trkpt>
      <trkpt lat="50.69684" lon="5.85619">
        <ele>222</ele>
        <time>2025-03-20T22:33:46Z</time>
      </trkpt>
      <trkpt lat="50.69724" lon="5.85639">
        <ele>223</ele>
        <time>2025-03-20T22:33:56Z</time>
      </trkpt>
      <trkpt lat="50.6976" lon="5.85663">
        <ele>224</ele>
        <time>2025-03-20T22:34:05Z</time>
      </trkpt>
      <trkpt lat="50.69797" lon="5.85697">
        <ele>226</ele>
        <time>2025-03-20T22:34:15Z</time>
      </trkpt>
      <trkpt lat="50.69831" lon="5.85735">
        <ele>228</ele>
        <time>2025-03-20T22:34:25Z</time>
      </trkpt>
      <trkpt lat="50.69873" lon="5.85807">
        <ele>229</ele>
        <time>2025-03-20T22:34:40Z</time>
      </trkpt>
      <trkpt lat="50.69944" lon="5.85954">
        <ele>233</ele>
        <time>2025-03-20T22:35:07Z</time>
      </trkpt>
      <trkpt lat="50.69986" lon="5.86035">
        <ele>236</ele>
        <time>2025-03-20T22:35:22Z</time>
      </trkpt>
      <trkpt lat="50.70039" lon="5.86109">
        <ele>240</ele>
        <time>2025-03-20T22:35:39Z</time>
      </trkpt>
      <trkpt lat="50.70091" lon="5.86165">
        <ele>241</ele>
        <time>2025-03-20T22:35:54Z</time>
      </trkpt>
      <trkpt lat="50.70121" lon="5.8619">
        <ele>241</ele>
        <time>2025-03-20T22:36:02Z</time>
      </trkpt>
      <trkpt lat="50.70173" lon="5.86224">
        <ele>242</ele>
        <time>2025-03-20T22:36:15Z</time>
      </trkpt>
      <trkpt lat="50.70262" lon="5.86265">
        <ele>240</ele>
        <time>2025-03-20T22:36:36Z</time>
      </trkpt>
      <trkpt lat="50.70275" lon="5.86266">
        <ele>239</ele>
        <time>2025-03-20T22:36:39Z</time>
      </trkpt>
      <trkpt lat="50.70289" lon="5.86278">
        <ele>239</ele>
        <time>2025-03-20T22:36:43Z</time>
      </trkpt>
      <trkpt lat="50.70616" lon="5.864">
        <ele>241</ele>
        <time>2025-03-20T22:38:02Z</time>
      </trkpt>
      <trkpt lat="50.7068" lon="5.8643">
        <ele>244</ele>
        <time>2025-03-20T22:38:17Z</time>
      </trkpt>
      <trkpt lat="50.70717" lon="5.86458">
        <ele>245</ele>
        <time>2025-03-20T22:38:27Z</time>
      </trkpt>
      <trkpt lat="50.70746" lon="5.86496">
        <ele>247</ele>
        <time>2025-03-20T22:38:36Z</time>
      </trkpt>
      <trkpt lat="50.70782" lon="5.86549">
        <ele>245</ele>
        <time>2025-03-20T22:38:47Z</time>
      </trkpt>
      <trkpt lat="50.70811" lon="5.86608">
        <ele>242</ele>
        <time>2025-03-20T22:38:58Z</time>
      </trkpt>
      <trkpt lat="50.70841" lon="5.86703">
        <ele>240</ele>
        <time>2025-03-20T22:39:14Z</time>
      </trkpt>
      <trkpt lat="50.70848" lon="5.86789">
        <ele>240</ele>
        <time>2025-03-20T22:39:27Z</time>
      </trkpt>
      <trkpt lat="50.70849" lon="5.8684">
        <ele>240</ele>
        <time>2025-03-20T22:39:34Z</time>
      </trkpt>
      <trkpt lat="50.70842" lon="5.86927">
        <ele>242</ele>
        <time>2025-03-20T22:39:47Z</time>
      </trkpt>
      <trkpt lat="50.70794" lon="5.87274">
        <ele>250</ele>
        <time>2025-03-20T22:40:40Z</time>
      </trkpt>
      <trkpt lat="50.70786" lon="5.87392">
        <ele>254</ele>
        <time>2025-03-20T22:40:57Z</time>
      </trkpt>
      <trkpt lat="50.70786" lon="5.87572">
        <ele>257</ele>
        <time>2025-03-20T22:41:24Z</time>
      </trkpt>
      <trkpt lat="50.70791" lon="5.87649">
        <ele>258</ele>
        <time>2025-03-20T22:41:35Z</time>
      </trkpt>
      <trkpt lat="50.70807" lon="5.87793">
        <ele>261</ele>
        <time>2025-03-20T22:41:57Z</time>
      </trkpt>
      <trkpt lat="50.70829" lon="5.87918">
        <ele>263</ele>
        <time>2025-03-20T22:42:16Z</time>
      </trkpt>
      <trkpt lat="50.70865" lon="5.88045">
        <ele>266</ele>
        <time>2025-03-20T22:42:37Z</time>
      </trkpt>
      <trkpt lat="50.70914" lon="5.88166">
        <ele>272</ele>
        <time>2025-03-20T22:42:58Z</time>
      </trkpt>
      <trkpt lat="50.70942" lon="5.88219">
        <ele>274</ele>
        <time>2025-03-20T22:43:08Z</time>
      </trkpt>
      <trkpt lat="50.70982" lon="5.88278">
        <ele>278</ele>
        <time>2025-03-20T22:43:21Z</time>
      </trkpt>
      <trkpt lat="50.71081" lon="5.8839">
        <ele>276</ele>
        <time>2025-03-20T22:43:49Z</time>
      </trkpt>
      <trkpt lat="50.71137" lon="5.88443">
        <ele>272</ele>
        <time>2025-03-20T22:44:05Z</time>
      </trkpt>
      <trkpt lat="50.71373" lon="5.88687">
        <ele>263</ele>
        <time>2025-03-20T22:45:10Z</time>
      </trkpt>
      <trkpt lat="50.71494" lon="5.88843">
        <ele>262</ele>
        <time>2025-03-20T22:45:47Z</time>
      </trkpt>
      <trkpt lat="50.71587" lon="5.89002">
        <ele>256</ele>
        <time>2025-03-20T22:46:19Z</time>
      </trkpt>
      <trkpt lat="50.71732" lon="5.89269">
        <ele>255</ele>
        <time>2025-03-20T22:47:11Z</time>
      </trkpt>
      <trkpt lat="50.71769" lon="5.89333">
        <ele>249</ele>
        <time>2025-03-20T22:47:24Z</time>
      </trkpt>
      <trkpt lat="50.71816" lon="5.89394">
        <ele>244</ele>
        <time>2025-03-20T22:47:38Z</time>
      </trkpt>
      <trkpt lat="50.71877" lon="5.89454">
        <ele>243</ele>
        <time>2025-03-20T22:47:55Z</time>
      </trkpt>
      <trkpt lat="50.72006" lon="5.89538">
        <ele>240</ele>
        <time>2025-03-20T22:48:27Z</time>
      </trkpt>
      <trkpt lat="50.72102" lon="5.89588">
        <ele>237</ele>
        <time>2025-03-20T22:48:51Z</time>
      </trkpt>
      <trkpt lat="50.72133" lon="5.89618">
        <ele>236</ele>
        <time>2025-03-20T22:48:59Z</time>
      </trkpt>
      <trkpt lat="50.72165" lon="5.8966">
        <ele>236</ele>
        <time>2025-03-20T22:49:09Z</time>
      </trkpt>
      <trkpt lat="50.72206" lon="5.89731">
        <ele>235</ele>
        <time>2025-03-20T22:49:23Z</time>
      </trkpt>
      <trkpt lat="50.72228" lon="5.89794">
        <ele>236</ele>
        <time>2025-03-20T22:49:34Z</time>
      </trkpt>
      <trkpt lat="50.72247" lon="5.89899">
        <ele>238</ele>
        <time>2025-03-20T22:49:50Z</time>
      </trkpt>
      <trkpt lat="50.72251" lon="5.89964">
        <ele>237</ele>
        <time>2025-03-20T22:50:00Z</time>
      </trkpt>
      <trkpt lat="50.7225" lon="5.90009">
        <ele>237</ele>
        <time>2025-03-20T22:50:06Z</time>
      </trkpt>
      <trkpt lat="50.72241" lon="5.90082">
        <ele>233</ele>
        <time>2025-03-20T22:50:17Z</time>
      </trkpt>
      <trkpt lat="50.72216" lon="5.90181">
        <ele>229</ele>
        <time>2025-03-20T22:50:33Z</time>
      </trkpt>
      <trkpt lat="50.72196" lon="5.9023">
        <ele>228</ele>
        <time>2025-03-20T22:50:42Z</time>
      </trkpt>
      <trkpt lat="50.72048" lon="5.90479">
        <ele>219</ele>
        <time>2025-03-20T22:51:32Z</time>
      </trkpt>
      <trkpt lat="50.71907" lon="5.90724">
        <ele>224</ele>
        <time>2025-03-20T22:52:21Z</time>
      </trkpt>
      <trkpt lat="50.7189" lon="5.90768">
        <ele>222</ele>
        <time>2025-03-20T22:52:29Z</time>
      </trkpt>
      <trkpt lat="50.71872" lon="5.90825">
        <ele>221</ele>
        <time>2025-03-20T22:52:38Z</time>
      </trkpt>
      <trkpt lat="50.71863" lon="5.9087">
        <ele>219</ele>
        <time>2025-03-20T22:52:45Z</time>
      </trkpt>
      <trkpt lat="50.71854" lon="5.90953">
        <ele>217</ele>
        <time>2025-03-20T22:52:58Z</time>
      </trkpt>
      <trkpt lat="50.71857" lon="5.91062">
        <ele>216</ele>
        <time>2025-03-20T22:53:14Z</time>
      </trkpt>
      <trkpt lat="50.71865" lon="5.9111">
        <ele>214</ele>
        <time>2025-03-20T22:53:21Z</time>
      </trkpt>
      <trkpt lat="50.71882" lon="5.9117">
        <ele>212</ele>
        <time>2025-03-20T22:53:31Z</time>
      </trkpt>
      <trkpt lat="50.71918" lon="5.91259">
        <ele>210</ele>
        <time>2025-03-20T22:53:47Z</time>
      </trkpt>
      <trkpt lat="50.71949" lon="5.91308">
        <ele>210</ele>
        <time>2025-03-20T22:53:57Z</time>
      </trkpt>
      <trkpt lat="50.72" lon="5.91362">
        <ele>211</ele>
        <time>2025-03-20T22:54:11Z</time>
      </trkpt>
      <trkpt lat="50.72032" lon="5.91384">
        <ele>211</ele>
        <time>2025-03-20T22:54:19Z</time>
      </trkpt>
      <trkpt lat="50.7211" lon="5.91407">
        <ele>211</ele>
        <time>2025-03-20T22:54:38Z</time>
      </trkpt>
      <trkpt lat="50.72156" lon="5.91404">
        <ele>211</ele>
        <time>2025-03-20T22:54:49Z</time>
      </trkpt>
      <trkpt lat="50.72197" lon="5.91389">
        <ele>213</ele>
        <time>2025-03-20T22:54:58Z</time>
      </trkpt>
      <trkpt lat="50.72197" lon="5.91362">
        <ele>211</ele>
        <time>2025-03-20T22:55:02Z</time>
      </trkpt>
      <trkpt lat="50.72563" lon="5.91108">
        <ele>213</ele>
        <time>2025-03-20T22:56:36Z</time>
      </trkpt>
      <trkpt lat="50.72608" lon="5.91083">
        <ele>212</ele>
        <time>2025-03-20T22:56:47Z</time>
      </trkpt>
      <trkpt lat="50.7266" lon="5.91062">
        <ele>213</ele>
        <time>2025-03-20T22:56:59Z</time>
      </trkpt>
      <trkpt lat="50.72729" lon="5.91059">
        <ele>212</ele>
        <time>2025-03-20T22:57:16Z</time>
      </trkpt>
      <trkpt lat="50.72756" lon="5.91063">
        <ele>212</ele>
        <time>2025-03-20T22:57:22Z</time>
      </trkpt>
      <trkpt lat="50.72783" lon="5.91075">
        <ele>213</ele>
        <time>2025-03-20T22:57:28Z</time>
      </trkpt>
      <trkpt lat="50.72849" lon="5.91119">
        <ele>217</ele>
        <time>2025-03-20T22:57:45Z</time>
      </trkpt>
      <trkpt lat="50.72881" lon="5.91149">
        <ele>223</ele>
        <time>2025-03-20T22:57:54Z</time>
      </trkpt>
      <trkpt lat="50.72923" lon="5.91207">
        <ele>229</ele>
        <time>2025-03-20T22:58:07Z</time>
      </trkpt>
      <trkpt lat="50.72966" lon="5.91303">
        <ele>231</ele>
        <time>2025-03-20T22:58:24Z</time>
      </trkpt>
      <trkpt lat="50.72983" lon="5.91384">
        <ele>229</ele>
        <time>2025-03-20T22:58:37Z</time>
      </trkpt>
      <trkpt lat="50.72994" lon="5.91468">
        <ele>224</ele>
        <time>2025-03-20T22:58:50Z</time>
      </trkpt>
      <trkpt lat="50.72991" lon="5.91583">
        <ele>222</ele>
        <time>2025-03-20T22:59:07Z</time>
      </trkpt>
      <trkpt lat="50.72983" lon="5.91633">
        <ele>220</ele>
        <time>2025-03-20T22:59:14Z</time>
      </trkpt>
      <trkpt lat="50.72955" lon="5.91746">
        <ele>215</ele>
        <time>2025-03-20T22:59:32Z</time>
      </trkpt>
      <trkpt lat="50.72903" lon="5.91863">
        <ele>215</ele>
        <time>2025-03-20T22:59:53Z</time>
      </trkpt>
      <trkpt lat="50.72813" lon="5.92043">
        <ele>220</ele>
        <time>2025-03-20T23:00:27Z</time>
      </trkpt>
      <trkpt lat="50.72678" lon="5.92275">
        <ele>226</ele>
        <time>2025-03-20T23:01:14Z</time>
      </trkpt>
      <trkpt lat="50.72663" lon="5.92308">
        <ele>224</ele>
        <time>2025-03-20T23:01:20Z</time>
      </trkpt>
      <trkpt lat="50.72634" lon="5.92403">
        <ele>221</ele>
        <time>2025-03-20T23:01:35Z</time>
      </trkpt>
      <trkpt lat="50.72668" lon="5.92687">
        <ele>219</ele>
        <time>2025-03-20T23:02:18Z</time>
      </trkpt>
      <trkpt lat="50.72659" lon="5.92745">
        <ele>220</ele>
        <time>2025-03-20T23:02:27Z</time>
      </trkpt>
      <trkpt lat="50.72637" lon="5.92826">
        <ele>221</ele>
        <time>2025-03-20T23:02:40Z</time>
      </trkpt>
      <trkpt lat="50.72626" lon="5.92838">
        <ele>221</ele>
        <time>2025-03-20T23:02:43Z</time>
      </trkpt>
      <trkpt lat="50.72626" lon="5.9285">
        <ele>221</ele>
        <time>2025-03-20T23:02:45Z</time>
      </trkpt>
      <trkpt lat="50.72638" lon="5.92858">
        <ele>221</ele>
        <time>2025-03-20T23:02:48Z</time>
      </trkpt>
      <trkpt lat="50.72695" lon="5.92989">
        <ele>217</ele>
        <time>2025-03-20T23:03:11Z</time>
      </trkpt>
      <trkpt lat="50.72729" lon="5.9306">
        <ele>213</ele>
        <time>2025-03-20T23:03:25Z</time>
      </trkpt>
      <trkpt lat="50.72775" lon="5.93138">
        <ele>210</ele>
        <time>2025-03-20T23:03:40Z</time>
      </trkpt>
      <trkpt lat="50.72897" lon="5.93323">
        <ele>205</ele>
        <time>2025-03-20T23:04:20Z</time>
      </trkpt>
      <trkpt lat="50.72873" lon="5.93363">
        <ele>206</ele>
        <time>2025-03-20T23:04:28Z</time>
      </trkpt>
      <trkpt lat="50.72902" lon="5.93415">
        <ele>204</ele>
        <time>2025-03-20T23:04:38Z</time>
      </trkpt>
      <trkpt lat="50.72912" lon="5.93431">
        <ele>204</ele>
        <time>2025-03-20T23:04:41Z</time>
      </trkpt>
      <trkpt lat="50.72951" lon="5.93441">
        <ele>203</ele>
        <time>2025-03-20T23:04:51Z</time>
      </trkpt>
      <trkpt lat="50.72971" lon="5.93441">
        <ele>203</ele>
        <time>2025-03-20T23:04:55Z</time>
      </trkpt>
      <trkpt lat="50.7301" lon="5.93498">
        <ele>202</ele>
        <time>2025-03-20T23:05:08Z</time>
      </trkpt>
      <trkpt lat="50.73012" lon="5.93517">
        <ele>201</ele>
        <time>2025-03-20T23:05:11Z</time>
      </trkpt>
      <trkpt lat="50.73023" lon="5.93533">
        <ele>201</ele>
        <time>2025-03-20T23:05:14Z</time>
      </trkpt>
      <trkpt lat="50.73035" lon="5.93638">
        <ele>199</ele>
        <time>2025-03-20T23:05:30Z</time>
      </trkpt>
      <trkpt lat="50.73045" lon="5.93766">
        <ele>198</ele>
        <time>2025-03-20T23:05:49Z</time>
      </trkpt>
      <trkpt lat="50.73052" lon="5.93896">
        <ele>196</ele>
        <time>2025-03-20T23:06:08Z</time>
      </trkpt>
      <trkpt lat="50.73064" lon="5.94044">
        <ele>193</ele>
        <time>2025-03-20T23:06:30Z</time>
      </trkpt>
      <trkpt lat="50.73072" lon="5.94212">
        <ele>189</ele>
        <time>2025-03-20T23:06:55Z</time>
      </trkpt>
      <trkpt lat="50.73083" lon="5.94345">
        <ele>189</ele>
        <time>2025-03-20T23:07:15Z</time>
      </trkpt>
      <trkpt lat="50.7309" lon="5.94402">
        <ele>187</ele>
        <time>2025-03-20T23:07:24Z</time>
      </trkpt>
      <trkpt lat="50.73102" lon="5.94472">
        <ele>185</ele>
        <time>2025-03-20T23:07:34Z</time>
      </trkpt>
      <trkpt lat="50.73127" lon="5.94575">
        <ele>183</ele>
        <time>2025-03-20T23:07:51Z</time>
      </trkpt>
      <trkpt lat="50.73168" lon="5.94695">
        <ele>179</ele>
        <time>2025-03-20T23:08:11Z</time>
      </trkpt>
      <trkpt lat="50.73187" lon="5.94738">
        <ele>178</ele>
        <time>2025-03-20T23:08:19Z</time>
      </trkpt>
      <trkpt lat="50.73226" lon="5.94811">
        <ele>178</ele>
        <time>2025-03-20T23:08:33Z</time>
      </trkpt>
      <trkpt lat="50.73577" lon="5.95384">
        <ele>173</ele>
        <time>2025-03-20T23:10:31Z</time>
      </trkpt>
      <trkpt lat="50.736" lon="5.95433">
        <ele>174</ele>
        <time>2025-03-20T23:10:40Z</time>
      </trkpt>
      <trkpt lat="50.73622" lon="5.95501">
        <ele>173</ele>
        <time>2025-03-20T23:10:51Z</time>
      </trkpt>
      <trkpt lat="50.73635" lon="5.95587">
        <ele>169</ele>
        <time>2025-03-20T23:11:04Z</time>
      </trkpt>
      <trkpt lat="50.73639" lon="5.95645">
        <ele>168</ele>
        <time>2025-03-20T23:11:13Z</time>
      </trkpt>
      <trkpt lat="50.73638" lon="5.95701">
        <ele>167</ele>
        <time>2025-03-20T23:11:21Z</time>
      </trkpt>
      <trkpt lat="50.73635" lon="5.95732">
        <ele>166</ele>
        <time>2025-03-20T23:11:25Z</time>
      </trkpt>
      <trkpt lat="50.73622" lon="5.95806">
        <ele>167</ele>
        <time>2025-03-20T23:11:37Z</time>
      </trkpt>
      <trkpt lat="50.73611" lon="5.95843">
        <ele>167</ele>
        <time>2025-03-20T23:11:43Z</time>
      </trkpt>
      <trkpt lat="50.73567" lon="5.95933">
        <ele>168</ele>
        <time>2025-03-20T23:12:00Z</time>
      </trkpt>
      <trkpt lat="50.7358" lon="5.95949">
        <ele>167</ele>
        <time>2025-03-20T23:12:03Z</time>
      </trkpt>
      <trkpt lat="50.73593" lon="5.95951">
        <ele>167</ele>
        <time>2025-03-20T23:12:07Z</time>
      </trkpt>
      <trkpt lat="50.73592" lon="5.95962">
        <ele>167</ele>
        <time>2025-03-20T23:12:08Z</time>
      </trkpt>
      <trkpt lat="50.73621" lon="5.9602">
        <ele>165</ele>
        <time>2025-03-20T23:12:19Z</time>
      </trkpt>
      <trkpt lat="50.73673" lon="5.9617">
        <ele>157</ele>
        <time>2025-03-20T23:12:44Z</time>
      </trkpt>
      <trkpt lat="50.73688" lon="5.96207">
        <ele>154</ele>
        <time>2025-03-20T23:12:51Z</time>
      </trkpt>
      <trkpt lat="50.73688" lon="5.96234">
        <ele>152</ele>
        <time>2025-03-20T23:12:55Z</time>
      </trkpt>
      <trkpt lat="50.73863" lon="5.96474">
        <ele>148</ele>
        <time>2025-03-20T23:13:49Z</time>
      </trkpt>
      <trkpt lat="50.73895" lon="5.96524">
        <ele>148</ele>
        <time>2025-03-20T23:13:59Z</time>
      </trkpt>
      <trkpt lat="50.7399" lon="5.96614">
        <ele>148</ele>
        <time>2025-03-20T23:14:25Z</time>
      </trkpt>
      <trkpt lat="50.74038" lon="5.96652">
        <ele>146</ele>
        <time>2025-03-20T23:14:38Z</time>
      </trkpt>
      <trkpt lat="50.74081" lon="5.96642">
        <ele>146</ele>
        <time>2025-03-20T23:14:48Z</time>
      </trkpt>
      <trkpt lat="50.74101" lon="5.96631">
        <ele>145</ele>
        <time>2025-03-20T23:14:53Z</time>
      </trkpt>
      <trkpt lat="50.74153" lon="5.96566">
        <ele>141</ele>
        <time>2025-03-20T23:15:08Z</time>
      </trkpt>
      <trkpt lat="50.74181" lon="5.96546">
        <ele>140</ele>
        <time>2025-03-20T23:15:16Z</time>
      </trkpt>
      <trkpt lat="50.74191" lon="5.96566">
        <ele>139</ele>
        <time>2025-03-20T23:15:19Z</time>
      </trkpt>
      <trkpt lat="50.74243" lon="5.96438">
        <ele>138</ele>
        <time>2025-03-20T23:15:42Z</time>
      </trkpt>
      <trkpt lat="50.74255" lon="5.96423">
        <ele>137</ele>
        <time>2025-03-20T23:15:45Z</time>
      </trkpt>
      <trkpt lat="50.74258" lon="5.96443">
        <ele>138</ele>
        <time>2025-03-20T23:15:49Z</time>
      </trkpt>
      <trkpt lat="50.7427" lon="5.96442">
        <ele>139</ele>
        <time>2025-03-20T23:15:51Z</time>
      </trkpt>
      <trkpt lat="50.74304" lon="5.96414">
        <ele>139</ele>
        <time>2025-03-20T23:16:00Z</time>
      </trkpt>
      <trkpt lat="50.74333" lon="5.96414">
        <ele>141</ele>
        <time>2025-03-20T23:16:07Z</time>
      </trkpt>
      <trkpt lat="50.74403" lon="5.96459">
        <ele>143</ele>
        <time>2025-03-20T23:16:25Z</time>
      </trkpt>
      <trkpt lat="50.74505" lon="5.96426">
        <ele>155</ele>
        <time>2025-03-20T23:16:49Z</time>
      </trkpt>
      <trkpt lat="50.74577" lon="5.96289">
        <ele>160</ele>
        <time>2025-03-20T23:17:15Z</time>
      </trkpt>
      <trkpt lat="50.74721" lon="5.96207">
        <ele>178</ele>
        <time>2025-03-20T23:17:51Z</time>
      </trkpt>
      <trkpt lat="50.74719" lon="5.96108">
        <ele>177</ele>
        <time>2025-03-20T23:18:06Z</time>
      </trkpt>
      <trkpt lat="50.74637" lon="5.95741">
        <ele>178</ele>
        <time>2025-03-20T23:19:03Z</time>
      </trkpt>
      <trkpt lat="50.74631" lon="5.95624">
        <ele>174</ele>
        <time>2025-03-20T23:19:21Z</time>
      </trkpt>
      <trkpt lat="50.74623" lon="5.95563">
        <ele>172</ele>
        <time>2025-03-20T23:19:30Z</time>
      </trkpt>
      <trkpt lat="50.74639" lon="5.95398">
        <ele>167</ele>
        <time>2025-03-20T23:19:54Z</time>
      </trkpt>
      <trkpt lat="50.74639" lon="5.95264">
        <ele>157</ele>
        <time>2025-03-20T23:20:14Z</time>
      </trkpt>
      <trkpt lat="50.74656" lon="5.95248">
        <ele>156</ele>
        <time>2025-03-20T23:20:19Z</time>
      </trkpt>
      <trkpt lat="50.74682" lon="5.95259">
        <ele>155</ele>
        <time>2025-03-20T23:20:25Z</time>
      </trkpt>
      <trkpt lat="50.74739" lon="5.95182">
        <ele>143</ele>
        <time>2025-03-20T23:20:43Z</time>
      </trkpt>
      <trkpt lat="50.74741" lon="5.95158">
        <ele>141</ele>
        <time>2025-03-20T23:20:46Z</time>
      </trkpt>
      <trkpt lat="50.7472" lon="5.95054">
        <ele>134</ele>
        <time>2025-03-20T23:21:02Z</time>
      </trkpt>
      <trkpt lat="50.74721" lon="5.95024">
        <ele>133</ele>
        <time>2025-03-20T23:21:07Z</time>
      </trkpt>
      <trkpt lat="50.74732" lon="5.95016">
        <ele>133</ele>
        <time>2025-03-20T23:21:10Z</time>
      </trkpt>
      <trkpt lat="50.74733" lon="5.94975">
        <ele>132</ele>
        <time>2025-03-20T23:21:16Z</time>
      </trkpt>
      <trkpt lat="50.74765" lon="5.94888">
        <ele>132</ele>
        <time>2025-03-20T23:21:31Z</time>
      </trkpt>
      <trkpt lat="50.74815" lon="5.94692">
        <ele>126</ele>
        <time>2025-03-20T23:22:02Z</time>
      </trkpt>
      <trkpt lat="50.74839" lon="5.94621">
        <ele>126</ele>
        <time>2025-03-20T23:22:14Z</time>
      </trkpt>
      <trkpt lat="50.74895" lon="5.94563">
        <ele>126</ele>
        <time>2025-03-20T23:22:29Z</time>
      </trkpt>
      <trkpt lat="50.74919" lon="5.94519">
        <ele>126</ele>
        <time>2025-03-20T23:22:38Z</time>
      </trkpt>
      <trkpt lat="50.74961" lon="5.94396">
        <ele>129</ele>
        <time>2025-03-20T23:22:59Z</time>
      </trkpt>
      <trkpt lat="50.75052" lon="5.9427">
        <ele>134</ele>
        <time>2025-03-20T23:23:27Z</time>
      </trkpt>
      <trkpt lat="50.75087" lon="5.94207">
        <ele>133</ele>
        <time>2025-03-20T23:23:39Z</time>
      </trkpt>
      <trkpt lat="50.75145" lon="5.94144">
        <ele>132</ele>
        <time>2025-03-20T23:23:56Z</time>
      </trkpt>
      <trkpt lat="50.75165" lon="5.94149">
        <ele>133</ele>
        <time>2025-03-20T23:24:00Z</time>
      </trkpt>
      <trkpt lat="50.75195" lon="5.94235">
        <ele>140</ele>
        <time>2025-03-20T23:24:15Z</time>
      </trkpt>
      <trkpt lat="50.7523" lon="5.94269">
        <ele>142</ele>
        <time>2025-03-20T23:24:24Z</time>
      </trkpt>
      <trkpt lat="50.75337" lon="5.94122">
        <ele>133</ele>
        <time>2025-03-20T23:24:58Z</time>
      </trkpt>
      <trkpt lat="50.7539" lon="5.93976">
        <ele>125</ele>
        <time>2025-03-20T23:25:22Z</time>
      </trkpt>
      <trkpt lat="50.75436" lon="5.93902">
        <ele>125</ele>
        <time>2025-03-20T23:25:38Z</time>
      </trkpt>
      <trkpt lat="50.75452" lon="5.93896">
        <ele>125</ele>
        <time>2025-03-20T23:25:42Z</time>
      </trkpt>
      <trkpt lat="50.75494" lon="5.93888">
        <ele>126</ele>
        <time>2025-03-20T23:25:51Z</time>
      </trkpt>
      <trkpt lat="50.7554" lon="5.93897">
        <ele>126</ele>
        <time>2025-03-20T23:26:02Z</time>
      </trkpt>
      <trkpt lat="50.75581" lon="5.93886">
        <ele>125</ele>
        <time>2025-03-20T23:26:12Z</time>
      </trkpt>
      <trkpt lat="50.75634" lon="5.93834">
        <ele>123</ele>
        <time>2025-03-20T23:26:27Z</time>
      </trkpt>
    </trkseg>
  </trk>
  <trk>
    <name><![CDATA[jour 1_2_48km_sans_la_fin]]></name>
    <extensions>
      <line xmlns="http://www.topografix.com/GPX/gpx_style/0/2">
        <color>00FF00</color>
        <width>4</width>
      </line>
    </extensions>
    <trkseg>
      <trkpt lat="50.62459" lon="5.56676">
        <ele>69</ele>
        <time>2025-03-22T16:23:57Z</time>
      </trkpt>
      <trkpt lat="50.62478" lon="5.56758">
        <ele>65</ele>
        <time>2025-03-22T16:24:10Z</time>
      </trkpt>
      <trkpt lat="50.62439" lon="5.56826">
        <ele>67</ele>
        <time>2025-03-22T16:24:24Z</time>
      </trkpt>
      <trkpt lat="50.62514" lon="5.56895">
        <ele>67</ele>
        <time>2025-03-22T16:24:44Z</time>
      </trkpt>
      <trkpt lat="50.62536" lon="5.56923">
        <ele>67</ele>
        <time>2025-03-22T16:24:50Z</time>
      </trkpt>
      <trkpt lat="50.62626" lon="5.57087">
        <ele>66</ele>
        <time>2025-03-22T16:25:23Z</time>
      </trkpt>
      <trkpt lat="50.62753" lon="5.5727">
        <ele>70</ele>
        <time>2025-03-22T16:26:03Z</time>
      </trkpt>
      <trkpt lat="50.62768" lon="5.57303">
        <ele>67</ele>
        <time>2025-03-22T16:26:09Z</time>
      </trkpt>
      <trkpt lat="50.62761" lon="5.57312">
        <ele>67</ele>
        <time>2025-03-22T16:26:11Z</time>
      </trkpt>
      <trkpt lat="50.62781" lon="5.57369">
        <ele>61</ele>
        <time>2025-03-22T16:26:20Z</time>
      </trkpt>
      <trkpt lat="50.62865" lon="5.57542">
        <ele>65</ele>
        <time>2025-03-22T16:26:53Z</time>
      </trkpt>
      <trkpt lat="50.62848" lon="5.5756">
        <ele>66</ele>
        <time>2025-03-22T16:26:58Z</time>
      </trkpt>
      <trkpt lat="50.6279" lon="5.576">
        <ele>72</ele>
        <time>2025-03-22T16:27:12Z</time>
      </trkpt>
      <trkpt lat="50.62769" lon="5.57586">
        <ele>73</ele>
        <time>2025-03-22T16:27:18Z</time>
      </trkpt>
      <trkpt lat="50.62757" lon="5.57585">
        <ele>74</ele>
        <time>2025-03-22T16:27:20Z</time>
      </trkpt>
      <trkpt lat="50.62708" lon="5.57618">
        <ele>69</ele>
        <time>2025-03-22T16:27:33Z</time>
      </trkpt>
      <trkpt lat="50.62562" lon="5.57732">
        <ele>65</ele>
        <time>2025-03-22T16:28:11Z</time>
      </trkpt>
      <trkpt lat="50.62546" lon="5.57761">
        <ele>66</ele>
        <time>2025-03-22T16:28:17Z</time>
      </trkpt>
      <trkpt lat="50.62497" lon="5.57793">
        <ele>66</ele>
        <time>2025-03-22T16:28:29Z</time>
      </trkpt>
      <trkpt lat="50.62488" lon="5.57807">
        <ele>67</ele>
        <time>2025-03-22T16:28:32Z</time>
      </trkpt>
      <trkpt lat="50.62484" lon="5.57832">
        <ele>67</ele>
        <time>2025-03-22T16:28:36Z</time>
      </trkpt>
      <trkpt lat="50.625" lon="5.57977">
        <ele>66</ele>
        <time>2025-03-22T16:28:58Z</time>
      </trkpt>
      <trkpt lat="50.62425" lon="5.57984">
        <ele>63</ele>
        <time>2025-03-22T16:29:15Z</time>
      </trkpt>
      <trkpt lat="50.62398" lon="5.57993">
        <ele>62</ele>
        <time>2025-03-22T16:29:22Z</time>
      </trkpt>
      <trkpt lat="50.62364" lon="5.58012">
        <ele>61</ele>
        <time>2025-03-22T16:29:30Z</time>
      </trkpt>
      <trkpt lat="50.62331" lon="5.58038">
        <ele>61</ele>
        <time>2025-03-22T16:29:39Z</time>
      </trkpt>
      <trkpt lat="50.62281" lon="5.58093">
        <ele>62</ele>
        <time>2025-03-22T16:29:53Z</time>
      </trkpt>
      <trkpt lat="50.6228" lon="5.58103">
        <ele>63</ele>
        <time>2025-03-22T16:29:54Z</time>
      </trkpt>
      <trkpt lat="50.62223" lon="5.58216">
        <ele>66</ele>
        <time>2025-03-22T16:30:16Z</time>
      </trkpt>
      <trkpt lat="50.62212" lon="5.58221">
        <ele>65</ele>
        <time>2025-03-22T16:30:18Z</time>
      </trkpt>
      <trkpt lat="50.62206" lon="5.58229">
        <ele>65</ele>
        <time>2025-03-22T16:30:20Z</time>
      </trkpt>
      <trkpt lat="50.62197" lon="5.58249">
        <ele>66</ele>
        <time>2025-03-22T16:30:24Z</time>
      </trkpt>
      <trkpt lat="50.62162" lon="5.58342">
        <ele>69</ele>
        <time>2025-03-22T16:30:40Z</time>
      </trkpt>
      <trkpt lat="50.6216" lon="5.5836">
        <ele>69</ele>
        <time>2025-03-22T16:30:43Z</time>
      </trkpt>
      <trkpt lat="50.62042" lon="5.58702">
        <ele>65</ele>
        <time>2025-03-22T16:31:40Z</time>
      </trkpt>
      <trkpt lat="50.62011" lon="5.58803">
        <ele>66</ele>
        <time>2025-03-22T16:31:57Z</time>
      </trkpt>
      <trkpt lat="50.61961" lon="5.58935">
        <ele>69</ele>
        <time>2025-03-22T16:32:20Z</time>
      </trkpt>
      <trkpt lat="50.6192" lon="5.59032">
        <ele>70</ele>
        <time>2025-03-22T16:32:37Z</time>
      </trkpt>
      <trkpt lat="50.61833" lon="5.59211">
        <ele>64</ele>
        <time>2025-03-22T16:33:10Z</time>
      </trkpt>
      <trkpt lat="50.61821" lon="5.59222">
        <ele>64</ele>
        <time>2025-03-22T16:33:14Z</time>
      </trkpt>
      <trkpt lat="50.61762" lon="5.59153">
        <ele>65</ele>
        <time>2025-03-22T16:33:31Z</time>
      </trkpt>
      <trkpt lat="50.61703" lon="5.59281">
        <ele>70</ele>
        <time>2025-03-22T16:33:54Z</time>
      </trkpt>
      <trkpt lat="50.61628" lon="5.59468">
        <ele>72</ele>
        <time>2025-03-22T16:34:27Z</time>
      </trkpt>
      <trkpt lat="50.61571" lon="5.59655">
        <ele>67</ele>
        <time>2025-03-22T16:34:58Z</time>
      </trkpt>
      <trkpt lat="50.61505" lon="5.59902">
        <ele>64</ele>
        <time>2025-03-22T16:35:37Z</time>
      </trkpt>
      <trkpt lat="50.61487" lon="5.59983">
        <ele>64</ele>
        <time>2025-03-22T16:35:50Z</time>
      </trkpt>
      <trkpt lat="50.61482" lon="5.6004">
        <ele>64</ele>
        <time>2025-03-22T16:35:59Z</time>
      </trkpt>
      <trkpt lat="50.61473" lon="5.60093">
        <ele>65</ele>
        <time>2025-03-22T16:36:07Z</time>
      </trkpt>
      <trkpt lat="50.61455" lon="5.60131">
        <ele>65</ele>
        <time>2025-03-22T16:36:14Z</time>
      </trkpt>
      <trkpt lat="50.61448" lon="5.60184">
        <ele>66</ele>
        <time>2025-03-22T16:36:22Z</time>
      </trkpt>
      <trkpt lat="50.61428" lon="5.60195">
        <ele>67</ele>
        <time>2025-03-22T16:36:27Z</time>
      </trkpt>
      <trkpt lat="50.6141" lon="5.60246">
        <ele>68</ele>
        <time>2025-03-22T16:36:35Z</time>
      </trkpt>
      <trkpt lat="50.61152" lon="5.61203">
        <ele>65</ele>
        <time>2025-03-22T16:39:10Z</time>
      </trkpt>
      <trkpt lat="50.61127" lon="5.6119">
        <ele>64</ele>
        <time>2025-03-22T16:39:16Z</time>
      </trkpt>
      <trkpt lat="50.61118" lon="5.61224">
        <ele>65</ele>
        <time>2025-03-22T16:39:21Z</time>
      </trkpt>
      <trkpt lat="50.61108" lon="5.61238">
        <ele>65</ele>
        <time>2025-03-22T16:39:24Z</time>
      </trkpt>
      <trkpt lat="50.61093" lon="5.61248">
        <ele>64</ele>
        <time>2025-03-22T16:39:28Z</time>
      </trkpt>
      <trkpt lat="50.61074" lon="5.61252">
        <ele>64</ele>
        <time>2025-03-22T16:39:33Z</time>
      </trkpt>
      <trkpt lat="50.61052" lon="5.6125">
        <ele>65</ele>
        <time>2025-03-22T16:39:38Z</time>
      </trkpt>
      <trkpt lat="50.60952" lon="5.61221">
        <ele>67</ele>
        <time>2025-03-22T16:40:01Z</time>
      </trkpt>
      <trkpt lat="50.60892" lon="5.61197">
        <ele>68</ele>
        <time>2025-03-22T16:40:16Z</time>
      </trkpt>
      <trkpt lat="50.60926" lon="5.6122">
        <ele>67</ele>
        <time>2025-03-22T16:40:25Z</time>
      </trkpt>
      <trkpt lat="50.60854" lon="5.61471">
        <ele>67</ele>
        <time>2025-03-22T16:41:05Z</time>
      </trkpt>
      <trkpt lat="50.6084" lon="5.61557">
        <ele>69</ele>
        <time>2025-03-22T16:41:19Z</time>
      </trkpt>
      <trkpt lat="50.60851" lon="5.61565">
        <ele>69</ele>
        <time>2025-03-22T16:41:21Z</time>
      </trkpt>
      <trkpt lat="50.60849" lon="5.61612">
        <ele>69</ele>
        <time>2025-03-22T16:41:28Z</time>
      </trkpt>
      <trkpt lat="50.60814" lon="5.61728">
        <ele>70</ele>
        <time>2025-03-22T16:41:47Z</time>
      </trkpt>
      <trkpt lat="50.60815" lon="5.61745">
        <ele>70</ele>
        <time>2025-03-22T16:41:50Z</time>
      </trkpt>
      <trkpt lat="50.60802" lon="5.61794">
        <ele>70</ele>
        <time>2025-03-22T16:41:58Z</time>
      </trkpt>
      <trkpt lat="50.60744" lon="5.61975">
        <ele>71</ele>
        <time>2025-03-22T16:42:28Z</time>
      </trkpt>
      <trkpt lat="50.60686" lon="5.62091">
        <ele>71</ele>
        <time>2025-03-22T16:42:50Z</time>
      </trkpt>
      <trkpt lat="50.60663" lon="5.6215">
        <ele>72</ele>
        <time>2025-03-22T16:43:00Z</time>
      </trkpt>
      <trkpt lat="50.60504" lon="5.62638">
        <ele>70</ele>
        <time>2025-03-22T16:44:21Z</time>
      </trkpt>
      <trkpt lat="50.60464" lon="5.62767">
        <ele>70</ele>
        <time>2025-03-22T16:44:43Z</time>
      </trkpt>
      <trkpt lat="50.60446" lon="5.62758">
        <ele>70</ele>
        <time>2025-03-22T16:44:47Z</time>
      </trkpt>
      <trkpt lat="50.60441" lon="5.62762">
        <ele>70</ele>
        <time>2025-03-22T16:44:48Z</time>
      </trkpt>
      <trkpt lat="50.60425" lon="5.62801">
        <ele>70</ele>
        <time>2025-03-22T16:44:55Z</time>
      </trkpt>
      <trkpt lat="50.60396" lon="5.62964">
        <ele>70</ele>
        <time>2025-03-22T16:45:20Z</time>
      </trkpt>
      <trkpt lat="50.6035" lon="5.63151">
        <ele>71</ele>
        <time>2025-03-22T16:45:50Z</time>
      </trkpt>
      <trkpt lat="50.60335" lon="5.6325">
        <ele>70</ele>
        <time>2025-03-22T16:46:05Z</time>
      </trkpt>
      <trkpt lat="50.60322" lon="5.63363">
        <ele>72</ele>
        <time>2025-03-22T16:46:22Z</time>
      </trkpt>
      <trkpt lat="50.60317" lon="5.63439">
        <ele>73</ele>
        <time>2025-03-22T16:46:33Z</time>
      </trkpt>
      <trkpt lat="50.60318" lon="5.63457">
        <ele>73</ele>
        <time>2025-03-22T16:46:36Z</time>
      </trkpt>
      <trkpt lat="50.60331" lon="5.63503">
        <ele>74</ele>
        <time>2025-03-22T16:46:44Z</time>
      </trkpt>
      <trkpt lat="50.60346" lon="5.63505">
        <ele>75</ele>
        <time>2025-03-22T16:46:47Z</time>
      </trkpt>
      <trkpt lat="50.60355" lon="5.63523">
        <ele>76</ele>
        <time>2025-03-22T16:46:50Z</time>
      </trkpt>
      <trkpt lat="50.60354" lon="5.6355">
        <ele>77</ele>
        <time>2025-03-22T16:46:54Z</time>
      </trkpt>
      <trkpt lat="50.60348" lon="5.63563">
        <ele>78</ele>
        <time>2025-03-22T16:46:57Z</time>
      </trkpt>
      <trkpt lat="50.60351" lon="5.63584">
        <ele>79</ele>
        <time>2025-03-22T16:47:00Z</time>
      </trkpt>
      <trkpt lat="50.60402" lon="5.63632">
        <ele>83</ele>
        <time>2025-03-22T16:47:14Z</time>
      </trkpt>
      <trkpt lat="50.60446" lon="5.63616">
        <ele>83</ele>
        <time>2025-03-22T16:47:24Z</time>
      </trkpt>
      <trkpt lat="50.60487" lon="5.63582">
        <ele>83</ele>
        <time>2025-03-22T16:47:35Z</time>
      </trkpt>
      <trkpt lat="50.60534" lon="5.63635">
        <ele>87</ele>
        <time>2025-03-22T16:47:49Z</time>
      </trkpt>
      <trkpt lat="50.60618" lon="5.63705">
        <ele>93</ele>
        <time>2025-03-22T16:48:11Z</time>
      </trkpt>
      <trkpt lat="50.60625" lon="5.63692">
        <ele>93</ele>
        <time>2025-03-22T16:48:14Z</time>
      </trkpt>
      <trkpt lat="50.6064" lon="5.63685">
        <ele>93</ele>
        <time>2025-03-22T16:48:17Z</time>
      </trkpt>
      <trkpt lat="50.60697" lon="5.63679">
        <ele>95</ele>
        <time>2025-03-22T16:48:31Z</time>
      </trkpt>
      <trkpt lat="50.60769" lon="5.63651">
        <ele>96</ele>
        <time>2025-03-22T16:48:48Z</time>
      </trkpt>
      <trkpt lat="50.60814" lon="5.63627">
        <ele>96</ele>
        <time>2025-03-22T16:48:59Z</time>
      </trkpt>
      <trkpt lat="50.60846" lon="5.63601">
        <ele>95</ele>
        <time>2025-03-22T16:49:07Z</time>
      </trkpt>
      <trkpt lat="50.60881" lon="5.6356">
        <ele>94</ele>
        <time>2025-03-22T16:49:18Z</time>
      </trkpt>
      <trkpt lat="50.60907" lon="5.63525">
        <ele>93</ele>
        <time>2025-03-22T16:49:26Z</time>
      </trkpt>
      <trkpt lat="50.60932" lon="5.63479">
        <ele>92</ele>
        <time>2025-03-22T16:49:34Z</time>
      </trkpt>
      <trkpt lat="50.60955" lon="5.63424">
        <ele>93</ele>
        <time>2025-03-22T16:49:44Z</time>
      </trkpt>
      <trkpt lat="50.60969" lon="5.63384">
        <ele>95</ele>
        <time>2025-03-22T16:49:51Z</time>
      </trkpt>
      <trkpt lat="50.60994" lon="5.63284">
        <ele>99</ele>
        <time>2025-03-22T16:50:07Z</time>
      </trkpt>
      <trkpt lat="50.61019" lon="5.63156">
        <ele>100</ele>
        <time>2025-03-22T16:50:27Z</time>
      </trkpt>
      <trkpt lat="50.61079" lon="5.62877">
        <ele>98</ele>
        <time>2025-03-22T16:51:10Z</time>
      </trkpt>
      <trkpt lat="50.61096" lon="5.62825">
        <ele>98</ele>
        <time>2025-03-22T16:51:19Z</time>
      </trkpt>
      <trkpt lat="50.61129" lon="5.62747">
        <ele>101</ele>
        <time>2025-03-22T16:51:33Z</time>
      </trkpt>
      <trkpt lat="50.61172" lon="5.62671">
        <ele>104</ele>
        <time>2025-03-22T16:51:48Z</time>
      </trkpt>
      <trkpt lat="50.61182" lon="5.62664">
        <ele>105</ele>
        <time>2025-03-22T16:51:51Z</time>
      </trkpt>
      <trkpt lat="50.61233" lon="5.62608">
        <ele>110</ele>
        <time>2025-03-22T16:52:05Z</time>
      </trkpt>
      <trkpt lat="50.61269" lon="5.62581">
        <ele>112</ele>
        <time>2025-03-22T16:52:14Z</time>
      </trkpt>
      <trkpt lat="50.61321" lon="5.62553">
        <ele>113</ele>
        <time>2025-03-22T16:52:27Z</time>
      </trkpt>
      <trkpt lat="50.61469" lon="5.62488">
        <ele>109</ele>
        <time>2025-03-22T16:53:03Z</time>
      </trkpt>
      <trkpt lat="50.61526" lon="5.62453">
        <ele>113</ele>
        <time>2025-03-22T16:53:17Z</time>
      </trkpt>
      <trkpt lat="50.61566" lon="5.62421">
        <ele>120</ele>
        <time>2025-03-22T16:53:28Z</time>
      </trkpt>
      <trkpt lat="50.61596" lon="5.62391">
        <ele>123</ele>
        <time>2025-03-22T16:53:36Z</time>
      </trkpt>
      <trkpt lat="50.6164" lon="5.62336">
        <ele>122</ele>
        <time>2025-03-22T16:53:49Z</time>
      </trkpt>
      <trkpt lat="50.61748" lon="5.62154">
        <ele>125</ele>
        <time>2025-03-22T16:54:26Z</time>
      </trkpt>
      <trkpt lat="50.61791" lon="5.62093">
        <ele>127</ele>
        <time>2025-03-22T16:54:40Z</time>
      </trkpt>
      <trkpt lat="50.61841" lon="5.62045">
        <ele>128</ele>
        <time>2025-03-22T16:54:53Z</time>
      </trkpt>
      <trkpt lat="50.61864" lon="5.62028">
        <ele>129</ele>
        <time>2025-03-22T16:54:59Z</time>
      </trkpt>
      <trkpt lat="50.61895" lon="5.62009">
        <ele>130</ele>
        <time>2025-03-22T16:55:07Z</time>
      </trkpt>
      <trkpt lat="50.61932" lon="5.61996">
        <ele>130</ele>
        <time>2025-03-22T16:55:16Z</time>
      </trkpt>
      <trkpt lat="50.61981" lon="5.6199">
        <ele>131</ele>
        <time>2025-03-22T16:55:28Z</time>
      </trkpt>
      <trkpt lat="50.6203" lon="5.6199">
        <ele>131</ele>
        <time>2025-03-22T16:55:39Z</time>
      </trkpt>
      <trkpt lat="50.62041" lon="5.61985">
        <ele>131</ele>
        <time>2025-03-22T16:55:42Z</time>
      </trkpt>
      <trkpt lat="50.62087" lon="5.62001">
        <ele>131</ele>
        <time>2025-03-22T16:55:53Z</time>
      </trkpt>
      <trkpt lat="50.62124" lon="5.62018">
        <ele>132</ele>
        <time>2025-03-22T16:56:02Z</time>
      </trkpt>
      <trkpt lat="50.62151" lon="5.62036">
        <ele>132</ele>
        <time>2025-03-22T16:56:08Z</time>
      </trkpt>
      <trkpt lat="50.62193" lon="5.62071">
        <ele>134</ele>
        <time>2025-03-22T16:56:20Z</time>
      </trkpt>
      <trkpt lat="50.62215" lon="5.62097">
        <ele>134</ele>
        <time>2025-03-22T16:56:26Z</time>
      </trkpt>
      <trkpt lat="50.62268" lon="5.62171">
        <ele>137</ele>
        <time>2025-03-22T16:56:43Z</time>
      </trkpt>
      <trkpt lat="50.62273" lon="5.6217">
        <ele>137</ele>
        <time>2025-03-22T16:56:44Z</time>
      </trkpt>
      <trkpt lat="50.62281" lon="5.62183">
        <ele>137</ele>
        <time>2025-03-22T16:56:46Z</time>
      </trkpt>
      <trkpt lat="50.62279" lon="5.62188">
        <ele>138</ele>
        <time>2025-03-22T16:56:47Z</time>
      </trkpt>
      <trkpt lat="50.62297" lon="5.62215">
        <ele>138</ele>
        <time>2025-03-22T16:56:53Z</time>
      </trkpt>
      <trkpt lat="50.62407" lon="5.6237">
        <ele>143</ele>
        <time>2025-03-22T16:57:28Z</time>
      </trkpt>
      <trkpt lat="50.62444" lon="5.62406">
        <ele>143</ele>
        <time>2025-03-22T16:57:38Z</time>
      </trkpt>
      <trkpt lat="50.62479" lon="5.62433">
        <ele>143</ele>
        <time>2025-03-22T16:57:47Z</time>
      </trkpt>
      <trkpt lat="50.62511" lon="5.62452">
        <ele>142</ele>
        <time>2025-03-22T16:57:55Z</time>
      </trkpt>
      <trkpt lat="50.62543" lon="5.62466">
        <ele>142</ele>
        <time>2025-03-22T16:58:03Z</time>
      </trkpt>
      <trkpt lat="50.62571" lon="5.62474">
        <ele>142</ele>
        <time>2025-03-22T16:58:09Z</time>
      </trkpt>
      <trkpt lat="50.62605" lon="5.62479">
        <ele>142</ele>
        <time>2025-03-22T16:58:17Z</time>
      </trkpt>
      <trkpt lat="50.62668" lon="5.6248">
        <ele>145</ele>
        <time>2025-03-22T16:58:32Z</time>
      </trkpt>
      <trkpt lat="50.62836" lon="5.62436">
        <ele>150</ele>
        <time>2025-03-22T16:59:12Z</time>
      </trkpt>
      <trkpt lat="50.6284" lon="5.62409">
        <ele>149</ele>
        <time>2025-03-22T16:59:16Z</time>
      </trkpt>
      <trkpt lat="50.62855" lon="5.62413">
        <ele>150</ele>
        <time>2025-03-22T16:59:19Z</time>
      </trkpt>
      <trkpt lat="50.62864" lon="5.62429">
        <ele>151</ele>
        <time>2025-03-22T16:59:22Z</time>
      </trkpt>
      <trkpt lat="50.62871" lon="5.62429">
        <ele>151</ele>
        <time>2025-03-22T16:59:24Z</time>
      </trkpt>
      <trkpt lat="50.63105" lon="5.62361">
        <ele>153</ele>
        <time>2025-03-22T17:00:20Z</time>
      </trkpt>
      <trkpt lat="50.6312" lon="5.62345">
        <ele>154</ele>
        <time>2025-03-22T17:00:24Z</time>
      </trkpt>
      <trkpt lat="50.63147" lon="5.62335">
        <ele>155</ele>
        <time>2025-03-22T17:00:30Z</time>
      </trkpt>
      <trkpt lat="50.63201" lon="5.6233">
        <ele>155</ele>
        <time>2025-03-22T17:00:43Z</time>
      </trkpt>
      <trkpt lat="50.63258" lon="5.62329">
        <ele>154</ele>
        <time>2025-03-22T17:00:56Z</time>
      </trkpt>
      <trkpt lat="50.63302" lon="5.6235">
        <ele>155</ele>
        <time>2025-03-22T17:01:07Z</time>
      </trkpt>
      <trkpt lat="50.63385" lon="5.6241">
        <ele>157</ele>
        <time>2025-03-22T17:01:28Z</time>
      </trkpt>
      <trkpt lat="50.63421" lon="5.62456">
        <ele>158</ele>
        <time>2025-03-22T17:01:39Z</time>
      </trkpt>
      <trkpt lat="50.63463" lon="5.62533">
        <ele>161</ele>
        <time>2025-03-22T17:01:54Z</time>
      </trkpt>
      <trkpt lat="50.63488" lon="5.62606">
        <ele>163</ele>
        <time>2025-03-22T17:02:07Z</time>
      </trkpt>
      <trkpt lat="50.63505" lon="5.62676">
        <ele>164</ele>
        <time>2025-03-22T17:02:18Z</time>
      </trkpt>
      <trkpt lat="50.63513" lon="5.62797">
        <ele>168</ele>
        <time>2025-03-22T17:02:36Z</time>
      </trkpt>
      <trkpt lat="50.63509" lon="5.62862">
        <ele>171</ele>
        <time>2025-03-22T17:02:45Z</time>
      </trkpt>
      <trkpt lat="50.63492" lon="5.62962">
        <ele>174</ele>
        <time>2025-03-22T17:03:01Z</time>
      </trkpt>
      <trkpt lat="50.63481" lon="5.63002">
        <ele>174</ele>
        <time>2025-03-22T17:03:07Z</time>
      </trkpt>
      <trkpt lat="50.63483" lon="5.63008">
        <ele>174</ele>
        <time>2025-03-22T17:03:08Z</time>
      </trkpt>
      <trkpt lat="50.63474" lon="5.63019">
        <ele>174</ele>
        <time>2025-03-22T17:03:11Z</time>
      </trkpt>
      <trkpt lat="50.63462" lon="5.63054">
        <ele>175</ele>
        <time>2025-03-22T17:03:17Z</time>
      </trkpt>
      <trkpt lat="50.63419" lon="5.63135">
        <ele>177</ele>
        <time>2025-03-22T17:03:32Z</time>
      </trkpt>
      <trkpt lat="50.63384" lon="5.6318">
        <ele>178</ele>
        <time>2025-03-22T17:03:43Z</time>
      </trkpt>
      <trkpt lat="50.63318" lon="5.63234">
        <ele>180</ele>
        <time>2025-03-22T17:04:00Z</time>
      </trkpt>
      <trkpt lat="50.63305" lon="5.63235">
        <ele>180</ele>
        <time>2025-03-22T17:04:03Z</time>
      </trkpt>
      <trkpt lat="50.63171" lon="5.63284">
        <ele>183</ele>
        <time>2025-03-22T17:04:35Z</time>
      </trkpt>
      <trkpt lat="50.62843" lon="5.63393">
        <ele>187</ele>
        <time>2025-03-22T17:05:54Z</time>
      </trkpt>
      <trkpt lat="50.62805" lon="5.63414">
        <ele>187</ele>
        <time>2025-03-22T17:06:03Z</time>
      </trkpt>
      <trkpt lat="50.62754" lon="5.63452">
        <ele>187</ele>
        <time>2025-03-22T17:06:16Z</time>
      </trkpt>
      <trkpt lat="50.62691" lon="5.6352">
        <ele>187</ele>
        <time>2025-03-22T17:06:34Z</time>
      </trkpt>
      <trkpt lat="50.62627" lon="5.63611">
        <ele>191</ele>
        <time>2025-03-22T17:06:54Z</time>
      </trkpt>
      <trkpt lat="50.62612" lon="5.63639">
        <ele>192</ele>
        <time>2025-03-22T17:07:00Z</time>
      </trkpt>
      <trkpt lat="50.62576" lon="5.63722">
        <ele>194</ele>
        <time>2025-03-22T17:07:15Z</time>
      </trkpt>
      <trkpt lat="50.62554" lon="5.63799">
        <ele>195</ele>
        <time>2025-03-22T17:07:27Z</time>
      </trkpt>
      <trkpt lat="50.62487" lon="5.64115">
        <ele>203</ele>
        <time>2025-03-22T17:08:16Z</time>
      </trkpt>
      <trkpt lat="50.62477" lon="5.64199">
        <ele>204</ele>
        <time>2025-03-22T17:08:29Z</time>
      </trkpt>
      <trkpt lat="50.62464" lon="5.64504">
        <ele>206</ele>
        <time>2025-03-22T17:09:14Z</time>
      </trkpt>
      <trkpt lat="50.62456" lon="5.64573">
        <ele>206</ele>
        <time>2025-03-22T17:09:25Z</time>
      </trkpt>
      <trkpt lat="50.62445" lon="5.64633">
        <ele>207</ele>
        <time>2025-03-22T17:09:34Z</time>
      </trkpt>
      <trkpt lat="50.62431" lon="5.64688">
        <ele>208</ele>
        <time>2025-03-22T17:09:43Z</time>
      </trkpt>
      <trkpt lat="50.62402" lon="5.64777">
        <ele>212</ele>
        <time>2025-03-22T17:09:58Z</time>
      </trkpt>
      <trkpt lat="50.62382" lon="5.64826">
        <ele>216</ele>
        <time>2025-03-22T17:10:06Z</time>
      </trkpt>
      <trkpt lat="50.62357" lon="5.64873">
        <ele>220</ele>
        <time>2025-03-22T17:10:15Z</time>
      </trkpt>
      <trkpt lat="50.62285" lon="5.64977">
        <ele>224</ele>
        <time>2025-03-22T17:10:38Z</time>
      </trkpt>
      <trkpt lat="50.62241" lon="5.65022">
        <ele>226</ele>
        <time>2025-03-22T17:10:50Z</time>
      </trkpt>
      <trkpt lat="50.62078" lon="5.6515">
        <ele>228</ele>
        <time>2025-03-22T17:11:33Z</time>
      </trkpt>
      <trkpt lat="50.62037" lon="5.65187">
        <ele>229</ele>
        <time>2025-03-22T17:11:44Z</time>
      </trkpt>
      <trkpt lat="50.61975" lon="5.65265">
        <ele>234</ele>
        <time>2025-03-22T17:12:02Z</time>
      </trkpt>
      <trkpt lat="50.61938" lon="5.65332">
        <ele>236</ele>
        <time>2025-03-22T17:12:16Z</time>
      </trkpt>
      <trkpt lat="50.6191" lon="5.65398">
        <ele>237</ele>
        <time>2025-03-22T17:12:27Z</time>
      </trkpt>
      <trkpt lat="50.61842" lon="5.65584">
        <ele>235</ele>
        <time>2025-03-22T17:12:59Z</time>
      </trkpt>
      <trkpt lat="50.61841" lon="5.65602">
        <ele>235</ele>
        <time>2025-03-22T17:13:02Z</time>
      </trkpt>
      <trkpt lat="50.61816" lon="5.65671">
        <ele>234</ele>
        <time>2025-03-22T17:13:14Z</time>
      </trkpt>
      <trkpt lat="50.61803" lon="5.65685">
        <ele>233</ele>
        <time>2025-03-22T17:13:17Z</time>
      </trkpt>
      <trkpt lat="50.61697" lon="5.65987">
        <ele>234</ele>
        <time>2025-03-22T17:14:08Z</time>
      </trkpt>
      <trkpt lat="50.61644" lon="5.66126">
        <ele>240</ele>
        <time>2025-03-22T17:14:32Z</time>
      </trkpt>
      <trkpt lat="50.61647" lon="5.66147">
        <ele>240</ele>
        <time>2025-03-22T17:14:36Z</time>
      </trkpt>
      <trkpt lat="50.61637" lon="5.6616">
        <ele>240</ele>
        <time>2025-03-22T17:14:39Z</time>
      </trkpt>
      <trkpt lat="50.61602" lon="5.66259">
        <ele>242</ele>
        <time>2025-03-22T17:14:55Z</time>
      </trkpt>
      <trkpt lat="50.61552" lon="5.66379">
        <ele>247</ele>
        <time>2025-03-22T17:15:17Z</time>
      </trkpt>
      <trkpt lat="50.61493" lon="5.66496">
        <ele>247</ele>
        <time>2025-03-22T17:15:39Z</time>
      </trkpt>
      <trkpt lat="50.61199" lon="5.67022">
        <ele>256</ele>
        <time>2025-03-22T17:17:23Z</time>
      </trkpt>
      <trkpt lat="50.61197" lon="5.67042">
        <ele>256</ele>
        <time>2025-03-22T17:17:26Z</time>
      </trkpt>
      <trkpt lat="50.61189" lon="5.67044">
        <ele>256</ele>
        <time>2025-03-22T17:17:28Z</time>
      </trkpt>
      <trkpt lat="50.61158" lon="5.67097">
        <ele>256</ele>
        <time>2025-03-22T17:17:38Z</time>
      </trkpt>
      <trkpt lat="50.61133" lon="5.67161">
        <ele>257</ele>
        <time>2025-03-22T17:17:49Z</time>
      </trkpt>
      <trkpt lat="50.61115" lon="5.67216">
        <ele>256</ele>
        <time>2025-03-22T17:17:59Z</time>
      </trkpt>
      <trkpt lat="50.61097" lon="5.67308">
        <ele>257</ele>
        <time>2025-03-22T17:18:13Z</time>
      </trkpt>
      <trkpt lat="50.61088" lon="5.67404">
        <ele>258</ele>
        <time>2025-03-22T17:18:27Z</time>
      </trkpt>
      <trkpt lat="50.61088" lon="5.67469">
        <ele>259</ele>
        <time>2025-03-22T17:18:37Z</time>
      </trkpt>
      <trkpt lat="50.61094" lon="5.67549">
        <ele>260</ele>
        <time>2025-03-22T17:18:49Z</time>
      </trkpt>
      <trkpt lat="50.61107" lon="5.67621">
        <ele>260</ele>
        <time>2025-03-22T17:19:00Z</time>
      </trkpt>
      <trkpt lat="50.61127" lon="5.67692">
        <ele>261</ele>
        <time>2025-03-22T17:19:11Z</time>
      </trkpt>
      <trkpt lat="50.61162" lon="5.67779">
        <ele>263</ele>
        <time>2025-03-22T17:19:27Z</time>
      </trkpt>
      <trkpt lat="50.61218" lon="5.67879">
        <ele>263</ele>
        <time>2025-03-22T17:19:47Z</time>
      </trkpt>
      <trkpt lat="50.61428" lon="5.68211">
        <ele>261</ele>
        <time>2025-03-22T17:20:56Z</time>
      </trkpt>
      <trkpt lat="50.61452" lon="5.68236">
        <ele>261</ele>
        <time>2025-03-22T17:21:03Z</time>
      </trkpt>
      <trkpt lat="50.61468" lon="5.68236">
        <ele>261</ele>
        <time>2025-03-22T17:21:06Z</time>
      </trkpt>
      <trkpt lat="50.61469" lon="5.68244">
        <ele>261</ele>
        <time>2025-03-22T17:21:08Z</time>
      </trkpt>
      <trkpt lat="50.61485" lon="5.68269">
        <ele>261</ele>
        <time>2025-03-22T17:21:13Z</time>
      </trkpt>
      <trkpt lat="50.61481" lon="5.68286">
        <ele>261</ele>
        <time>2025-03-22T17:21:16Z</time>
      </trkpt>
      <trkpt lat="50.61512" lon="5.68332">
        <ele>261</ele>
        <time>2025-03-22T17:21:26Z</time>
      </trkpt>
      <trkpt lat="50.61515" lon="5.68348">
        <ele>261</ele>
        <time>2025-03-22T17:21:28Z</time>
      </trkpt>
      <trkpt lat="50.61662" lon="5.68581">
        <ele>261</ele>
        <time>2025-03-22T17:22:17Z</time>
      </trkpt>
      <trkpt lat="50.61672" lon="5.68589">
        <ele>261</ele>
        <time>2025-03-22T17:22:19Z</time>
      </trkpt>
      <trkpt lat="50.61675" lon="5.68605">
        <ele>261</ele>
        <time>2025-03-22T17:22:22Z</time>
      </trkpt>
      <trkpt lat="50.61689" lon="5.68618">
        <ele>261</ele>
        <time>2025-03-22T17:22:26Z</time>
      </trkpt>
      <trkpt lat="50.61757" lon="5.68735">
        <ele>262</ele>
        <time>2025-03-22T17:22:49Z</time>
      </trkpt>
      <trkpt lat="50.61818" lon="5.68853">
        <ele>262</ele>
        <time>2025-03-22T17:23:12Z</time>
      </trkpt>
      <trkpt lat="50.62058" lon="5.69424">
        <ele>260</ele>
        <time>2025-03-22T17:24:53Z</time>
      </trkpt>
      <trkpt lat="50.62058" lon="5.69434">
        <ele>260</ele>
        <time>2025-03-22T17:24:55Z</time>
      </trkpt>
      <trkpt lat="50.62068" lon="5.69447">
        <ele>260</ele>
        <time>2025-03-22T17:24:58Z</time>
      </trkpt>
      <trkpt lat="50.6227" lon="5.69925">
        <ele>263</ele>
        <time>2025-03-22T17:26:23Z</time>
      </trkpt>
      <trkpt lat="50.6229" lon="5.69985">
        <ele>262</ele>
        <time>2025-03-22T17:26:33Z</time>
      </trkpt>
      <trkpt lat="50.62301" lon="5.69994">
        <ele>262</ele>
        <time>2025-03-22T17:26:36Z</time>
      </trkpt>
      <trkpt lat="50.62359" lon="5.70155">
        <ele>263</ele>
        <time>2025-03-22T17:27:03Z</time>
      </trkpt>
      <trkpt lat="50.627" lon="5.7127">
        <ele>272</ele>
        <time>2025-03-22T17:30:06Z</time>
      </trkpt>
      <trkpt lat="50.62904" lon="5.71922">
        <ele>266</ele>
        <time>2025-03-22T17:31:54Z</time>
      </trkpt>
      <trkpt lat="50.63133" lon="5.72911">
        <ele>274</ele>
        <time>2025-03-22T17:34:30Z</time>
      </trkpt>
      <trkpt lat="50.63145" lon="5.72956">
        <ele>274</ele>
        <time>2025-03-22T17:34:37Z</time>
      </trkpt>
      <trkpt lat="50.63166" lon="5.73005">
        <ele>273</ele>
        <time>2025-03-22T17:34:46Z</time>
      </trkpt>
      <trkpt lat="50.63195" lon="5.73122">
        <ele>274</ele>
        <time>2025-03-22T17:35:05Z</time>
      </trkpt>
      <trkpt lat="50.63195" lon="5.73196">
        <ele>275</ele>
        <time>2025-03-22T17:35:16Z</time>
      </trkpt>
      <trkpt lat="50.63205" lon="5.7325">
        <ele>275</ele>
        <time>2025-03-22T17:35:24Z</time>
      </trkpt>
      <trkpt lat="50.6326" lon="5.73484">
        <ele>276</ele>
        <time>2025-03-22T17:36:01Z</time>
      </trkpt>
      <trkpt lat="50.63277" lon="5.73541">
        <ele>277</ele>
        <time>2025-03-22T17:36:10Z</time>
      </trkpt>
      <trkpt lat="50.63333" lon="5.73783">
        <ele>278</ele>
        <time>2025-03-22T17:36:48Z</time>
      </trkpt>
      <trkpt lat="50.63499" lon="5.74532">
        <ele>278</ele>
        <time>2025-03-22T17:38:46Z</time>
      </trkpt>
      <trkpt lat="50.63509" lon="5.74543">
        <ele>278</ele>
        <time>2025-03-22T17:38:49Z</time>
      </trkpt>
      <trkpt lat="50.63513" lon="5.74558">
        <ele>278</ele>
        <time>2025-03-22T17:38:51Z</time>
      </trkpt>
      <trkpt lat="50.63511" lon="5.74575">
        <ele>278</ele>
        <time>2025-03-22T17:38:54Z</time>
      </trkpt>
      <trkpt lat="50.63516" lon="5.74605">
        <ele>278</ele>
        <time>2025-03-22T17:38:58Z</time>
      </trkpt>
      <trkpt lat="50.63636" lon="5.75131">
        <ele>277</ele>
        <time>2025-03-22T17:40:21Z</time>
      </trkpt>
      <trkpt lat="50.63665" lon="5.75272">
        <ele>278</ele>
        <time>2025-03-22T17:40:43Z</time>
      </trkpt>
      <trkpt lat="50.63681" lon="5.75365">
        <ele>278</ele>
        <time>2025-03-22T17:40:57Z</time>
      </trkpt>
      <trkpt lat="50.63705" lon="5.75545">
        <ele>279</ele>
        <time>2025-03-22T17:41:25Z</time>
      </trkpt>
      <trkpt lat="50.64009" lon="5.78272">
        <ele>299</ele>
        <time>2025-03-22T17:48:15Z</time>
      </trkpt>
      <trkpt lat="50.64041" lon="5.78413">
        <ele>299</ele>
        <time>2025-03-22T17:48:37Z</time>
      </trkpt>
      <trkpt lat="50.64231" lon="5.79058">
        <ele>305</ele>
        <time>2025-03-22T17:50:22Z</time>
      </trkpt>
      <trkpt lat="50.64239" lon="5.79077">
        <ele>305</ele>
        <time>2025-03-22T17:50:26Z</time>
      </trkpt>
      <trkpt lat="50.64247" lon="5.79114">
        <ele>305</ele>
        <time>2025-03-22T17:50:31Z</time>
      </trkpt>
      <trkpt lat="50.64287" lon="5.7922">
        <ele>307</ele>
        <time>2025-03-22T17:50:50Z</time>
      </trkpt>
      <trkpt lat="50.64305" lon="5.79252">
        <ele>308</ele>
        <time>2025-03-22T17:50:56Z</time>
      </trkpt>
      <trkpt lat="50.64335" lon="5.79294">
        <ele>309</ele>
        <time>2025-03-22T17:51:05Z</time>
      </trkpt>
      <trkpt lat="50.64384" lon="5.79338">
        <ele>310</ele>
        <time>2025-03-22T17:51:19Z</time>
      </trkpt>
      <trkpt lat="50.64496" lon="5.79422">
        <ele>309</ele>
        <time>2025-03-22T17:51:48Z</time>
      </trkpt>
      <trkpt lat="50.64567" lon="5.79484">
        <ele>309</ele>
        <time>2025-03-22T17:52:06Z</time>
      </trkpt>
      <trkpt lat="50.64585" lon="5.79504">
        <ele>310</ele>
        <time>2025-03-22T17:52:12Z</time>
      </trkpt>
      <trkpt lat="50.64645" lon="5.79592">
        <ele>309</ele>
        <time>2025-03-22T17:52:31Z</time>
      </trkpt>
      <trkpt lat="50.64668" lon="5.79632">
        <ele>309</ele>
        <time>2025-03-22T17:52:39Z</time>
      </trkpt>
      <trkpt lat="50.64699" lon="5.79706">
        <ele>309</ele>
        <time>2025-03-22T17:52:52Z</time>
      </trkpt>
      <trkpt lat="50.64708" lon="5.79714">
        <ele>308</ele>
        <time>2025-03-22T17:52:54Z</time>
      </trkpt>
      <trkpt lat="50.64707" lon="5.79728">
        <ele>309</ele>
        <time>2025-03-22T17:52:56Z</time>
      </trkpt>
      <trkpt lat="50.64761" lon="5.79909">
        <ele>311</ele>
        <time>2025-03-22T17:53:26Z</time>
      </trkpt>
      <trkpt lat="50.65068" lon="5.80975">
        <ele>318</ele>
        <time>2025-03-22T17:56:19Z</time>
      </trkpt>
      <trkpt lat="50.65073" lon="5.80985">
        <ele>318</ele>
        <time>2025-03-22T17:56:21Z</time>
      </trkpt>
      <trkpt lat="50.6508" lon="5.80987">
        <ele>318</ele>
        <time>2025-03-22T17:56:23Z</time>
      </trkpt>
      <trkpt lat="50.6508" lon="5.81014">
        <ele>318</ele>
        <time>2025-03-22T17:56:27Z</time>
      </trkpt>
      <trkpt lat="50.65188" lon="5.81394">
        <ele>318</ele>
        <time>2025-03-22T17:57:29Z</time>
      </trkpt>
      <trkpt lat="50.6521" lon="5.81516">
        <ele>317</ele>
        <time>2025-03-22T17:57:47Z</time>
      </trkpt>
      <trkpt lat="50.65214" lon="5.81625">
        <ele>317</ele>
        <time>2025-03-22T17:58:04Z</time>
      </trkpt>
      <trkpt lat="50.65213" lon="5.81689">
        <ele>317</ele>
        <time>2025-03-22T17:58:13Z</time>
      </trkpt>
      <trkpt lat="50.65203" lon="5.81799">
        <ele>315</ele>
        <time>2025-03-22T17:58:29Z</time>
      </trkpt>
      <trkpt lat="50.65192" lon="5.81855">
        <ele>315</ele>
        <time>2025-03-22T17:58:38Z</time>
      </trkpt>
      <trkpt lat="50.65171" lon="5.81932">
        <ele>316</ele>
        <time>2025-03-22T17:58:51Z</time>
      </trkpt>
      <trkpt lat="50.6515" lon="5.81998">
        <ele>316</ele>
        <time>2025-03-22T17:59:01Z</time>
      </trkpt>
      <trkpt lat="50.64973" lon="5.82459">
        <ele>317</ele>
        <time>2025-03-22T18:00:21Z</time>
      </trkpt>
      <trkpt lat="50.64928" lon="5.82597">
        <ele>319</ele>
        <time>2025-03-22T18:00:44Z</time>
      </trkpt>
      <trkpt lat="50.64912" lon="5.82677">
        <ele>318</ele>
        <time>2025-03-22T18:00:57Z</time>
      </trkpt>
      <trkpt lat="50.64905" lon="5.82789">
        <ele>317</ele>
        <time>2025-03-22T18:01:13Z</time>
      </trkpt>
      <trkpt lat="50.64909" lon="5.82874">
        <ele>317</ele>
        <time>2025-03-22T18:01:26Z</time>
      </trkpt>
      <trkpt lat="50.64932" lon="5.8308">
        <ele>318</ele>
        <time>2025-03-22T18:01:57Z</time>
      </trkpt>
      <trkpt lat="50.64922" lon="5.83122">
        <ele>319</ele>
        <time>2025-03-22T18:02:04Z</time>
      </trkpt>
      <trkpt lat="50.64924" lon="5.83155">
        <ele>320</ele>
        <time>2025-03-22T18:02:08Z</time>
      </trkpt>
      <trkpt lat="50.64935" lon="5.83167">
        <ele>320</ele>
        <time>2025-03-22T18:02:12Z</time>
      </trkpt>
      <trkpt lat="50.64937" lon="5.83175">
        <ele>320</ele>
        <time>2025-03-22T18:02:13Z</time>
      </trkpt>
      <trkpt lat="50.64936" lon="5.83283">
        <ele>322</ele>
        <time>2025-03-22T18:02:29Z</time>
      </trkpt>
      <trkpt lat="50.64921" lon="5.83382">
        <ele>323</ele>
        <time>2025-03-22T18:02:44Z</time>
      </trkpt>
      <trkpt lat="50.64904" lon="5.83462">
        <ele>323</ele>
        <time>2025-03-22T18:02:56Z</time>
      </trkpt>
      <trkpt lat="50.64878" lon="5.83541">
        <ele>321</ele>
        <time>2025-03-22T18:03:10Z</time>
      </trkpt>
      <trkpt lat="50.64791" lon="5.83779">
        <ele>311</ele>
        <time>2025-03-22T18:03:50Z</time>
      </trkpt>
      <trkpt lat="50.64776" lon="5.83835">
        <ele>311</ele>
        <time>2025-03-22T18:03:59Z</time>
      </trkpt>
      <trkpt lat="50.64757" lon="5.83927">
        <ele>313</ele>
        <time>2025-03-22T18:04:14Z</time>
      </trkpt>
      <trkpt lat="50.64747" lon="5.84013">
        <ele>312</ele>
        <time>2025-03-22T18:04:27Z</time>
      </trkpt>
      <trkpt lat="50.64747" lon="5.84102">
        <ele>308</ele>
        <time>2025-03-22T18:04:40Z</time>
      </trkpt>
      <trkpt lat="50.64759" lon="5.84473">
        <ele>303</ele>
        <time>2025-03-22T18:05:35Z</time>
      </trkpt>
      <trkpt lat="50.64758" lon="5.84546">
        <ele>299</ele>
        <time>2025-03-22T18:05:46Z</time>
      </trkpt>
      <trkpt lat="50.64743" lon="5.84641">
        <ele>296</ele>
        <time>2025-03-22T18:06:00Z</time>
      </trkpt>
      <trkpt lat="50.64689" lon="5.84845">
        <ele>294</ele>
        <time>2025-03-22T18:06:33Z</time>
      </trkpt>
      <trkpt lat="50.64655" lon="5.85004">
        <ele>295</ele>
        <time>2025-03-22T18:06:58Z</time>
      </trkpt>
      <trkpt lat="50.64646" lon="5.85068">
        <ele>296</ele>
        <time>2025-03-22T18:07:07Z</time>
      </trkpt>
      <trkpt lat="50.64643" lon="5.85221">
        <ele>295</ele>
        <time>2025-03-22T18:07:30Z</time>
      </trkpt>
      <trkpt lat="50.64658" lon="5.85329">
        <ele>297</ele>
        <time>2025-03-22T18:07:46Z</time>
      </trkpt>
      <trkpt lat="50.64675" lon="5.85397">
        <ele>296</ele>
        <time>2025-03-22T18:07:57Z</time>
      </trkpt>
      <trkpt lat="50.647" lon="5.8547">
        <ele>294</ele>
        <time>2025-03-22T18:08:10Z</time>
      </trkpt>
      <trkpt lat="50.64725" lon="5.85518">
        <ele>290</ele>
        <time>2025-03-22T18:08:19Z</time>
      </trkpt>
      <trkpt lat="50.64759" lon="5.8557">
        <ele>286</ele>
        <time>2025-03-22T18:08:30Z</time>
      </trkpt>
      <trkpt lat="50.6481" lon="5.85637">
        <ele>284</ele>
        <time>2025-03-22T18:08:45Z</time>
      </trkpt>
      <trkpt lat="50.65086" lon="5.85989">
        <ele>282</ele>
        <time>2025-03-22T18:10:08Z</time>
      </trkpt>
      <trkpt lat="50.65121" lon="5.86053">
        <ele>281</ele>
        <time>2025-03-22T18:10:21Z</time>
      </trkpt>
      <trkpt lat="50.65158" lon="5.86146">
        <ele>281</ele>
        <time>2025-03-22T18:10:37Z</time>
      </trkpt>
      <trkpt lat="50.65192" lon="5.86262">
        <ele>280</ele>
        <time>2025-03-22T18:10:56Z</time>
      </trkpt>
      <trkpt lat="50.6524" lon="5.86567">
        <ele>277</ele>
        <time>2025-03-22T18:11:42Z</time>
      </trkpt>
      <trkpt lat="50.65255" lon="5.86641">
        <ele>279</ele>
        <time>2025-03-22T18:11:54Z</time>
      </trkpt>
      <trkpt lat="50.65376" lon="5.87372">
        <ele>271</ele>
        <time>2025-03-22T18:13:46Z</time>
      </trkpt>
      <trkpt lat="50.65389" lon="5.87418">
        <ele>270</ele>
        <time>2025-03-22T18:13:53Z</time>
      </trkpt>
      <trkpt lat="50.65427" lon="5.87507">
        <ele>270</ele>
        <time>2025-03-22T18:14:09Z</time>
      </trkpt>
      <trkpt lat="50.65461" lon="5.87556">
        <ele>273</ele>
        <time>2025-03-22T18:14:20Z</time>
      </trkpt>
      <trkpt lat="50.65522" lon="5.87612">
        <ele>275</ele>
        <time>2025-03-22T18:14:36Z</time>
      </trkpt>
      <trkpt lat="50.65562" lon="5.87633">
        <ele>273</ele>
        <time>2025-03-22T18:14:46Z</time>
      </trkpt>
      <trkpt lat="50.656" lon="5.87644">
        <ele>271</ele>
        <time>2025-03-22T18:14:55Z</time>
      </trkpt>
      <trkpt lat="50.65634" lon="5.87647">
        <ele>268</ele>
        <time>2025-03-22T18:15:03Z</time>
      </trkpt>
      <trkpt lat="50.65692" lon="5.87637">
        <ele>267</ele>
        <time>2025-03-22T18:15:17Z</time>
      </trkpt>
      <trkpt lat="50.6574" lon="5.87612">
        <ele>268</ele>
        <time>2025-03-22T18:15:29Z</time>
      </trkpt>
      <trkpt lat="50.66247" lon="5.8729">
        <ele>257</ele>
        <time>2025-03-22T18:17:36Z</time>
      </trkpt>
      <trkpt lat="50.66315" lon="5.87243">
        <ele>256</ele>
        <time>2025-03-22T18:17:54Z</time>
      </trkpt>
      <trkpt lat="50.66358" lon="5.87203">
        <ele>256</ele>
        <time>2025-03-22T18:18:05Z</time>
      </trkpt>
      <trkpt lat="50.66394" lon="5.87163">
        <ele>256</ele>
        <time>2025-03-22T18:18:16Z</time>
      </trkpt>
      <trkpt lat="50.66447" lon="5.87083">
        <ele>255</ele>
        <time>2025-03-22T18:18:33Z</time>
      </trkpt>
      <trkpt lat="50.66489" lon="5.86997">
        <ele>252</ele>
        <time>2025-03-22T18:18:49Z</time>
      </trkpt>
      <trkpt lat="50.66516" lon="5.8692">
        <ele>250</ele>
        <time>2025-03-22T18:19:02Z</time>
      </trkpt>
      <trkpt lat="50.66534" lon="5.8685">
        <ele>249</ele>
        <time>2025-03-22T18:19:13Z</time>
      </trkpt>
      <trkpt lat="50.66548" lon="5.8678">
        <ele>249</ele>
        <time>2025-03-22T18:19:24Z</time>
      </trkpt>
      <trkpt lat="50.66621" lon="5.86254">
        <ele>245</ele>
        <time>2025-03-22T18:20:43Z</time>
      </trkpt>
      <trkpt lat="50.66642" lon="5.86132">
        <ele>243</ele>
        <time>2025-03-22T18:21:02Z</time>
      </trkpt>
      <trkpt lat="50.66664" lon="5.86051">
        <ele>243</ele>
        <time>2025-03-22T18:21:15Z</time>
      </trkpt>
      <trkpt lat="50.66698" lon="5.85966">
        <ele>244</ele>
        <time>2025-03-22T18:21:30Z</time>
      </trkpt>
      <trkpt lat="50.66742" lon="5.85882">
        <ele>243</ele>
        <time>2025-03-22T18:21:46Z</time>
      </trkpt>
      <trkpt lat="50.66765" lon="5.85848">
        <ele>242</ele>
        <time>2025-03-22T18:21:54Z</time>
      </trkpt>
      <trkpt lat="50.66809" lon="5.85792">
        <ele>241</ele>
        <time>2025-03-22T18:22:07Z</time>
      </trkpt>
      <trkpt lat="50.66864" lon="5.8574">
        <ele>237</ele>
        <time>2025-03-22T18:22:22Z</time>
      </trkpt>
      <trkpt lat="50.66916" lon="5.85705">
        <ele>235</ele>
        <time>2025-03-22T18:22:35Z</time>
      </trkpt>
      <trkpt lat="50.66947" lon="5.8569">
        <ele>235</ele>
        <time>2025-03-22T18:22:43Z</time>
      </trkpt>
      <trkpt lat="50.66992" lon="5.85674">
        <ele>234</ele>
        <time>2025-03-22T18:22:53Z</time>
      </trkpt>
      <trkpt lat="50.6702" lon="5.85668">
        <ele>234</ele>
        <time>2025-03-22T18:23:00Z</time>
      </trkpt>
      <trkpt lat="50.67257" lon="5.85636">
        <ele>229</ele>
        <time>2025-03-22T18:23:55Z</time>
      </trkpt>
      <trkpt lat="50.67316" lon="5.85619">
        <ele>226</ele>
        <time>2025-03-22T18:24:09Z</time>
      </trkpt>
      <trkpt lat="50.67342" lon="5.85606">
        <ele>226</ele>
        <time>2025-03-22T18:24:16Z</time>
      </trkpt>
      <trkpt lat="50.67416" lon="5.85545">
        <ele>222</ele>
        <time>2025-03-22T18:24:35Z</time>
      </trkpt>
      <trkpt lat="50.67518" lon="5.8542">
        <ele>220</ele>
        <time>2025-03-22T18:25:06Z</time>
      </trkpt>
      <trkpt lat="50.67547" lon="5.85392">
        <ele>218</ele>
        <time>2025-03-22T18:25:13Z</time>
      </trkpt>
      <trkpt lat="50.67597" lon="5.85358">
        <ele>214</ele>
        <time>2025-03-22T18:25:26Z</time>
      </trkpt>
      <trkpt lat="50.6762" lon="5.85348">
        <ele>213</ele>
        <time>2025-03-22T18:25:32Z</time>
      </trkpt>
      <trkpt lat="50.6766" lon="5.85338">
        <ele>212</ele>
        <time>2025-03-22T18:25:41Z</time>
      </trkpt>
      <trkpt lat="50.67699" lon="5.85337">
        <ele>213</ele>
        <time>2025-03-22T18:25:50Z</time>
      </trkpt>
      <trkpt lat="50.67954" lon="5.85292">
        <ele>214</ele>
        <time>2025-03-22T18:26:50Z</time>
      </trkpt>
      <trkpt lat="50.68041" lon="5.85284">
        <ele>216</ele>
        <time>2025-03-22T18:27:11Z</time>
      </trkpt>
      <trkpt lat="50.68049" lon="5.85279">
        <ele>215</ele>
        <time>2025-03-22T18:27:13Z</time>
      </trkpt>
      <trkpt lat="50.68064" lon="5.85286">
        <ele>216</ele>
        <time>2025-03-22T18:27:16Z</time>
      </trkpt>
      <trkpt lat="50.68071" lon="5.8528">
        <ele>216</ele>
        <time>2025-03-22T18:27:18Z</time>
      </trkpt>
      <trkpt lat="50.68149" lon="5.85266">
        <ele>216</ele>
        <time>2025-03-22T18:27:36Z</time>
      </trkpt>
      <trkpt lat="50.68213" lon="5.8526">
        <ele>215</ele>
        <time>2025-03-22T18:27:51Z</time>
      </trkpt>
      <trkpt lat="50.68248" lon="5.85263">
        <ele>214</ele>
        <time>2025-03-22T18:28:00Z</time>
      </trkpt>
      <trkpt lat="50.68307" lon="5.85276">
        <ele>212</ele>
        <time>2025-03-22T18:28:14Z</time>
      </trkpt>
      <trkpt lat="50.68342" lon="5.85289">
        <ele>210</ele>
        <time>2025-03-22T18:28:22Z</time>
      </trkpt>
      <trkpt lat="50.68786" lon="5.85489">
        <ele>198</ele>
        <time>2025-03-22T18:30:10Z</time>
      </trkpt>
      <trkpt lat="50.68823" lon="5.85501">
        <ele>202</ele>
        <time>2025-03-22T18:30:19Z</time>
      </trkpt>
      <trkpt lat="50.68872" lon="5.85509">
        <ele>205</ele>
        <time>2025-03-22T18:30:30Z</time>
      </trkpt>
      <trkpt lat="50.6908" lon="5.85525">
        <ele>209</ele>
        <time>2025-03-22T18:31:19Z</time>
      </trkpt>
      <trkpt lat="50.69636" lon="5.85607">
        <ele>220</ele>
        <time>2025-03-22T18:33:29Z</time>
      </trkpt>
      <trkpt lat="50.69684" lon="5.85619">
        <ele>222</ele>
        <time>2025-03-22T18:33:40Z</time>
      </trkpt>
      <trkpt lat="50.69724" lon="5.85639">
        <ele>223</ele>
        <time>2025-03-22T18:33:50Z</time>
      </trkpt>
      <trkpt lat="50.6976" lon="5.85663">
        <ele>224</ele>
        <time>2025-03-22T18:33:59Z</time>
      </trkpt>
      <trkpt lat="50.69797" lon="5.85697">
        <ele>226</ele>
        <time>2025-03-22T18:34:09Z</time>
      </trkpt>
      <trkpt lat="50.69831" lon="5.85735">
        <ele>228</ele>
        <time>2025-03-22T18:34:19Z</time>
      </trkpt>
      <trkpt lat="50.69873" lon="5.85807">
        <ele>229</ele>
        <time>2025-03-22T18:34:34Z</time>
      </trkpt>
      <trkpt lat="50.69944" lon="5.85954">
        <ele>233</ele>
        <time>2025-03-22T18:35:01Z</time>
      </trkpt>
      <trkpt lat="50.69986" lon="5.86035">
        <ele>236</ele>
        <time>2025-03-22T18:35:16Z</time>
      </trkpt>
      <trkpt lat="50.70039" lon="5.86109">
        <ele>240</ele>
        <time>2025-03-22T18:35:33Z</time>
      </trkpt>
      <trkpt lat="50.70091" lon="5.86165">
        <ele>241</ele>
        <time>2025-03-22T18:35:48Z</time>
      </trkpt>
      <trkpt lat="50.70121" lon="5.8619">
        <ele>241</ele>
        <time>2025-03-22T18:35:56Z</time>
      </trkpt>
      <trkpt lat="50.70173" lon="5.86224">
        <ele>242</ele>
        <time>2025-03-22T18:36:09Z</time>
      </trkpt>
      <trkpt lat="50.70262" lon="5.86265">
        <ele>240</ele>
        <time>2025-03-22T18:36:30Z</time>
      </trkpt>
      <trkpt lat="50.70275" lon="5.86266">
        <ele>239</ele>
        <time>2025-03-22T18:36:33Z</time>
      </trkpt>
      <trkpt lat="50.70289" lon="5.86278">
        <ele>239</ele>
        <time>2025-03-22T18:36:37Z</time>
      </trkpt>
      <trkpt lat="50.70616" lon="5.864">
        <ele>241</ele>
        <time>2025-03-22T18:37:56Z</time>
      </trkpt>
      <trkpt lat="50.7068" lon="5.8643">
        <ele>244</ele>
        <time>2025-03-22T18:38:11Z</time>
      </trkpt>
      <trkpt lat="50.70717" lon="5.86458">
        <ele>245</ele>
        <time>2025-03-22T18:38:21Z</time>
      </trkpt>
      <trkpt lat="50.70746" lon="5.86496">
        <ele>247</ele>
        <time>2025-03-22T18:38:30Z</time>
      </trkpt>
      <trkpt lat="50.70782" lon="5.86549">
        <ele>245</ele>
        <time>2025-03-22T18:38:41Z</time>
      </trkpt>
      <trkpt lat="50.70811" lon="5.86608">
        <ele>242</ele>
        <time>2025-03-22T18:38:52Z</time>
      </trkpt>
      <trkpt lat="50.70841" lon="5.86703">
        <ele>240</ele>
        <time>2025-03-22T18:39:08Z</time>
      </trkpt>
      <trkpt lat="50.70848" lon="5.86789">
        <ele>240</ele>
        <time>2025-03-22T18:39:21Z</time>
      </trkpt>
      <trkpt lat="50.70849" lon="5.8684">
        <ele>240</ele>
        <time>2025-03-22T18:39:28Z</time>
      </trkpt>
      <trkpt lat="50.70842" lon="5.86927">
        <ele>242</ele>
        <time>2025-03-22T18:39:41Z</time>
      </trkpt>
      <trkpt lat="50.70794" lon="5.87274">
        <ele>250</ele>
        <time>2025-03-22T18:40:34Z</time>
      </trkpt>
      <trkpt lat="50.70786" lon="5.87392">
        <ele>254</ele>
        <time>2025-03-22T18:40:51Z</time>
      </trkpt>
      <trkpt lat="50.70786" lon="5.87572">
        <ele>257</ele>
        <time>2025-03-22T18:41:18Z</time>
      </trkpt>
      <trkpt lat="50.70791" lon="5.87649">
        <ele>258</ele>
        <time>2025-03-22T18:41:29Z</time>
      </trkpt>
      <trkpt lat="50.70807" lon="5.87793">
        <ele>261</ele>
        <time>2025-03-22T18:41:51Z</time>
      </trkpt>
      <trkpt lat="50.70829" lon="5.87918">
        <ele>263</ele>
        <time>2025-03-22T18:42:10Z</time>
      </trkpt>
      <trkpt lat="50.70865" lon="5.88045">
        <ele>266</ele>
        <time>2025-03-22T18:42:31Z</time>
      </trkpt>
      <trkpt lat="50.70914" lon="5.88166">
        <ele>272</ele>
        <time>2025-03-22T18:42:52Z</time>
      </trkpt>
      <trkpt lat="50.70942" lon="5.88219">
        <ele>274</ele>
        <time>2025-03-22T18:43:02Z</time>
      </trkpt>
      <trkpt lat="50.70982" lon="5.88278">
        <ele>278</ele>
        <time>2025-03-22T18:43:15Z</time>
      </trkpt>
      <trkpt lat="50.71081" lon="5.8839">
        <ele>276</ele>
        <time>2025-03-22T18:43:43Z</time>
      </trkpt>
      <trkpt lat="50.71137" lon="5.88443">
        <ele>272</ele>
        <time>2025-03-22T18:43:59Z</time>
      </trkpt>
      <trkpt lat="50.71373" lon="5.88687">
        <ele>263</ele>
        <time>2025-03-22T18:45:04Z</time>
      </trkpt>
      <trkpt lat="50.71494" lon="5.88843">
        <ele>262</ele>
        <time>2025-03-22T18:45:41Z</time>
      </trkpt>
      <trkpt lat="50.71587" lon="5.89002">
        <ele>256</ele>
        <time>2025-03-22T18:46:13Z</time>
      </trkpt>
      <trkpt lat="50.71732" lon="5.89269">
        <ele>255</ele>
        <time>2025-03-22T18:47:05Z</time>
      </trkpt>
      <trkpt lat="50.71769" lon="5.89333">
        <ele>249</ele>
        <time>2025-03-22T18:47:18Z</time>
      </trkpt>
      <trkpt lat="50.71816" lon="5.89394">
        <ele>244</ele>
        <time>2025-03-22T18:47:32Z</time>
      </trkpt>
      <trkpt lat="50.71877" lon="5.89454">
        <ele>243</ele>
        <time>2025-03-22T18:47:49Z</time>
      </trkpt>
      <trkpt lat="50.72006" lon="5.89538">
        <ele>240</ele>
        <time>2025-03-22T18:48:21Z</time>
      </trkpt>
      <trkpt lat="50.72102" lon="5.89588">
        <ele>237</ele>
        <time>2025-03-22T18:48:45Z</time>
      </trkpt>
      <trkpt lat="50.72133" lon="5.89618">
        <ele>236</ele>
        <time>2025-03-22T18:48:53Z</time>
      </trkpt>
      <trkpt lat="50.72165" lon="5.8966">
        <ele>236</ele>
        <time>2025-03-22T18:49:03Z</time>
      </trkpt>
      <trkpt lat="50.72206" lon="5.89731">
        <ele>235</ele>
        <time>2025-03-22T18:49:17Z</time>
      </trkpt>
      <trkpt lat="50.72228" lon="5.89794">
        <ele>236</ele>
        <time>2025-03-22T18:49:28Z</time>
      </trkpt>
      <trkpt lat="50.72247" lon="5.89899">
        <ele>238</ele>
        <time>2025-03-22T18:49:44Z</time>
      </trkpt>
      <trkpt lat="50.72251" lon="5.89964">
        <ele>237</ele>
        <time>2025-03-22T18:49:54Z</time>
      </trkpt>
      <trkpt lat="50.7225" lon="5.90009">
        <ele>237</ele>
        <time>2025-03-22T18:50:00Z</time>
      </trkpt>
      <trkpt lat="50.72241" lon="5.90082">
        <ele>233</ele>
        <time>2025-03-22T18:50:11Z</time>
      </trkpt>
      <trkpt lat="50.72216" lon="5.90181">
        <ele>229</ele>
        <time>2025-03-22T18:50:27Z</time>
      </trkpt>
      <trkpt lat="50.72196" lon="5.9023">
        <ele>228</ele>
        <time>2025-03-22T18:50:36Z</time>
      </trkpt>
      <trkpt lat="50.72048" lon="5.90479">
        <ele>219</ele>
        <time>2025-03-22T18:51:26Z</time>
      </trkpt>
      <trkpt lat="50.71907" lon="5.90724">
        <ele>224</ele>
        <time>2025-03-22T18:52:15Z</time>
      </trkpt>
      <trkpt lat="50.7189" lon="5.90768">
        <ele>222</ele>
        <time>2025-03-22T18:52:23Z</time>
      </trkpt>
      <trkpt lat="50.71872" lon="5.90825">
        <ele>221</ele>
        <time>2025-03-22T18:52:32Z</time>
      </trkpt>
      <trkpt lat="50.71863" lon="5.9087">
        <ele>219</ele>
        <time>2025-03-22T18:52:39Z</time>
      </trkpt>
      <trkpt lat="50.71854" lon="5.90953">
        <ele>217</ele>
        <time>2025-03-22T18:52:52Z</time>
      </trkpt>
      <trkpt lat="50.71857" lon="5.91062">
        <ele>216</ele>
        <time>2025-03-22T18:53:08Z</time>
      </trkpt>
      <trkpt lat="50.71865" lon="5.9111">
        <ele>214</ele>
        <time>2025-03-22T18:53:15Z</time>
      </trkpt>
      <trkpt lat="50.71882" lon="5.9117">
        <ele>212</ele>
        <time>2025-03-22T18:53:25Z</time>
      </trkpt>
      <trkpt lat="50.71918" lon="5.91259">
        <ele>210</ele>
        <time>2025-03-22T18:53:41Z</time>
      </trkpt>
      <trkpt lat="50.71949" lon="5.91308">
        <ele>210</ele>
        <time>2025-03-22T18:53:51Z</time>
      </trkpt>
      <trkpt lat="50.72" lon="5.91362">
        <ele>211</ele>
        <time>2025-03-22T18:54:05Z</time>
      </trkpt>
      <trkpt lat="50.72032" lon="5.91384">
        <ele>211</ele>
        <time>2025-03-22T18:54:13Z</time>
      </trkpt>
      <trkpt lat="50.7211" lon="5.91407">
        <ele>211</ele>
        <time>2025-03-22T18:54:32Z</time>
      </trkpt>
      <trkpt lat="50.72156" lon="5.91404">
        <ele>211</ele>
        <time>2025-03-22T18:54:43Z</time>
      </trkpt>
      <trkpt lat="50.72197" lon="5.91389">
        <ele>213</ele>
        <time>2025-03-22T18:54:52Z</time>
      </trkpt>
      <trkpt lat="50.72197" lon="5.91362">
        <ele>211</ele>
        <time>2025-03-22T18:54:56Z</time>
      </trkpt>
      <trkpt lat="50.72563" lon="5.91108">
        <ele>213</ele>
        <time>2025-03-22T18:56:30Z</time>
      </trkpt>
      <trkpt lat="50.72608" lon="5.91083">
        <ele>212</ele>
        <time>2025-03-22T18:56:41Z</time>
      </trkpt>
      <trkpt lat="50.7266" lon="5.91062">
        <ele>213</ele>
        <time>2025-03-22T18:56:53Z</time>
      </trkpt>
      <trkpt lat="50.72729" lon="5.91059">
        <ele>212</ele>
        <time>2025-03-22T18:57:10Z</time>
      </trkpt>
      <trkpt lat="50.72756" lon="5.91063">
        <ele>212</ele>
        <time>2025-03-22T18:57:16Z</time>
      </trkpt>
      <trkpt lat="50.72783" lon="5.91075">
        <ele>213</ele>
        <time>2025-03-22T18:57:22Z</time>
      </trkpt>
      <trkpt lat="50.72849" lon="5.91119">
        <ele>217</ele>
        <time>2025-03-22T18:57:39Z</time>
      </trkpt>
      <trkpt lat="50.72881" lon="5.91149">
        <ele>223</ele>
        <time>2025-03-22T18:57:48Z</time>
      </trkpt>
      <trkpt lat="50.72923" lon="5.91207">
        <ele>229</ele>
        <time>2025-03-22T18:58:01Z</time>
      </trkpt>
      <trkpt lat="50.72966" lon="5.91303">
        <ele>231</ele>
        <time>2025-03-22T18:58:18Z</time>
      </trkpt>
      <trkpt lat="50.72983" lon="5.91384">
        <ele>229</ele>
        <time>2025-03-22T18:58:31Z</time>
      </trkpt>
      <trkpt lat="50.72994" lon="5.91468">
        <ele>224</ele>
        <time>2025-03-22T18:58:44Z</time>
      </trkpt>
      <trkpt lat="50.72991" lon="5.91583">
        <ele>222</ele>
        <time>2025-03-22T18:59:01Z</time>
      </trkpt>
      <trkpt lat="50.72983" lon="5.91633">
        <ele>220</ele>
        <time>2025-03-22T18:59:08Z</time>
      </trkpt>
      <trkpt lat="50.72967" lon="5.91687">
        <ele>218</ele>
        <time>2025-03-22T18:59:17Z</time>
      </trkpt>
      <trkpt lat="50.7296" lon="5.91719">
        <ele>217</ele>
        <time>2025-03-22T18:59:22Z</time>
      </trkpt>
      <trkpt lat="50.73011" lon="5.91756">
        <ele>213</ele>
        <time>2025-03-22T18:59:35Z</time>
      </trkpt>
      <trkpt lat="50.73029" lon="5.91755">
        <ele>213</ele>
        <time>2025-03-22T18:59:39Z</time>
      </trkpt>
      <trkpt lat="50.73034" lon="5.91783">
        <ele>211</ele>
        <time>2025-03-22T18:59:44Z</time>
      </trkpt>
      <trkpt lat="50.73022" lon="5.91967">
        <ele>204</ele>
        <time>2025-03-22T19:00:11Z</time>
      </trkpt>
      <trkpt lat="50.73027" lon="5.92">
        <ele>203</ele>
        <time>2025-03-22T19:00:16Z</time>
      </trkpt>
      <trkpt lat="50.73042" lon="5.91998">
        <ele>203</ele>
        <time>2025-03-22T19:00:19Z</time>
      </trkpt>
      <trkpt lat="50.73065" lon="5.92003">
        <ele>202</ele>
        <time>2025-03-22T19:00:25Z</time>
      </trkpt>
      <trkpt lat="50.73118" lon="5.92042">
        <ele>201</ele>
        <time>2025-03-22T19:00:39Z</time>
      </trkpt>
      <trkpt lat="50.7314" lon="5.92071">
        <ele>199</ele>
        <time>2025-03-22T19:00:45Z</time>
      </trkpt>
      <trkpt lat="50.73182" lon="5.92192">
        <ele>193</ele>
        <time>2025-03-22T19:01:06Z</time>
      </trkpt>
      <trkpt lat="50.73203" lon="5.92232">
        <ele>192</ele>
        <time>2025-03-22T19:01:13Z</time>
      </trkpt>
      <trkpt lat="50.73284" lon="5.92343">
        <ele>192</ele>
        <time>2025-03-22T19:01:38Z</time>
      </trkpt>
      <trkpt lat="50.73299" lon="5.92356">
        <ele>191</ele>
        <time>2025-03-22T19:01:42Z</time>
      </trkpt>
      <trkpt lat="50.73717" lon="5.92522">
        <ele>187</ele>
        <time>2025-03-22T19:03:23Z</time>
      </trkpt>
      <trkpt lat="50.73754" lon="5.92618">
        <ele>184</ele>
        <time>2025-03-22T19:03:40Z</time>
      </trkpt>
      <trkpt lat="50.73849" lon="5.92916">
        <ele>178</ele>
        <time>2025-03-22T19:04:29Z</time>
      </trkpt>
      <trkpt lat="50.73906" lon="5.93081">
        <ele>178</ele>
        <time>2025-03-22T19:04:57Z</time>
      </trkpt>
      <trkpt lat="50.73946" lon="5.93163">
        <ele>174</ele>
        <time>2025-03-22T19:05:12Z</time>
      </trkpt>
      <trkpt lat="50.73991" lon="5.93238">
        <ele>171</ele>
        <time>2025-03-22T19:05:27Z</time>
      </trkpt>
      <trkpt lat="50.74038" lon="5.93309">
        <ele>167</ele>
        <time>2025-03-22T19:05:42Z</time>
      </trkpt>
      <trkpt lat="50.74079" lon="5.93363">
        <ele>164</ele>
        <time>2025-03-22T19:05:55Z</time>
      </trkpt>
      <trkpt lat="50.74104" lon="5.93384">
        <ele>163</ele>
        <time>2025-03-22T19:06:02Z</time>
      </trkpt>
      <trkpt lat="50.74218" lon="5.93461">
        <ele>160</ele>
        <time>2025-03-22T19:06:31Z</time>
      </trkpt>
      <trkpt lat="50.74286" lon="5.93504">
        <ele>160</ele>
        <time>2025-03-22T19:06:48Z</time>
      </trkpt>
      <trkpt lat="50.74397" lon="5.93564">
        <ele>161</ele>
        <time>2025-03-22T19:07:15Z</time>
      </trkpt>
      <trkpt lat="50.74424" lon="5.93593">
        <ele>161</ele>
        <time>2025-03-22T19:07:23Z</time>
      </trkpt>
      <trkpt lat="50.74471" lon="5.93699">
        <ele>159</ele>
        <time>2025-03-22T19:07:42Z</time>
      </trkpt>
      <trkpt lat="50.74536" lon="5.9383">
        <ele>158</ele>
        <time>2025-03-22T19:08:06Z</time>
      </trkpt>
      <trkpt lat="50.7458" lon="5.93781">
        <ele>156</ele>
        <time>2025-03-22T19:08:19Z</time>
      </trkpt>
      <trkpt lat="50.74706" lon="5.93598">
        <ele>149</ele>
        <time>2025-03-22T19:08:59Z</time>
      </trkpt>
      <trkpt lat="50.74727" lon="5.9358">
        <ele>148</ele>
        <time>2025-03-22T19:09:04Z</time>
      </trkpt>
      <trkpt lat="50.74745" lon="5.93574">
        <ele>148</ele>
        <time>2025-03-22T19:09:09Z</time>
      </trkpt>
      <trkpt lat="50.7477" lon="5.93577">
        <ele>147</ele>
        <time>2025-03-22T19:09:15Z</time>
      </trkpt>
      <trkpt lat="50.74906" lon="5.93624">
        <ele>142</ele>
        <time>2025-03-22T19:09:47Z</time>
      </trkpt>
      <trkpt lat="50.74923" lon="5.93624">
        <ele>142</ele>
        <time>2025-03-22T19:09:51Z</time>
      </trkpt>
      <trkpt lat="50.74973" lon="5.93588">
        <ele>141</ele>
        <time>2025-03-22T19:10:04Z</time>
      </trkpt>
      <trkpt lat="50.75044" lon="5.93524">
        <ele>146</ele>
        <time>2025-03-22T19:10:23Z</time>
      </trkpt>
      <trkpt lat="50.75058" lon="5.93504">
        <ele>148</ele>
        <time>2025-03-22T19:10:27Z</time>
      </trkpt>
      <trkpt lat="50.75064" lon="5.93484">
        <ele>149</ele>
        <time>2025-03-22T19:10:31Z</time>
      </trkpt>
      <trkpt lat="50.7507" lon="5.93444">
        <ele>152</ele>
        <time>2025-03-22T19:10:37Z</time>
      </trkpt>
      <trkpt lat="50.75072" lon="5.93396">
        <ele>155</ele>
        <time>2025-03-22T19:10:44Z</time>
      </trkpt>
      <trkpt lat="50.75077" lon="5.93367">
        <ele>156</ele>
        <time>2025-03-22T19:10:48Z</time>
      </trkpt>
      <trkpt lat="50.75091" lon="5.93374">
        <ele>155</ele>
        <time>2025-03-22T19:10:52Z</time>
      </trkpt>
      <trkpt lat="50.75116" lon="5.93371">
        <ele>154</ele>
        <time>2025-03-22T19:10:58Z</time>
      </trkpt>
      <trkpt lat="50.75145" lon="5.93441">
        <ele>148</ele>
        <time>2025-03-22T19:11:10Z</time>
      </trkpt>
      <trkpt lat="50.75167" lon="5.93437">
        <ele>146</ele>
        <time>2025-03-22T19:11:15Z</time>
      </trkpt>
      <trkpt lat="50.75195" lon="5.93437">
        <ele>145</ele>
        <time>2025-03-22T19:11:22Z</time>
      </trkpt>
      <trkpt lat="50.75256" lon="5.93445">
        <ele>142</ele>
        <time>2025-03-22T19:11:36Z</time>
      </trkpt>
      <trkpt lat="50.75315" lon="5.93469">
        <ele>140</ele>
        <time>2025-03-22T19:11:50Z</time>
      </trkpt>
      <trkpt lat="50.75347" lon="5.93467">
        <ele>140</ele>
        <time>2025-03-22T19:11:58Z</time>
      </trkpt>
      <trkpt lat="50.75361" lon="5.93496">
        <ele>137</ele>
        <time>2025-03-22T19:12:03Z</time>
      </trkpt>
      <trkpt lat="50.75393" lon="5.93521">
        <ele>134</ele>
        <time>2025-03-22T19:12:11Z</time>
      </trkpt>
      <trkpt lat="50.7548" lon="5.93634">
        <ele>128</ele>
        <time>2025-03-22T19:12:38Z</time>
      </trkpt>
      <trkpt lat="50.75516" lon="5.9365">
        <ele>127</ele>
        <time>2025-03-22T19:12:46Z</time>
      </trkpt>
      <trkpt lat="50.75552" lon="5.93698">
        <ele>124</ele>
        <time>2025-03-22T19:12:57Z</time>
      </trkpt>
      <trkpt lat="50.7557" lon="5.93709">
        <ele>124</ele>
        <time>2025-03-22T19:13:02Z</time>
      </trkpt>
      <trkpt lat="50.75594" lon="5.93728">
        <ele>123</ele>
        <time>2025-03-22T19:13:08Z</time>
      </trkpt>
      <trkpt lat="50.75628" lon="5.93698">
        <ele>123</ele>
        <time>2025-03-22T19:13:17Z</time>
      </trkpt>
      <trkpt lat="50.75632" lon="5.93706">
        <ele>123</ele>
        <time>2025-03-22T19:13:19Z</time>
      </trkpt>
      <trkpt lat="50.75632" lon="5.93727">
        <ele>123</ele>
        <time>2025-03-22T19:13:22Z</time>
      </trkpt>
      <trkpt lat="50.75641" lon="5.93773">
        <ele>122</ele>
        <time>2025-03-22T19:13:29Z</time>
      </trkpt>
      <trkpt lat="50.75646" lon="5.93786">
        <ele>123</ele>
        <time>2025-03-22T19:13:31Z</time>
      </trkpt>
      <trkpt lat="50.75641" lon="5.93828">
        <ele>123</ele>
        <time>2025-03-22T19:13:38Z</time>
      </trkpt>
    </trkseg>
  </trk>
  <trk>
    <name><![CDATA[jour 1_3_45km_sans_la_fin ni milieu]]></name>
    <extensions>
      <line xmlns="http://www.topografix.com/GPX/gpx_style/0/2">
        <color>FF0000</color>
        <width>4</width>
      </line>
    </extensions>
    <trkseg>
      <trkpt lat="50.62459" lon="5.56676">
        <ele>69</ele>
        <time>2025-03-22T16:30:09Z</time>
      </trkpt>
      <trkpt lat="50.62478" lon="5.56758">
        <ele>65</ele>
        <time>2025-03-22T16:30:22Z</time>
      </trkpt>
      <trkpt lat="50.62439" lon="5.56826">
        <ele>67</ele>
        <time>2025-03-22T16:30:36Z</time>
      </trkpt>
      <trkpt lat="50.62514" lon="5.56895">
        <ele>67</ele>
        <time>2025-03-22T16:30:56Z</time>
      </trkpt>
      <trkpt lat="50.62536" lon="5.56923">
        <ele>67</ele>
        <time>2025-03-22T16:31:02Z</time>
      </trkpt>
      <trkpt lat="50.62626" lon="5.57087">
        <ele>66</ele>
        <time>2025-03-22T16:31:35Z</time>
      </trkpt>
      <trkpt lat="50.62753" lon="5.5727">
        <ele>70</ele>
        <time>2025-03-22T16:32:15Z</time>
      </trkpt>
      <trkpt lat="50.62768" lon="5.57303">
        <ele>67</ele>
        <time>2025-03-22T16:32:21Z</time>
      </trkpt>
      <trkpt lat="50.62761" lon="5.57312">
        <ele>67</ele>
        <time>2025-03-22T16:32:23Z</time>
      </trkpt>
      <trkpt lat="50.62781" lon="5.57369">
        <ele>61</ele>
        <time>2025-03-22T16:32:32Z</time>
      </trkpt>
      <trkpt lat="50.62865" lon="5.57542">
        <ele>65</ele>
        <time>2025-03-22T16:33:05Z</time>
      </trkpt>
      <trkpt lat="50.62848" lon="5.5756">
        <ele>66</ele>
        <time>2025-03-22T16:33:10Z</time>
      </trkpt>
      <trkpt lat="50.6279" lon="5.576">
        <ele>72</ele>
        <time>2025-03-22T16:33:24Z</time>
      </trkpt>
      <trkpt lat="50.62769" lon="5.57586">
        <ele>73</ele>
        <time>2025-03-22T16:33:30Z</time>
      </trkpt>
      <trkpt lat="50.62757" lon="5.57585">
        <ele>74</ele>
        <time>2025-03-22T16:33:32Z</time>
      </trkpt>
      <trkpt lat="50.62708" lon="5.57618">
        <ele>69</ele>
        <time>2025-03-22T16:33:45Z</time>
      </trkpt>
      <trkpt lat="50.62562" lon="5.57732">
        <ele>65</ele>
        <time>2025-03-22T16:34:23Z</time>
      </trkpt>
      <trkpt lat="50.62546" lon="5.57761">
        <ele>66</ele>
        <time>2025-03-22T16:34:29Z</time>
      </trkpt>
      <trkpt lat="50.62497" lon="5.57793">
        <ele>66</ele>
        <time>2025-03-22T16:34:41Z</time>
      </trkpt>
      <trkpt lat="50.62488" lon="5.57807">
        <ele>67</ele>
        <time>2025-03-22T16:34:44Z</time>
      </trkpt>
      <trkpt lat="50.62484" lon="5.57832">
        <ele>67</ele>
        <time>2025-03-22T16:34:48Z</time>
      </trkpt>
      <trkpt lat="50.625" lon="5.57977">
        <ele>66</ele>
        <time>2025-03-22T16:35:10Z</time>
      </trkpt>
      <trkpt lat="50.62425" lon="5.57984">
        <ele>63</ele>
        <time>2025-03-22T16:35:27Z</time>
      </trkpt>
      <trkpt lat="50.62398" lon="5.57993">
        <ele>62</ele>
        <time>2025-03-22T16:35:34Z</time>
      </trkpt>
      <trkpt lat="50.62364" lon="5.58012">
        <ele>61</ele>
        <time>2025-03-22T16:35:42Z</time>
      </trkpt>
      <trkpt lat="50.62331" lon="5.58038">
        <ele>61</ele>
        <time>2025-03-22T16:35:51Z</time>
      </trkpt>
      <trkpt lat="50.62281" lon="5.58093">
        <ele>62</ele>
        <time>2025-03-22T16:36:05Z</time>
      </trkpt>
      <trkpt lat="50.6228" lon="5.58103">
        <ele>63</ele>
        <time>2025-03-22T16:36:06Z</time>
      </trkpt>
      <trkpt lat="50.62223" lon="5.58216">
        <ele>66</ele>
        <time>2025-03-22T16:36:28Z</time>
      </trkpt>
      <trkpt lat="50.62212" lon="5.58221">
        <ele>65</ele>
        <time>2025-03-22T16:36:30Z</time>
      </trkpt>
      <trkpt lat="50.62206" lon="5.58229">
        <ele>65</ele>
        <time>2025-03-22T16:36:32Z</time>
      </trkpt>
      <trkpt lat="50.62197" lon="5.58249">
        <ele>66</ele>
        <time>2025-03-22T16:36:36Z</time>
      </trkpt>
      <trkpt lat="50.62162" lon="5.58342">
        <ele>69</ele>
        <time>2025-03-22T16:36:52Z</time>
      </trkpt>
      <trkpt lat="50.6216" lon="5.5836">
        <ele>69</ele>
        <time>2025-03-22T16:36:55Z</time>
      </trkpt>
      <trkpt lat="50.62042" lon="5.58702">
        <ele>65</ele>
        <time>2025-03-22T16:37:52Z</time>
      </trkpt>
      <trkpt lat="50.62011" lon="5.58803">
        <ele>66</ele>
        <time>2025-03-22T16:38:09Z</time>
      </trkpt>
      <trkpt lat="50.61961" lon="5.58935">
        <ele>69</ele>
        <time>2025-03-22T16:38:32Z</time>
      </trkpt>
      <trkpt lat="50.6192" lon="5.59032">
        <ele>70</ele>
        <time>2025-03-22T16:38:49Z</time>
      </trkpt>
      <trkpt lat="50.61833" lon="5.59211">
        <ele>64</ele>
        <time>2025-03-22T16:39:22Z</time>
      </trkpt>
      <trkpt lat="50.61821" lon="5.59222">
        <ele>64</ele>
        <time>2025-03-22T16:39:26Z</time>
      </trkpt>
      <trkpt lat="50.61762" lon="5.59153">
        <ele>65</ele>
        <time>2025-03-22T16:39:43Z</time>
      </trkpt>
      <trkpt lat="50.61703" lon="5.59281">
        <ele>70</ele>
        <time>2025-03-22T16:40:06Z</time>
      </trkpt>
      <trkpt lat="50.61628" lon="5.59468">
        <ele>72</ele>
        <time>2025-03-22T16:40:39Z</time>
      </trkpt>
      <trkpt lat="50.61571" lon="5.59655">
        <ele>67</ele>
        <time>2025-03-22T16:41:10Z</time>
      </trkpt>
      <trkpt lat="50.61505" lon="5.59902">
        <ele>64</ele>
        <time>2025-03-22T16:41:49Z</time>
      </trkpt>
      <trkpt lat="50.61487" lon="5.59983">
        <ele>64</ele>
        <time>2025-03-22T16:42:02Z</time>
      </trkpt>
      <trkpt lat="50.61482" lon="5.6004">
        <ele>64</ele>
        <time>2025-03-22T16:42:11Z</time>
      </trkpt>
      <trkpt lat="50.61473" lon="5.60093">
        <ele>65</ele>
        <time>2025-03-22T16:42:19Z</time>
      </trkpt>
      <trkpt lat="50.61455" lon="5.60131">
        <ele>65</ele>
        <time>2025-03-22T16:42:26Z</time>
      </trkpt>
      <trkpt lat="50.61448" lon="5.60184">
        <ele>66</ele>
        <time>2025-03-22T16:42:34Z</time>
      </trkpt>
      <trkpt lat="50.61428" lon="5.60195">
        <ele>67</ele>
        <time>2025-03-22T16:42:39Z</time>
      </trkpt>
      <trkpt lat="50.6141" lon="5.60246">
        <ele>68</ele>
        <time>2025-03-22T16:42:47Z</time>
      </trkpt>
      <trkpt lat="50.61152" lon="5.61203">
        <ele>65</ele>
        <time>2025-03-22T16:45:22Z</time>
      </trkpt>
      <trkpt lat="50.61127" lon="5.6119">
        <ele>64</ele>
        <time>2025-03-22T16:45:28Z</time>
      </trkpt>
      <trkpt lat="50.61118" lon="5.61224">
        <ele>65</ele>
        <time>2025-03-22T16:45:33Z</time>
      </trkpt>
      <trkpt lat="50.61108" lon="5.61238">
        <ele>65</ele>
        <time>2025-03-22T16:45:36Z</time>
      </trkpt>
      <trkpt lat="50.61093" lon="5.61248">
        <ele>64</ele>
        <time>2025-03-22T16:45:40Z</time>
      </trkpt>
      <trkpt lat="50.61074" lon="5.61252">
        <ele>64</ele>
        <time>2025-03-22T16:45:45Z</time>
      </trkpt>
      <trkpt lat="50.61052" lon="5.6125">
        <ele>65</ele>
        <time>2025-03-22T16:45:50Z</time>
      </trkpt>
      <trkpt lat="50.60952" lon="5.61221">
        <ele>67</ele>
        <time>2025-03-22T16:46:13Z</time>
      </trkpt>
      <trkpt lat="50.60892" lon="5.61197">
        <ele>68</ele>
        <time>2025-03-22T16:46:28Z</time>
      </trkpt>
      <trkpt lat="50.60926" lon="5.6122">
        <ele>67</ele>
        <time>2025-03-22T16:46:37Z</time>
      </trkpt>
      <trkpt lat="50.60854" lon="5.61471">
        <ele>67</ele>
        <time>2025-03-22T16:47:17Z</time>
      </trkpt>
      <trkpt lat="50.6084" lon="5.61557">
        <ele>69</ele>
        <time>2025-03-22T16:47:31Z</time>
      </trkpt>
      <trkpt lat="50.60851" lon="5.61565">
        <ele>69</ele>
        <time>2025-03-22T16:47:33Z</time>
      </trkpt>
      <trkpt lat="50.60849" lon="5.61612">
        <ele>69</ele>
        <time>2025-03-22T16:47:40Z</time>
      </trkpt>
      <trkpt lat="50.60814" lon="5.61728">
        <ele>70</ele>
        <time>2025-03-22T16:47:59Z</time>
      </trkpt>
      <trkpt lat="50.60815" lon="5.61745">
        <ele>70</ele>
        <time>2025-03-22T16:48:02Z</time>
      </trkpt>
      <trkpt lat="50.60802" lon="5.61794">
        <ele>70</ele>
        <time>2025-03-22T16:48:10Z</time>
      </trkpt>
      <trkpt lat="50.60744" lon="5.61975">
        <ele>71</ele>
        <time>2025-03-22T16:48:40Z</time>
      </trkpt>
      <trkpt lat="50.60686" lon="5.62091">
        <ele>71</ele>
        <time>2025-03-22T16:49:02Z</time>
      </trkpt>
      <trkpt lat="50.60663" lon="5.6215">
        <ele>72</ele>
        <time>2025-03-22T16:49:12Z</time>
      </trkpt>
      <trkpt lat="50.60504" lon="5.62638">
        <ele>70</ele>
        <time>2025-03-22T16:50:33Z</time>
      </trkpt>
      <trkpt lat="50.60464" lon="5.62767">
        <ele>70</ele>
        <time>2025-03-22T16:50:55Z</time>
      </trkpt>
      <trkpt lat="50.60446" lon="5.62758">
        <ele>70</ele>
        <time>2025-03-22T16:50:59Z</time>
      </trkpt>
      <trkpt lat="50.60441" lon="5.62762">
        <ele>70</ele>
        <time>2025-03-22T16:51:00Z</time>
      </trkpt>
      <trkpt lat="50.60425" lon="5.62801">
        <ele>70</ele>
        <time>2025-03-22T16:51:07Z</time>
      </trkpt>
      <trkpt lat="50.60396" lon="5.62964">
        <ele>70</ele>
        <time>2025-03-22T16:51:32Z</time>
      </trkpt>
      <trkpt lat="50.6035" lon="5.63151">
        <ele>71</ele>
        <time>2025-03-22T16:52:02Z</time>
      </trkpt>
      <trkpt lat="50.60335" lon="5.6325">
        <ele>70</ele>
        <time>2025-03-22T16:52:17Z</time>
      </trkpt>
      <trkpt lat="50.60322" lon="5.63363">
        <ele>72</ele>
        <time>2025-03-22T16:52:34Z</time>
      </trkpt>
      <trkpt lat="50.60317" lon="5.63439">
        <ele>73</ele>
        <time>2025-03-22T16:52:45Z</time>
      </trkpt>
      <trkpt lat="50.60318" lon="5.63457">
        <ele>73</ele>
        <time>2025-03-22T16:52:48Z</time>
      </trkpt>
      <trkpt lat="50.60331" lon="5.63503">
        <ele>74</ele>
        <time>2025-03-22T16:52:56Z</time>
      </trkpt>
      <trkpt lat="50.60346" lon="5.63505">
        <ele>75</ele>
        <time>2025-03-22T16:52:59Z</time>
      </trkpt>
      <trkpt lat="50.60355" lon="5.63523">
        <ele>76</ele>
        <time>2025-03-22T16:53:02Z</time>
      </trkpt>
      <trkpt lat="50.60354" lon="5.6355">
        <ele>77</ele>
        <time>2025-03-22T16:53:06Z</time>
      </trkpt>
      <trkpt lat="50.60348" lon="5.63563">
        <ele>78</ele>
        <time>2025-03-22T16:53:09Z</time>
      </trkpt>
      <trkpt lat="50.60351" lon="5.63584">
        <ele>79</ele>
        <time>2025-03-22T16:53:12Z</time>
      </trkpt>
      <trkpt lat="50.60402" lon="5.63632">
        <ele>83</ele>
        <time>2025-03-22T16:53:26Z</time>
      </trkpt>
      <trkpt lat="50.60446" lon="5.63616">
        <ele>83</ele>
        <time>2025-03-22T16:53:36Z</time>
      </trkpt>
      <trkpt lat="50.60487" lon="5.63582">
        <ele>83</ele>
        <time>2025-03-22T16:53:47Z</time>
      </trkpt>
      <trkpt lat="50.60534" lon="5.63635">
        <ele>87</ele>
        <time>2025-03-22T16:54:01Z</time>
      </trkpt>
      <trkpt lat="50.60618" lon="5.63705">
        <ele>93</ele>
        <time>2025-03-22T16:54:23Z</time>
      </trkpt>
      <trkpt lat="50.60625" lon="5.63692">
        <ele>93</ele>
        <time>2025-03-22T16:54:26Z</time>
      </trkpt>
      <trkpt lat="50.6064" lon="5.63685">
        <ele>93</ele>
        <time>2025-03-22T16:54:29Z</time>
      </trkpt>
      <trkpt lat="50.60697" lon="5.63679">
        <ele>95</ele>
        <time>2025-03-22T16:54:43Z</time>
      </trkpt>
      <trkpt lat="50.60769" lon="5.63651">
        <ele>96</ele>
        <time>2025-03-22T16:55:00Z</time>
      </trkpt>
      <trkpt lat="50.60814" lon="5.63627">
        <ele>96</ele>
        <time>2025-03-22T16:55:11Z</time>
      </trkpt>
      <trkpt lat="50.60846" lon="5.63601">
        <ele>95</ele>
        <time>2025-03-22T16:55:19Z</time>
      </trkpt>
      <trkpt lat="50.60881" lon="5.6356">
        <ele>94</ele>
        <time>2025-03-22T16:55:30Z</time>
      </trkpt>
      <trkpt lat="50.60907" lon="5.63525">
        <ele>93</ele>
        <time>2025-03-22T16:55:38Z</time>
      </trkpt>
      <trkpt lat="50.60932" lon="5.63479">
        <ele>92</ele>
        <time>2025-03-22T16:55:46Z</time>
      </trkpt>
      <trkpt lat="50.60955" lon="5.63424">
        <ele>93</ele>
        <time>2025-03-22T16:55:56Z</time>
      </trkpt>
      <trkpt lat="50.60969" lon="5.63384">
        <ele>95</ele>
        <time>2025-03-22T16:56:03Z</time>
      </trkpt>
      <trkpt lat="50.60994" lon="5.63284">
        <ele>99</ele>
        <time>2025-03-22T16:56:19Z</time>
      </trkpt>
      <trkpt lat="50.61019" lon="5.63156">
        <ele>100</ele>
        <time>2025-03-22T16:56:39Z</time>
      </trkpt>
      <trkpt lat="50.61079" lon="5.62877">
        <ele>98</ele>
        <time>2025-03-22T16:57:22Z</time>
      </trkpt>
      <trkpt lat="50.61096" lon="5.62825">
        <ele>98</ele>
        <time>2025-03-22T16:57:31Z</time>
      </trkpt>
      <trkpt lat="50.61129" lon="5.62747">
        <ele>101</ele>
        <time>2025-03-22T16:57:45Z</time>
      </trkpt>
      <trkpt lat="50.61172" lon="5.62671">
        <ele>104</ele>
        <time>2025-03-22T16:58:00Z</time>
      </trkpt>
      <trkpt lat="50.61182" lon="5.62664">
        <ele>105</ele>
        <time>2025-03-22T16:58:03Z</time>
      </trkpt>
      <trkpt lat="50.61233" lon="5.62608">
        <ele>110</ele>
        <time>2025-03-22T16:58:17Z</time>
      </trkpt>
      <trkpt lat="50.61269" lon="5.62581">
        <ele>112</ele>
        <time>2025-03-22T16:58:26Z</time>
      </trkpt>
      <trkpt lat="50.61321" lon="5.62553">
        <ele>113</ele>
        <time>2025-03-22T16:58:39Z</time>
      </trkpt>
      <trkpt lat="50.61469" lon="5.62488">
        <ele>109</ele>
        <time>2025-03-22T16:59:15Z</time>
      </trkpt>
      <trkpt lat="50.61526" lon="5.62453">
        <ele>113</ele>
        <time>2025-03-22T16:59:29Z</time>
      </trkpt>
      <trkpt lat="50.61566" lon="5.62421">
        <ele>120</ele>
        <time>2025-03-22T16:59:40Z</time>
      </trkpt>
      <trkpt lat="50.61596" lon="5.62391">
        <ele>123</ele>
        <time>2025-03-22T16:59:48Z</time>
      </trkpt>
      <trkpt lat="50.6164" lon="5.62336">
        <ele>122</ele>
        <time>2025-03-22T17:00:01Z</time>
      </trkpt>
      <trkpt lat="50.61748" lon="5.62154">
        <ele>125</ele>
        <time>2025-03-22T17:00:38Z</time>
      </trkpt>
      <trkpt lat="50.61791" lon="5.62093">
        <ele>127</ele>
        <time>2025-03-22T17:00:52Z</time>
      </trkpt>
      <trkpt lat="50.61841" lon="5.62045">
        <ele>128</ele>
        <time>2025-03-22T17:01:05Z</time>
      </trkpt>
      <trkpt lat="50.61864" lon="5.62028">
        <ele>129</ele>
        <time>2025-03-22T17:01:11Z</time>
      </trkpt>
      <trkpt lat="50.61895" lon="5.62009">
        <ele>130</ele>
        <time>2025-03-22T17:01:19Z</time>
      </trkpt>
      <trkpt lat="50.61932" lon="5.61996">
        <ele>130</ele>
        <time>2025-03-22T17:01:28Z</time>
      </trkpt>
      <trkpt lat="50.61981" lon="5.6199">
        <ele>131</ele>
        <time>2025-03-22T17:01:40Z</time>
      </trkpt>
      <trkpt lat="50.6203" lon="5.6199">
        <ele>131</ele>
        <time>2025-03-22T17:01:51Z</time>
      </trkpt>
      <trkpt lat="50.62041" lon="5.61985">
        <ele>131</ele>
        <time>2025-03-22T17:01:54Z</time>
      </trkpt>
      <trkpt lat="50.62087" lon="5.62001">
        <ele>131</ele>
        <time>2025-03-22T17:02:05Z</time>
      </trkpt>
      <trkpt lat="50.62124" lon="5.62018">
        <ele>132</ele>
        <time>2025-03-22T17:02:14Z</time>
      </trkpt>
      <trkpt lat="50.62151" lon="5.62036">
        <ele>132</ele>
        <time>2025-03-22T17:02:20Z</time>
      </trkpt>
      <trkpt lat="50.62193" lon="5.62071">
        <ele>134</ele>
        <time>2025-03-22T17:02:32Z</time>
      </trkpt>
      <trkpt lat="50.62215" lon="5.62097">
        <ele>134</ele>
        <time>2025-03-22T17:02:38Z</time>
      </trkpt>
      <trkpt lat="50.62268" lon="5.62171">
        <ele>137</ele>
        <time>2025-03-22T17:02:55Z</time>
      </trkpt>
      <trkpt lat="50.62273" lon="5.6217">
        <ele>137</ele>
        <time>2025-03-22T17:02:56Z</time>
      </trkpt>
      <trkpt lat="50.62281" lon="5.62183">
        <ele>137</ele>
        <time>2025-03-22T17:02:58Z</time>
      </trkpt>
      <trkpt lat="50.62279" lon="5.62188">
        <ele>138</ele>
        <time>2025-03-22T17:02:59Z</time>
      </trkpt>
      <trkpt lat="50.62297" lon="5.62215">
        <ele>138</ele>
        <time>2025-03-22T17:03:05Z</time>
      </trkpt>
      <trkpt lat="50.62407" lon="5.6237">
        <ele>143</ele>
        <time>2025-03-22T17:03:40Z</time>
      </trkpt>
      <trkpt lat="50.62444" lon="5.62406">
        <ele>143</ele>
        <time>2025-03-22T17:03:50Z</time>
      </trkpt>
      <trkpt lat="50.62479" lon="5.62433">
        <ele>143</ele>
        <time>2025-03-22T17:03:59Z</time>
      </trkpt>
      <trkpt lat="50.62511" lon="5.62452">
        <ele>142</ele>
        <time>2025-03-22T17:04:07Z</time>
      </trkpt>
      <trkpt lat="50.62543" lon="5.62466">
        <ele>142</ele>
        <time>2025-03-22T17:04:15Z</time>
      </trkpt>
      <trkpt lat="50.62571" lon="5.62474">
        <ele>142</ele>
        <time>2025-03-22T17:04:21Z</time>
      </trkpt>
      <trkpt lat="50.62605" lon="5.62479">
        <ele>142</ele>
        <time>2025-03-22T17:04:29Z</time>
      </trkpt>
      <trkpt lat="50.62668" lon="5.6248">
        <ele>145</ele>
        <time>2025-03-22T17:04:44Z</time>
      </trkpt>
      <trkpt lat="50.62836" lon="5.62436">
        <ele>150</ele>
        <time>2025-03-22T17:05:24Z</time>
      </trkpt>
      <trkpt lat="50.6284" lon="5.62409">
        <ele>149</ele>
        <time>2025-03-22T17:05:28Z</time>
      </trkpt>
      <trkpt lat="50.62855" lon="5.62413">
        <ele>150</ele>
        <time>2025-03-22T17:05:31Z</time>
      </trkpt>
      <trkpt lat="50.62864" lon="5.62429">
        <ele>151</ele>
        <time>2025-03-22T17:05:34Z</time>
      </trkpt>
      <trkpt lat="50.62871" lon="5.62429">
        <ele>151</ele>
        <time>2025-03-22T17:05:36Z</time>
      </trkpt>
      <trkpt lat="50.63105" lon="5.62361">
        <ele>153</ele>
        <time>2025-03-22T17:06:32Z</time>
      </trkpt>
      <trkpt lat="50.6312" lon="5.62345">
        <ele>154</ele>
        <time>2025-03-22T17:06:36Z</time>
      </trkpt>
      <trkpt lat="50.63147" lon="5.62335">
        <ele>155</ele>
        <time>2025-03-22T17:06:42Z</time>
      </trkpt>
      <trkpt lat="50.63201" lon="5.6233">
        <ele>155</ele>
        <time>2025-03-22T17:06:55Z</time>
      </trkpt>
      <trkpt lat="50.63258" lon="5.62329">
        <ele>154</ele>
        <time>2025-03-22T17:07:08Z</time>
      </trkpt>
      <trkpt lat="50.63302" lon="5.6235">
        <ele>155</ele>
        <time>2025-03-22T17:07:19Z</time>
      </trkpt>
      <trkpt lat="50.63385" lon="5.6241">
        <ele>157</ele>
        <time>2025-03-22T17:07:40Z</time>
      </trkpt>
      <trkpt lat="50.63421" lon="5.62456">
        <ele>158</ele>
        <time>2025-03-22T17:07:51Z</time>
      </trkpt>
      <trkpt lat="50.63463" lon="5.62533">
        <ele>161</ele>
        <time>2025-03-22T17:08:06Z</time>
      </trkpt>
      <trkpt lat="50.63488" lon="5.62606">
        <ele>163</ele>
        <time>2025-03-22T17:08:19Z</time>
      </trkpt>
      <trkpt lat="50.63505" lon="5.62676">
        <ele>164</ele>
        <time>2025-03-22T17:08:30Z</time>
      </trkpt>
      <trkpt lat="50.63513" lon="5.62797">
        <ele>168</ele>
        <time>2025-03-22T17:08:48Z</time>
      </trkpt>
      <trkpt lat="50.63509" lon="5.62862">
        <ele>171</ele>
        <time>2025-03-22T17:08:57Z</time>
      </trkpt>
      <trkpt lat="50.63492" lon="5.62962">
        <ele>174</ele>
        <time>2025-03-22T17:09:13Z</time>
      </trkpt>
      <trkpt lat="50.63481" lon="5.63002">
        <ele>174</ele>
        <time>2025-03-22T17:09:19Z</time>
      </trkpt>
      <trkpt lat="50.63483" lon="5.63008">
        <ele>174</ele>
        <time>2025-03-22T17:09:20Z</time>
      </trkpt>
      <trkpt lat="50.63474" lon="5.63019">
        <ele>174</ele>
        <time>2025-03-22T17:09:23Z</time>
      </trkpt>
      <trkpt lat="50.63462" lon="5.63054">
        <ele>175</ele>
        <time>2025-03-22T17:09:29Z</time>
      </trkpt>
      <trkpt lat="50.63419" lon="5.63135">
        <ele>177</ele>
        <time>2025-03-22T17:09:44Z</time>
      </trkpt>
      <trkpt lat="50.63384" lon="5.6318">
        <ele>178</ele>
        <time>2025-03-22T17:09:55Z</time>
      </trkpt>
      <trkpt lat="50.63318" lon="5.63234">
        <ele>180</ele>
        <time>2025-03-22T17:10:12Z</time>
      </trkpt>
      <trkpt lat="50.63305" lon="5.63235">
        <ele>180</ele>
        <time>2025-03-22T17:10:15Z</time>
      </trkpt>
      <trkpt lat="50.63171" lon="5.63284">
        <ele>183</ele>
        <time>2025-03-22T17:10:47Z</time>
      </trkpt>
      <trkpt lat="50.62843" lon="5.63393">
        <ele>187</ele>
        <time>2025-03-22T17:12:06Z</time>
      </trkpt>
      <trkpt lat="50.62805" lon="5.63414">
        <ele>187</ele>
        <time>2025-03-22T17:12:15Z</time>
      </trkpt>
      <trkpt lat="50.62754" lon="5.63452">
        <ele>187</ele>
        <time>2025-03-22T17:12:28Z</time>
      </trkpt>
      <trkpt lat="50.62691" lon="5.6352">
        <ele>187</ele>
        <time>2025-03-22T17:12:46Z</time>
      </trkpt>
      <trkpt lat="50.62627" lon="5.63611">
        <ele>191</ele>
        <time>2025-03-22T17:13:06Z</time>
      </trkpt>
      <trkpt lat="50.62612" lon="5.63639">
        <ele>192</ele>
        <time>2025-03-22T17:13:12Z</time>
      </trkpt>
      <trkpt lat="50.62576" lon="5.63722">
        <ele>194</ele>
        <time>2025-03-22T17:13:27Z</time>
      </trkpt>
      <trkpt lat="50.62554" lon="5.63799">
        <ele>195</ele>
        <time>2025-03-22T17:13:39Z</time>
      </trkpt>
      <trkpt lat="50.62487" lon="5.64115">
        <ele>203</ele>
        <time>2025-03-22T17:14:28Z</time>
      </trkpt>
      <trkpt lat="50.62477" lon="5.64199">
        <ele>204</ele>
        <time>2025-03-22T17:14:41Z</time>
      </trkpt>
      <trkpt lat="50.62464" lon="5.64504">
        <ele>206</ele>
        <time>2025-03-22T17:15:26Z</time>
      </trkpt>
      <trkpt lat="50.62456" lon="5.64573">
        <ele>206</ele>
        <time>2025-03-22T17:15:37Z</time>
      </trkpt>
      <trkpt lat="50.62445" lon="5.64633">
        <ele>207</ele>
        <time>2025-03-22T17:15:46Z</time>
      </trkpt>
      <trkpt lat="50.62431" lon="5.64688">
        <ele>208</ele>
        <time>2025-03-22T17:15:55Z</time>
      </trkpt>
      <trkpt lat="50.62402" lon="5.64777">
        <ele>212</ele>
        <time>2025-03-22T17:16:10Z</time>
      </trkpt>
      <trkpt lat="50.62382" lon="5.64826">
        <ele>216</ele>
        <time>2025-03-22T17:16:18Z</time>
      </trkpt>
      <trkpt lat="50.62357" lon="5.64873">
        <ele>220</ele>
        <time>2025-03-22T17:16:27Z</time>
      </trkpt>
      <trkpt lat="50.62285" lon="5.64977">
        <ele>224</ele>
        <time>2025-03-22T17:16:50Z</time>
      </trkpt>
      <trkpt lat="50.62241" lon="5.65022">
        <ele>226</ele>
        <time>2025-03-22T17:17:02Z</time>
      </trkpt>
      <trkpt lat="50.62078" lon="5.6515">
        <ele>228</ele>
        <time>2025-03-22T17:17:45Z</time>
      </trkpt>
      <trkpt lat="50.62037" lon="5.65187">
        <ele>229</ele>
        <time>2025-03-22T17:17:56Z</time>
      </trkpt>
      <trkpt lat="50.61975" lon="5.65265">
        <ele>234</ele>
        <time>2025-03-22T17:18:14Z</time>
      </trkpt>
      <trkpt lat="50.61938" lon="5.65332">
        <ele>236</ele>
        <time>2025-03-22T17:18:28Z</time>
      </trkpt>
      <trkpt lat="50.6191" lon="5.65398">
        <ele>237</ele>
        <time>2025-03-22T17:18:39Z</time>
      </trkpt>
      <trkpt lat="50.61842" lon="5.65584">
        <ele>235</ele>
        <time>2025-03-22T17:19:11Z</time>
      </trkpt>
      <trkpt lat="50.61841" lon="5.65602">
        <ele>235</ele>
        <time>2025-03-22T17:19:14Z</time>
      </trkpt>
      <trkpt lat="50.61816" lon="5.65671">
        <ele>234</ele>
        <time>2025-03-22T17:19:26Z</time>
      </trkpt>
      <trkpt lat="50.61803" lon="5.65685">
        <ele>233</ele>
        <time>2025-03-22T17:19:29Z</time>
      </trkpt>
      <trkpt lat="50.61697" lon="5.65987">
        <ele>234</ele>
        <time>2025-03-22T17:20:20Z</time>
      </trkpt>
      <trkpt lat="50.61644" lon="5.66126">
        <ele>240</ele>
        <time>2025-03-22T17:20:44Z</time>
      </trkpt>
      <trkpt lat="50.61647" lon="5.66147">
        <ele>240</ele>
        <time>2025-03-22T17:20:48Z</time>
      </trkpt>
      <trkpt lat="50.61637" lon="5.6616">
        <ele>240</ele>
        <time>2025-03-22T17:20:51Z</time>
      </trkpt>
      <trkpt lat="50.61602" lon="5.66259">
        <ele>242</ele>
        <time>2025-03-22T17:21:07Z</time>
      </trkpt>
      <trkpt lat="50.61552" lon="5.66379">
        <ele>247</ele>
        <time>2025-03-22T17:21:29Z</time>
      </trkpt>
      <trkpt lat="50.61493" lon="5.66496">
        <ele>247</ele>
        <time>2025-03-22T17:21:51Z</time>
      </trkpt>
      <trkpt lat="50.61199" lon="5.67022">
        <ele>256</ele>
        <time>2025-03-22T17:23:35Z</time>
      </trkpt>
      <trkpt lat="50.61197" lon="5.67042">
        <ele>256</ele>
        <time>2025-03-22T17:23:38Z</time>
      </trkpt>
      <trkpt lat="50.61189" lon="5.67044">
        <ele>256</ele>
        <time>2025-03-22T17:23:40Z</time>
      </trkpt>
      <trkpt lat="50.61158" lon="5.67097">
        <ele>256</ele>
        <time>2025-03-22T17:23:50Z</time>
      </trkpt>
      <trkpt lat="50.61133" lon="5.67161">
        <ele>257</ele>
        <time>2025-03-22T17:24:01Z</time>
      </trkpt>
      <trkpt lat="50.61115" lon="5.67216">
        <ele>256</ele>
        <time>2025-03-22T17:24:11Z</time>
      </trkpt>
      <trkpt lat="50.61097" lon="5.67308">
        <ele>257</ele>
        <time>2025-03-22T17:24:25Z</time>
      </trkpt>
      <trkpt lat="50.61088" lon="5.67404">
        <ele>258</ele>
        <time>2025-03-22T17:24:39Z</time>
      </trkpt>
      <trkpt lat="50.61088" lon="5.67469">
        <ele>259</ele>
        <time>2025-03-22T17:24:49Z</time>
      </trkpt>
      <trkpt lat="50.61094" lon="5.67549">
        <ele>260</ele>
        <time>2025-03-22T17:25:01Z</time>
      </trkpt>
      <trkpt lat="50.61107" lon="5.67621">
        <ele>260</ele>
        <time>2025-03-22T17:25:12Z</time>
      </trkpt>
      <trkpt lat="50.61127" lon="5.67692">
        <ele>261</ele>
        <time>2025-03-22T17:25:23Z</time>
      </trkpt>
      <trkpt lat="50.61162" lon="5.67779">
        <ele>263</ele>
        <time>2025-03-22T17:25:39Z</time>
      </trkpt>
      <trkpt lat="50.61218" lon="5.67879">
        <ele>263</ele>
        <time>2025-03-22T17:25:59Z</time>
      </trkpt>
      <trkpt lat="50.61428" lon="5.68211">
        <ele>261</ele>
        <time>2025-03-22T17:27:08Z</time>
      </trkpt>
      <trkpt lat="50.61452" lon="5.68236">
        <ele>261</ele>
        <time>2025-03-22T17:27:15Z</time>
      </trkpt>
      <trkpt lat="50.61468" lon="5.68236">
        <ele>261</ele>
        <time>2025-03-22T17:27:18Z</time>
      </trkpt>
      <trkpt lat="50.61469" lon="5.68244">
        <ele>261</ele>
        <time>2025-03-22T17:27:20Z</time>
      </trkpt>
      <trkpt lat="50.61485" lon="5.68269">
        <ele>261</ele>
        <time>2025-03-22T17:27:25Z</time>
      </trkpt>
      <trkpt lat="50.61481" lon="5.68286">
        <ele>261</ele>
        <time>2025-03-22T17:27:28Z</time>
      </trkpt>
      <trkpt lat="50.61512" lon="5.68332">
        <ele>261</ele>
        <time>2025-03-22T17:27:38Z</time>
      </trkpt>
      <trkpt lat="50.61515" lon="5.68348">
        <ele>261</ele>
        <time>2025-03-22T17:27:40Z</time>
      </trkpt>
      <trkpt lat="50.61662" lon="5.68581">
        <ele>261</ele>
        <time>2025-03-22T17:28:29Z</time>
      </trkpt>
      <trkpt lat="50.61672" lon="5.68589">
        <ele>261</ele>
        <time>2025-03-22T17:28:31Z</time>
      </trkpt>
      <trkpt lat="50.61675" lon="5.68605">
        <ele>261</ele>
        <time>2025-03-22T17:28:34Z</time>
      </trkpt>
      <trkpt lat="50.61689" lon="5.68618">
        <ele>261</ele>
        <time>2025-03-22T17:28:38Z</time>
      </trkpt>
      <trkpt lat="50.61757" lon="5.68735">
        <ele>262</ele>
        <time>2025-03-22T17:29:01Z</time>
      </trkpt>
      <trkpt lat="50.61818" lon="5.68853">
        <ele>262</ele>
        <time>2025-03-22T17:29:24Z</time>
      </trkpt>
      <trkpt lat="50.62058" lon="5.69424">
        <ele>260</ele>
        <time>2025-03-22T17:31:05Z</time>
      </trkpt>
      <trkpt lat="50.62058" lon="5.69434">
        <ele>260</ele>
        <time>2025-03-22T17:31:07Z</time>
      </trkpt>
      <trkpt lat="50.62068" lon="5.69447">
        <ele>260</ele>
        <time>2025-03-22T17:31:10Z</time>
      </trkpt>
      <trkpt lat="50.6227" lon="5.69925">
        <ele>263</ele>
        <time>2025-03-22T17:32:35Z</time>
      </trkpt>
      <trkpt lat="50.6229" lon="5.69985">
        <ele>262</ele>
        <time>2025-03-22T17:32:45Z</time>
      </trkpt>
      <trkpt lat="50.62301" lon="5.69994">
        <ele>262</ele>
        <time>2025-03-22T17:32:48Z</time>
      </trkpt>
      <trkpt lat="50.62359" lon="5.70155">
        <ele>263</ele>
        <time>2025-03-22T17:33:15Z</time>
      </trkpt>
      <trkpt lat="50.627" lon="5.7127">
        <ele>272</ele>
        <time>2025-03-22T17:36:18Z</time>
      </trkpt>
      <trkpt lat="50.62904" lon="5.71922">
        <ele>266</ele>
        <time>2025-03-22T17:38:06Z</time>
      </trkpt>
      <trkpt lat="50.63133" lon="5.72911">
        <ele>274</ele>
        <time>2025-03-22T17:40:42Z</time>
      </trkpt>
      <trkpt lat="50.63145" lon="5.72956">
        <ele>274</ele>
        <time>2025-03-22T17:40:49Z</time>
      </trkpt>
      <trkpt lat="50.63166" lon="5.73005">
        <ele>273</ele>
        <time>2025-03-22T17:40:58Z</time>
      </trkpt>
      <trkpt lat="50.63195" lon="5.73122">
        <ele>274</ele>
        <time>2025-03-22T17:41:17Z</time>
      </trkpt>
      <trkpt lat="50.63195" lon="5.73196">
        <ele>275</ele>
        <time>2025-03-22T17:41:28Z</time>
      </trkpt>
      <trkpt lat="50.63205" lon="5.7325">
        <ele>275</ele>
        <time>2025-03-22T17:41:36Z</time>
      </trkpt>
      <trkpt lat="50.6326" lon="5.73484">
        <ele>276</ele>
        <time>2025-03-22T17:42:13Z</time>
      </trkpt>
      <trkpt lat="50.63277" lon="5.73541">
        <ele>277</ele>
        <time>2025-03-22T17:42:22Z</time>
      </trkpt>
      <trkpt lat="50.63333" lon="5.73783">
        <ele>278</ele>
        <time>2025-03-22T17:43:00Z</time>
      </trkpt>
      <trkpt lat="50.63499" lon="5.74532">
        <ele>278</ele>
        <time>2025-03-22T17:44:58Z</time>
      </trkpt>
      <trkpt lat="50.63509" lon="5.74543">
        <ele>278</ele>
        <time>2025-03-22T17:45:01Z</time>
      </trkpt>
      <trkpt lat="50.63513" lon="5.74558">
        <ele>278</ele>
        <time>2025-03-22T17:45:03Z</time>
      </trkpt>
      <trkpt lat="50.63511" lon="5.74575">
        <ele>278</ele>
        <time>2025-03-22T17:45:06Z</time>
      </trkpt>
      <trkpt lat="50.63516" lon="5.74605">
        <ele>278</ele>
        <time>2025-03-22T17:45:10Z</time>
      </trkpt>
      <trkpt lat="50.63636" lon="5.75131">
        <ele>277</ele>
        <time>2025-03-22T17:46:33Z</time>
      </trkpt>
      <trkpt lat="50.63665" lon="5.75272">
        <ele>278</ele>
        <time>2025-03-22T17:46:55Z</time>
      </trkpt>
      <trkpt lat="50.63681" lon="5.75365">
        <ele>278</ele>
        <time>2025-03-22T17:47:09Z</time>
      </trkpt>
      <trkpt lat="50.63705" lon="5.75545">
        <ele>279</ele>
        <time>2025-03-22T17:47:37Z</time>
      </trkpt>
      <trkpt lat="50.64009" lon="5.78272">
        <ele>299</ele>
        <time>2025-03-22T17:54:27Z</time>
      </trkpt>
      <trkpt lat="50.64041" lon="5.78413">
        <ele>299</ele>
        <time>2025-03-22T17:54:49Z</time>
      </trkpt>
      <trkpt lat="50.64231" lon="5.79058">
        <ele>305</ele>
        <time>2025-03-22T17:56:34Z</time>
      </trkpt>
      <trkpt lat="50.64239" lon="5.79077">
        <ele>305</ele>
        <time>2025-03-22T17:56:38Z</time>
      </trkpt>
      <trkpt lat="50.64247" lon="5.79114">
        <ele>305</ele>
        <time>2025-03-22T17:56:43Z</time>
      </trkpt>
      <trkpt lat="50.64287" lon="5.7922">
        <ele>307</ele>
        <time>2025-03-22T17:57:02Z</time>
      </trkpt>
      <trkpt lat="50.64305" lon="5.79252">
        <ele>308</ele>
        <time>2025-03-22T17:57:08Z</time>
      </trkpt>
      <trkpt lat="50.64335" lon="5.79294">
        <ele>309</ele>
        <time>2025-03-22T17:57:17Z</time>
      </trkpt>
      <trkpt lat="50.64384" lon="5.79338">
        <ele>310</ele>
        <time>2025-03-22T17:57:31Z</time>
      </trkpt>
      <trkpt lat="50.64496" lon="5.79422">
        <ele>309</ele>
        <time>2025-03-22T17:58:00Z</time>
      </trkpt>
      <trkpt lat="50.64567" lon="5.79484">
        <ele>309</ele>
        <time>2025-03-22T17:58:18Z</time>
      </trkpt>
      <trkpt lat="50.64585" lon="5.79504">
        <ele>310</ele>
        <time>2025-03-22T17:58:24Z</time>
      </trkpt>
      <trkpt lat="50.64645" lon="5.79592">
        <ele>309</ele>
        <time>2025-03-22T17:58:43Z</time>
      </trkpt>
      <trkpt lat="50.64668" lon="5.79632">
        <ele>309</ele>
        <time>2025-03-22T17:58:51Z</time>
      </trkpt>
      <trkpt lat="50.64699" lon="5.79706">
        <ele>309</ele>
        <time>2025-03-22T17:59:04Z</time>
      </trkpt>
      <trkpt lat="50.64708" lon="5.79714">
        <ele>308</ele>
        <time>2025-03-22T17:59:06Z</time>
      </trkpt>
      <trkpt lat="50.64707" lon="5.79728">
        <ele>309</ele>
        <time>2025-03-22T17:59:08Z</time>
      </trkpt>
      <trkpt lat="50.64761" lon="5.79909">
        <ele>311</ele>
        <time>2025-03-22T17:59:38Z</time>
      </trkpt>
      <trkpt lat="50.65068" lon="5.80975">
        <ele>318</ele>
        <time>2025-03-22T18:02:31Z</time>
      </trkpt>
      <trkpt lat="50.65073" lon="5.80985">
        <ele>318</ele>
        <time>2025-03-22T18:02:33Z</time>
      </trkpt>
      <trkpt lat="50.6508" lon="5.80987">
        <ele>318</ele>
        <time>2025-03-22T18:02:35Z</time>
      </trkpt>
      <trkpt lat="50.6508" lon="5.81014">
        <ele>318</ele>
        <time>2025-03-22T18:02:39Z</time>
      </trkpt>
      <trkpt lat="50.65188" lon="5.81394">
        <ele>318</ele>
        <time>2025-03-22T18:03:41Z</time>
      </trkpt>
      <trkpt lat="50.6521" lon="5.81516">
        <ele>317</ele>
        <time>2025-03-22T18:03:59Z</time>
      </trkpt>
      <trkpt lat="50.65214" lon="5.81625">
        <ele>317</ele>
        <time>2025-03-22T18:04:16Z</time>
      </trkpt>
      <trkpt lat="50.65213" lon="5.81689">
        <ele>317</ele>
        <time>2025-03-22T18:04:25Z</time>
      </trkpt>
      <trkpt lat="50.65203" lon="5.81799">
        <ele>315</ele>
        <time>2025-03-22T18:04:41Z</time>
      </trkpt>
      <trkpt lat="50.65192" lon="5.81855">
        <ele>315</ele>
        <time>2025-03-22T18:04:50Z</time>
      </trkpt>
      <trkpt lat="50.65171" lon="5.81932">
        <ele>316</ele>
        <time>2025-03-22T18:05:03Z</time>
      </trkpt>
      <trkpt lat="50.6515" lon="5.81998">
        <ele>316</ele>
        <time>2025-03-22T18:05:13Z</time>
      </trkpt>
      <trkpt lat="50.65109" lon="5.82099">
        <ele>318</ele>
        <time>2025-03-22T18:05:31Z</time>
      </trkpt>
      <trkpt lat="50.65193" lon="5.82237">
        <ele>307</ele>
        <time>2025-03-22T18:06:00Z</time>
      </trkpt>
      <trkpt lat="50.65243" lon="5.82369">
        <ele>297</ele>
        <time>2025-03-22T18:06:22Z</time>
      </trkpt>
      <trkpt lat="50.6536" lon="5.82565">
        <ele>279</ele>
        <time>2025-03-22T18:07:02Z</time>
      </trkpt>
      <trkpt lat="50.65481" lon="5.82806">
        <ele>264</ele>
        <time>2025-03-22T18:07:48Z</time>
      </trkpt>
      <trkpt lat="50.65519" lon="5.82868">
        <ele>262</ele>
        <time>2025-03-22T18:08:00Z</time>
      </trkpt>
      <trkpt lat="50.6556" lon="5.82904">
        <ele>261</ele>
        <time>2025-03-22T18:08:11Z</time>
      </trkpt>
      <trkpt lat="50.65615" lon="5.83029">
        <ele>275</ele>
        <time>2025-03-22T18:08:34Z</time>
      </trkpt>
      <trkpt lat="50.65653" lon="5.83066">
        <ele>281</ele>
        <time>2025-03-22T18:08:44Z</time>
      </trkpt>
      <trkpt lat="50.65672" lon="5.83126">
        <ele>284</ele>
        <time>2025-03-22T18:08:54Z</time>
      </trkpt>
      <trkpt lat="50.65731" lon="5.83211">
        <ele>283</ele>
        <time>2025-03-22T18:09:13Z</time>
      </trkpt>
      <trkpt lat="50.65763" lon="5.83229">
        <ele>282</ele>
        <time>2025-03-22T18:09:21Z</time>
      </trkpt>
      <trkpt lat="50.65832" lon="5.83301">
        <ele>277</ele>
        <time>2025-03-22T18:09:40Z</time>
      </trkpt>
      <trkpt lat="50.65934" lon="5.83415">
        <ele>268</ele>
        <time>2025-03-22T18:10:09Z</time>
      </trkpt>
      <trkpt lat="50.66104" lon="5.83665">
        <ele>264</ele>
        <time>2025-03-22T18:11:04Z</time>
      </trkpt>
      <trkpt lat="50.66211" lon="5.83916">
        <ele>257</ele>
        <time>2025-03-22T18:11:48Z</time>
      </trkpt>
      <trkpt lat="50.66263" lon="5.84021">
        <ele>256</ele>
        <time>2025-03-22T18:12:08Z</time>
      </trkpt>
      <trkpt lat="50.66297" lon="5.84022">
        <ele>254</ele>
        <time>2025-03-22T18:12:16Z</time>
      </trkpt>
      <trkpt lat="50.66621" lon="5.83899">
        <ele>241</ele>
        <time>2025-03-22T18:13:34Z</time>
      </trkpt>
      <trkpt lat="50.66808" lon="5.84044">
        <ele>233</ele>
        <time>2025-03-22T18:14:23Z</time>
      </trkpt>
      <trkpt lat="50.6682" lon="5.84077">
        <ele>233</ele>
        <time>2025-03-22T18:14:28Z</time>
      </trkpt>
      <trkpt lat="50.66841" lon="5.84072">
        <ele>232</ele>
        <time>2025-03-22T18:14:33Z</time>
      </trkpt>
      <trkpt lat="50.67072" lon="5.84235">
        <ele>224</ele>
        <time>2025-03-22T18:15:32Z</time>
      </trkpt>
      <trkpt lat="50.67166" lon="5.84319">
        <ele>217</ele>
        <time>2025-03-22T18:15:58Z</time>
      </trkpt>
      <trkpt lat="50.6722" lon="5.84373">
        <ele>213</ele>
        <time>2025-03-22T18:16:12Z</time>
      </trkpt>
      <trkpt lat="50.67341" lon="5.84531">
        <ele>202</ele>
        <time>2025-03-22T18:16:49Z</time>
      </trkpt>
      <trkpt lat="50.67384" lon="5.84572">
        <ele>198</ele>
        <time>2025-03-22T18:17:01Z</time>
      </trkpt>
      <trkpt lat="50.67467" lon="5.84593">
        <ele>194</ele>
        <time>2025-03-22T18:17:21Z</time>
      </trkpt>
      <trkpt lat="50.67549" lon="5.84579">
        <ele>191</ele>
        <time>2025-03-22T18:17:40Z</time>
      </trkpt>
      <trkpt lat="50.67626" lon="5.84572">
        <ele>189</ele>
        <time>2025-03-22T18:17:58Z</time>
      </trkpt>
      <trkpt lat="50.67721" lon="5.84594">
        <ele>188</ele>
        <time>2025-03-22T18:18:20Z</time>
      </trkpt>
      <trkpt lat="50.67758" lon="5.84619">
        <ele>189</ele>
        <time>2025-03-22T18:18:30Z</time>
      </trkpt>
      <trkpt lat="50.67787" lon="5.84668">
        <ele>191</ele>
        <time>2025-03-22T18:18:40Z</time>
      </trkpt>
      <trkpt lat="50.67902" lon="5.84894">
        <ele>197</ele>
        <time>2025-03-22T18:19:22Z</time>
      </trkpt>
      <trkpt lat="50.67989" lon="5.85019">
        <ele>204</ele>
        <time>2025-03-22T18:19:50Z</time>
      </trkpt>
      <trkpt lat="50.67996" lon="5.85036">
        <ele>205</ele>
        <time>2025-03-22T18:19:53Z</time>
      </trkpt>
      <trkpt lat="50.68057" lon="5.85104">
        <ele>210</ele>
        <time>2025-03-22T18:20:10Z</time>
      </trkpt>
      <trkpt lat="50.68095" lon="5.85151">
        <ele>212</ele>
        <time>2025-03-22T18:20:22Z</time>
      </trkpt>
      <trkpt lat="50.68066" lon="5.85247">
        <ele>215</ele>
        <time>2025-03-22T18:20:37Z</time>
      </trkpt>
      <trkpt lat="50.68057" lon="5.85284">
        <ele>216</ele>
        <time>2025-03-22T18:20:43Z</time>
      </trkpt>
      <trkpt lat="50.68064" lon="5.85286">
        <ele>216</ele>
        <time>2025-03-22T18:20:45Z</time>
      </trkpt>
      <trkpt lat="50.68071" lon="5.8528">
        <ele>216</ele>
        <time>2025-03-22T18:20:47Z</time>
      </trkpt>
      <trkpt lat="50.68149" lon="5.85266">
        <ele>216</ele>
        <time>2025-03-22T18:21:05Z</time>
      </trkpt>
      <trkpt lat="50.68213" lon="5.8526">
        <ele>215</ele>
        <time>2025-03-22T18:21:20Z</time>
      </trkpt>
      <trkpt lat="50.68248" lon="5.85263">
        <ele>214</ele>
        <time>2025-03-22T18:21:28Z</time>
      </trkpt>
      <trkpt lat="50.68307" lon="5.85276">
        <ele>212</ele>
        <time>2025-03-22T18:21:42Z</time>
      </trkpt>
      <trkpt lat="50.68342" lon="5.85289">
        <ele>210</ele>
        <time>2025-03-22T18:21:51Z</time>
      </trkpt>
      <trkpt lat="50.68786" lon="5.85489">
        <ele>198</ele>
        <time>2025-03-22T18:23:38Z</time>
      </trkpt>
      <trkpt lat="50.68823" lon="5.85501">
        <ele>202</ele>
        <time>2025-03-22T18:23:47Z</time>
      </trkpt>
      <trkpt lat="50.68872" lon="5.85509">
        <ele>205</ele>
        <time>2025-03-22T18:23:59Z</time>
      </trkpt>
      <trkpt lat="50.6908" lon="5.85525">
        <ele>209</ele>
        <time>2025-03-22T18:24:47Z</time>
      </trkpt>
      <trkpt lat="50.69636" lon="5.85607">
        <ele>220</ele>
        <time>2025-03-22T18:26:58Z</time>
      </trkpt>
      <trkpt lat="50.69684" lon="5.85619">
        <ele>222</ele>
        <time>2025-03-22T18:27:09Z</time>
      </trkpt>
      <trkpt lat="50.69724" lon="5.85639">
        <ele>223</ele>
        <time>2025-03-22T18:27:19Z</time>
      </trkpt>
      <trkpt lat="50.6976" lon="5.85663">
        <ele>224</ele>
        <time>2025-03-22T18:27:28Z</time>
      </trkpt>
      <trkpt lat="50.69797" lon="5.85697">
        <ele>226</ele>
        <time>2025-03-22T18:27:38Z</time>
      </trkpt>
      <trkpt lat="50.69831" lon="5.85735">
        <ele>228</ele>
        <time>2025-03-22T18:27:48Z</time>
      </trkpt>
      <trkpt lat="50.69873" lon="5.85807">
        <ele>229</ele>
        <time>2025-03-22T18:28:02Z</time>
      </trkpt>
      <trkpt lat="50.69944" lon="5.85954">
        <ele>233</ele>
        <time>2025-03-22T18:28:30Z</time>
      </trkpt>
      <trkpt lat="50.69986" lon="5.86035">
        <ele>236</ele>
        <time>2025-03-22T18:28:45Z</time>
      </trkpt>
      <trkpt lat="50.70039" lon="5.86109">
        <ele>240</ele>
        <time>2025-03-22T18:29:02Z</time>
      </trkpt>
      <trkpt lat="50.70091" lon="5.86165">
        <ele>241</ele>
        <time>2025-03-22T18:29:16Z</time>
      </trkpt>
      <trkpt lat="50.70121" lon="5.8619">
        <ele>241</ele>
        <time>2025-03-22T18:29:24Z</time>
      </trkpt>
      <trkpt lat="50.70173" lon="5.86224">
        <ele>242</ele>
        <time>2025-03-22T18:29:37Z</time>
      </trkpt>
      <trkpt lat="50.70262" lon="5.86265">
        <ele>240</ele>
        <time>2025-03-22T18:29:59Z</time>
      </trkpt>
      <trkpt lat="50.70275" lon="5.86266">
        <ele>239</ele>
        <time>2025-03-22T18:30:02Z</time>
      </trkpt>
      <trkpt lat="50.70289" lon="5.86278">
        <ele>239</ele>
        <time>2025-03-22T18:30:06Z</time>
      </trkpt>
      <trkpt lat="50.70616" lon="5.864">
        <ele>241</ele>
        <time>2025-03-22T18:31:24Z</time>
      </trkpt>
      <trkpt lat="50.7068" lon="5.8643">
        <ele>244</ele>
        <time>2025-03-22T18:31:40Z</time>
      </trkpt>
      <trkpt lat="50.70717" lon="5.86458">
        <ele>245</ele>
        <time>2025-03-22T18:31:49Z</time>
      </trkpt>
      <trkpt lat="50.70746" lon="5.86496">
        <ele>247</ele>
        <time>2025-03-22T18:31:58Z</time>
      </trkpt>
      <trkpt lat="50.70782" lon="5.86549">
        <ele>245</ele>
        <time>2025-03-22T18:32:10Z</time>
      </trkpt>
      <trkpt lat="50.70811" lon="5.86608">
        <ele>242</ele>
        <time>2025-03-22T18:32:21Z</time>
      </trkpt>
      <trkpt lat="50.70841" lon="5.86703">
        <ele>240</ele>
        <time>2025-03-22T18:32:36Z</time>
      </trkpt>
      <trkpt lat="50.70848" lon="5.86789">
        <ele>240</ele>
        <time>2025-03-22T18:32:49Z</time>
      </trkpt>
      <trkpt lat="50.70849" lon="5.8684">
        <ele>240</ele>
        <time>2025-03-22T18:32:57Z</time>
      </trkpt>
      <trkpt lat="50.70842" lon="5.86927">
        <ele>242</ele>
        <time>2025-03-22T18:33:10Z</time>
      </trkpt>
      <trkpt lat="50.70794" lon="5.87274">
        <ele>250</ele>
        <time>2025-03-22T18:34:02Z</time>
      </trkpt>
      <trkpt lat="50.70786" lon="5.87392">
        <ele>254</ele>
        <time>2025-03-22T18:34:20Z</time>
      </trkpt>
      <trkpt lat="50.70786" lon="5.87572">
        <ele>257</ele>
        <time>2025-03-22T18:34:46Z</time>
      </trkpt>
      <trkpt lat="50.70791" lon="5.87649">
        <ele>258</ele>
        <time>2025-03-22T18:34:58Z</time>
      </trkpt>
      <trkpt lat="50.70807" lon="5.87793">
        <ele>261</ele>
        <time>2025-03-22T18:35:20Z</time>
      </trkpt>
      <trkpt lat="50.70829" lon="5.87918">
        <ele>263</ele>
        <time>2025-03-22T18:35:39Z</time>
      </trkpt>
      <trkpt lat="50.70865" lon="5.88045">
        <ele>266</ele>
        <time>2025-03-22T18:35:59Z</time>
      </trkpt>
      <trkpt lat="50.70914" lon="5.88166">
        <ele>272</ele>
        <time>2025-03-22T18:36:21Z</time>
      </trkpt>
      <trkpt lat="50.70942" lon="5.88219">
        <ele>274</ele>
        <time>2025-03-22T18:36:31Z</time>
      </trkpt>
      <trkpt lat="50.70982" lon="5.88278">
        <ele>278</ele>
        <time>2025-03-22T18:36:44Z</time>
      </trkpt>
      <trkpt lat="50.71081" lon="5.8839">
        <ele>276</ele>
        <time>2025-03-22T18:37:12Z</time>
      </trkpt>
      <trkpt lat="50.71137" lon="5.88443">
        <ele>272</ele>
        <time>2025-03-22T18:37:27Z</time>
      </trkpt>
      <trkpt lat="50.71373" lon="5.88687">
        <ele>263</ele>
        <time>2025-03-22T18:38:33Z</time>
      </trkpt>
      <trkpt lat="50.71494" lon="5.88843">
        <ele>262</ele>
        <time>2025-03-22T18:39:10Z</time>
      </trkpt>
      <trkpt lat="50.71587" lon="5.89002">
        <ele>256</ele>
        <time>2025-03-22T18:39:42Z</time>
      </trkpt>
      <trkpt lat="50.71732" lon="5.89269">
        <ele>255</ele>
        <time>2025-03-22T18:40:34Z</time>
      </trkpt>
      <trkpt lat="50.71769" lon="5.89333">
        <ele>249</ele>
        <time>2025-03-22T18:40:46Z</time>
      </trkpt>
      <trkpt lat="50.71816" lon="5.89394">
        <ele>244</ele>
        <time>2025-03-22T18:41:01Z</time>
      </trkpt>
      <trkpt lat="50.71877" lon="5.89454">
        <ele>243</ele>
        <time>2025-03-22T18:41:17Z</time>
      </trkpt>
      <trkpt lat="50.72006" lon="5.89538">
        <ele>240</ele>
        <time>2025-03-22T18:41:50Z</time>
      </trkpt>
      <trkpt lat="50.72102" lon="5.89588">
        <ele>237</ele>
        <time>2025-03-22T18:42:14Z</time>
      </trkpt>
      <trkpt lat="50.72133" lon="5.89618">
        <ele>236</ele>
        <time>2025-03-22T18:42:22Z</time>
      </trkpt>
      <trkpt lat="50.72165" lon="5.8966">
        <ele>236</ele>
        <time>2025-03-22T18:42:32Z</time>
      </trkpt>
      <trkpt lat="50.72206" lon="5.89731">
        <ele>235</ele>
        <time>2025-03-22T18:42:46Z</time>
      </trkpt>
      <trkpt lat="50.72228" lon="5.89794">
        <ele>236</ele>
        <time>2025-03-22T18:42:57Z</time>
      </trkpt>
      <trkpt lat="50.72247" lon="5.89899">
        <ele>238</ele>
        <time>2025-03-22T18:43:13Z</time>
      </trkpt>
      <trkpt lat="50.72251" lon="5.89964">
        <ele>237</ele>
        <time>2025-03-22T18:43:22Z</time>
      </trkpt>
      <trkpt lat="50.7225" lon="5.90009">
        <ele>237</ele>
        <time>2025-03-22T18:43:29Z</time>
      </trkpt>
      <trkpt lat="50.72241" lon="5.90082">
        <ele>233</ele>
        <time>2025-03-22T18:43:40Z</time>
      </trkpt>
      <trkpt lat="50.72216" lon="5.90181">
        <ele>229</ele>
        <time>2025-03-22T18:43:56Z</time>
      </trkpt>
      <trkpt lat="50.72196" lon="5.9023">
        <ele>228</ele>
        <time>2025-03-22T18:44:04Z</time>
      </trkpt>
      <trkpt lat="50.72048" lon="5.90479">
        <ele>219</ele>
        <time>2025-03-22T18:44:55Z</time>
      </trkpt>
      <trkpt lat="50.71907" lon="5.90724">
        <ele>224</ele>
        <time>2025-03-22T18:45:44Z</time>
      </trkpt>
      <trkpt lat="50.7189" lon="5.90768">
        <ele>222</ele>
        <time>2025-03-22T18:45:52Z</time>
      </trkpt>
      <trkpt lat="50.71872" lon="5.90825">
        <ele>221</ele>
        <time>2025-03-22T18:46:01Z</time>
      </trkpt>
      <trkpt lat="50.71863" lon="5.9087">
        <ele>219</ele>
        <time>2025-03-22T18:46:08Z</time>
      </trkpt>
      <trkpt lat="50.71854" lon="5.90953">
        <ele>217</ele>
        <time>2025-03-22T18:46:20Z</time>
      </trkpt>
      <trkpt lat="50.71857" lon="5.91062">
        <ele>216</ele>
        <time>2025-03-22T18:46:37Z</time>
      </trkpt>
      <trkpt lat="50.71865" lon="5.9111">
        <ele>214</ele>
        <time>2025-03-22T18:46:44Z</time>
      </trkpt>
      <trkpt lat="50.71882" lon="5.9117">
        <ele>212</ele>
        <time>2025-03-22T18:46:54Z</time>
      </trkpt>
      <trkpt lat="50.71918" lon="5.91259">
        <ele>210</ele>
        <time>2025-03-22T18:47:09Z</time>
      </trkpt>
      <trkpt lat="50.71949" lon="5.91308">
        <ele>210</ele>
        <time>2025-03-22T18:47:19Z</time>
      </trkpt>
      <trkpt lat="50.72" lon="5.91362">
        <ele>211</ele>
        <time>2025-03-22T18:47:34Z</time>
      </trkpt>
      <trkpt lat="50.72032" lon="5.91384">
        <ele>211</ele>
        <time>2025-03-22T18:47:42Z</time>
      </trkpt>
      <trkpt lat="50.7211" lon="5.91407">
        <ele>211</ele>
        <time>2025-03-22T18:48:00Z</time>
      </trkpt>
      <trkpt lat="50.72156" lon="5.91404">
        <ele>211</ele>
        <time>2025-03-22T18:48:11Z</time>
      </trkpt>
      <trkpt lat="50.72197" lon="5.91389">
        <ele>213</ele>
        <time>2025-03-22T18:48:21Z</time>
      </trkpt>
      <trkpt lat="50.72197" lon="5.91362">
        <ele>211</ele>
        <time>2025-03-22T18:48:25Z</time>
      </trkpt>
      <trkpt lat="50.72563" lon="5.91108">
        <ele>213</ele>
        <time>2025-03-22T18:49:58Z</time>
      </trkpt>
      <trkpt lat="50.72608" lon="5.91083">
        <ele>212</ele>
        <time>2025-03-22T18:50:10Z</time>
      </trkpt>
      <trkpt lat="50.7266" lon="5.91062">
        <ele>213</ele>
        <time>2025-03-22T18:50:22Z</time>
      </trkpt>
      <trkpt lat="50.72729" lon="5.91059">
        <ele>212</ele>
        <time>2025-03-22T18:50:38Z</time>
      </trkpt>
      <trkpt lat="50.72756" lon="5.91063">
        <ele>212</ele>
        <time>2025-03-22T18:50:44Z</time>
      </trkpt>
      <trkpt lat="50.72783" lon="5.91075">
        <ele>213</ele>
        <time>2025-03-22T18:50:51Z</time>
      </trkpt>
      <trkpt lat="50.72849" lon="5.91119">
        <ele>217</ele>
        <time>2025-03-22T18:51:08Z</time>
      </trkpt>
      <trkpt lat="50.72881" lon="5.91149">
        <ele>223</ele>
        <time>2025-03-22T18:51:16Z</time>
      </trkpt>
      <trkpt lat="50.72923" lon="5.91207">
        <ele>229</ele>
        <time>2025-03-22T18:51:29Z</time>
      </trkpt>
      <trkpt lat="50.72966" lon="5.91303">
        <ele>231</ele>
        <time>2025-03-22T18:51:47Z</time>
      </trkpt>
      <trkpt lat="50.72983" lon="5.91384">
        <ele>229</ele>
        <time>2025-03-22T18:51:59Z</time>
      </trkpt>
      <trkpt lat="50.72994" lon="5.91468">
        <ele>224</ele>
        <time>2025-03-22T18:52:12Z</time>
      </trkpt>
      <trkpt lat="50.72991" lon="5.91583">
        <ele>222</ele>
        <time>2025-03-22T18:52:29Z</time>
      </trkpt>
      <trkpt lat="50.72983" lon="5.91633">
        <ele>220</ele>
        <time>2025-03-22T18:52:37Z</time>
      </trkpt>
      <trkpt lat="50.72967" lon="5.91687">
        <ele>218</ele>
        <time>2025-03-22T18:52:46Z</time>
      </trkpt>
      <trkpt lat="50.7296" lon="5.91719">
        <ele>217</ele>
        <time>2025-03-22T18:52:51Z</time>
      </trkpt>
      <trkpt lat="50.73011" lon="5.91756">
        <ele>213</ele>
        <time>2025-03-22T18:53:04Z</time>
      </trkpt>
      <trkpt lat="50.73029" lon="5.91755">
        <ele>213</ele>
        <time>2025-03-22T18:53:08Z</time>
      </trkpt>
      <trkpt lat="50.73034" lon="5.91783">
        <ele>211</ele>
        <time>2025-03-22T18:53:12Z</time>
      </trkpt>
      <trkpt lat="50.73022" lon="5.91967">
        <ele>204</ele>
        <time>2025-03-22T18:53:40Z</time>
      </trkpt>
      <trkpt lat="50.73027" lon="5.92">
        <ele>203</ele>
        <time>2025-03-22T18:53:45Z</time>
      </trkpt>
      <trkpt lat="50.73042" lon="5.91998">
        <ele>203</ele>
        <time>2025-03-22T18:53:48Z</time>
      </trkpt>
      <trkpt lat="50.73065" lon="5.92003">
        <ele>202</ele>
        <time>2025-03-22T18:53:54Z</time>
      </trkpt>
      <trkpt lat="50.73118" lon="5.92042">
        <ele>201</ele>
        <time>2025-03-22T18:54:07Z</time>
      </trkpt>
      <trkpt lat="50.7314" lon="5.92071">
        <ele>199</ele>
        <time>2025-03-22T18:54:14Z</time>
      </trkpt>
      <trkpt lat="50.73182" lon="5.92192">
        <ele>193</ele>
        <time>2025-03-22T18:54:34Z</time>
      </trkpt>
      <trkpt lat="50.73203" lon="5.92232">
        <ele>192</ele>
        <time>2025-03-22T18:54:42Z</time>
      </trkpt>
      <trkpt lat="50.73284" lon="5.92343">
        <ele>192</ele>
        <time>2025-03-22T18:55:07Z</time>
      </trkpt>
      <trkpt lat="50.73299" lon="5.92356">
        <ele>191</ele>
        <time>2025-03-22T18:55:11Z</time>
      </trkpt>
      <trkpt lat="50.73717" lon="5.92522">
        <ele>187</ele>
        <time>2025-03-22T18:56:52Z</time>
      </trkpt>
      <trkpt lat="50.73754" lon="5.92618">
        <ele>184</ele>
        <time>2025-03-22T18:57:08Z</time>
      </trkpt>
      <trkpt lat="50.73849" lon="5.92916">
        <ele>178</ele>
        <time>2025-03-22T18:57:58Z</time>
      </trkpt>
      <trkpt lat="50.73906" lon="5.93081">
        <ele>178</ele>
        <time>2025-03-22T18:58:25Z</time>
      </trkpt>
      <trkpt lat="50.73946" lon="5.93163">
        <ele>174</ele>
        <time>2025-03-22T18:58:41Z</time>
      </trkpt>
      <trkpt lat="50.73991" lon="5.93238">
        <ele>171</ele>
        <time>2025-03-22T18:58:56Z</time>
      </trkpt>
      <trkpt lat="50.74038" lon="5.93309">
        <ele>167</ele>
        <time>2025-03-22T18:59:11Z</time>
      </trkpt>
      <trkpt lat="50.74079" lon="5.93363">
        <ele>164</ele>
        <time>2025-03-22T18:59:24Z</time>
      </trkpt>
      <trkpt lat="50.74104" lon="5.93384">
        <ele>163</ele>
        <time>2025-03-22T18:59:30Z</time>
      </trkpt>
      <trkpt lat="50.74218" lon="5.93461">
        <ele>160</ele>
        <time>2025-03-22T18:59:59Z</time>
      </trkpt>
      <trkpt lat="50.74286" lon="5.93504">
        <ele>160</ele>
        <time>2025-03-22T19:00:16Z</time>
      </trkpt>
      <trkpt lat="50.74397" lon="5.93564">
        <ele>161</ele>
        <time>2025-03-22T19:00:44Z</time>
      </trkpt>
      <trkpt lat="50.74424" lon="5.93593">
        <ele>161</ele>
        <time>2025-03-22T19:00:51Z</time>
      </trkpt>
      <trkpt lat="50.74471" lon="5.93699">
        <ele>159</ele>
        <time>2025-03-22T19:01:10Z</time>
      </trkpt>
      <trkpt lat="50.74536" lon="5.9383">
        <ele>158</ele>
        <time>2025-03-22T19:01:35Z</time>
      </trkpt>
      <trkpt lat="50.7458" lon="5.93781">
        <ele>156</ele>
        <time>2025-03-22T19:01:48Z</time>
      </trkpt>
      <trkpt lat="50.74706" lon="5.93598">
        <ele>149</ele>
        <time>2025-03-22T19:02:28Z</time>
      </trkpt>
      <trkpt lat="50.74727" lon="5.9358">
        <ele>148</ele>
        <time>2025-03-22T19:02:33Z</time>
      </trkpt>
      <trkpt lat="50.74745" lon="5.93574">
        <ele>148</ele>
        <time>2025-03-22T19:02:37Z</time>
      </trkpt>
      <trkpt lat="50.7477" lon="5.93577">
        <ele>147</ele>
        <time>2025-03-22T19:02:43Z</time>
      </trkpt>
      <trkpt lat="50.74906" lon="5.93624">
        <ele>142</ele>
        <time>2025-03-22T19:03:16Z</time>
      </trkpt>
      <trkpt lat="50.74923" lon="5.93624">
        <ele>142</ele>
        <time>2025-03-22T19:03:20Z</time>
      </trkpt>
      <trkpt lat="50.74973" lon="5.93588">
        <ele>141</ele>
        <time>2025-03-22T19:03:33Z</time>
      </trkpt>
      <trkpt lat="50.75044" lon="5.93524">
        <ele>146</ele>
        <time>2025-03-22T19:03:52Z</time>
      </trkpt>
      <trkpt lat="50.75058" lon="5.93504">
        <ele>148</ele>
        <time>2025-03-22T19:03:56Z</time>
      </trkpt>
      <trkpt lat="50.75064" lon="5.93484">
        <ele>149</ele>
        <time>2025-03-22T19:03:59Z</time>
      </trkpt>
      <trkpt lat="50.7507" lon="5.93444">
        <ele>152</ele>
        <time>2025-03-22T19:04:05Z</time>
      </trkpt>
      <trkpt lat="50.75072" lon="5.93396">
        <ele>155</ele>
        <time>2025-03-22T19:04:13Z</time>
      </trkpt>
      <trkpt lat="50.75077" lon="5.93367">
        <ele>156</ele>
        <time>2025-03-22T19:04:17Z</time>
      </trkpt>
      <trkpt lat="50.75091" lon="5.93374">
        <ele>155</ele>
        <time>2025-03-22T19:04:20Z</time>
      </trkpt>
      <trkpt lat="50.75116" lon="5.93371">
        <ele>154</ele>
        <time>2025-03-22T19:04:26Z</time>
      </trkpt>
      <trkpt lat="50.75145" lon="5.93441">
        <ele>148</ele>
        <time>2025-03-22T19:04:39Z</time>
      </trkpt>
      <trkpt lat="50.75167" lon="5.93437">
        <ele>146</ele>
        <time>2025-03-22T19:04:44Z</time>
      </trkpt>
      <trkpt lat="50.75195" lon="5.93437">
        <ele>145</ele>
        <time>2025-03-22T19:04:50Z</time>
      </trkpt>
      <trkpt lat="50.75256" lon="5.93445">
        <ele>142</ele>
        <time>2025-03-22T19:05:05Z</time>
      </trkpt>
      <trkpt lat="50.75315" lon="5.93469">
        <ele>140</ele>
        <time>2025-03-22T19:05:19Z</time>
      </trkpt>
      <trkpt lat="50.75347" lon="5.93467">
        <ele>140</ele>
        <time>2025-03-22T19:05:26Z</time>
      </trkpt>
      <trkpt lat="50.75361" lon="5.93496">
        <ele>137</ele>
        <time>2025-03-22T19:05:32Z</time>
      </trkpt>
      <trkpt lat="50.75393" lon="5.93521">
        <ele>134</ele>
        <time>2025-03-22T19:05:40Z</time>
      </trkpt>
      <trkpt lat="50.7548" lon="5.93634">
        <ele>128</ele>
        <time>2025-03-22T19:06:06Z</time>
      </trkpt>
      <trkpt lat="50.75516" lon="5.9365">
        <ele>127</ele>
        <time>2025-03-22T19:06:15Z</time>
      </trkpt>
      <trkpt lat="50.75552" lon="5.93698">
        <ele>124</ele>
        <time>2025-03-22T19:06:26Z</time>
      </trkpt>
      <trkpt lat="50.7557" lon="5.93709">
        <ele>124</ele>
        <time>2025-03-22T19:06:31Z</time>
      </trkpt>
      <trkpt lat="50.75594" lon="5.93728">
        <ele>123</ele>
        <time>2025-03-22T19:06:37Z</time>
      </trkpt>
      <trkpt lat="50.75628" lon="5.93698">
        <ele>123</ele>
        <time>2025-03-22T19:06:46Z</time>
      </trkpt>
      <trkpt lat="50.75632" lon="5.93706">
        <ele>123</ele>
        <time>2025-03-22T19:06:47Z</time>
      </trkpt>
      <trkpt lat="50.75632" lon="5.93727">
        <ele>123</ele>
        <time>2025-03-22T19:06:51Z</time>
      </trkpt>
      <trkpt lat="50.75641" lon="5.93773">
        <ele>122</ele>
        <time>2025-03-22T19:06:58Z</time>
      </trkpt>
      <trkpt lat="50.75646" lon="5.93786">
        <ele>123</ele>
        <time>2025-03-22T19:07:00Z</time>
      </trkpt>
      <trkpt lat="50.75641" lon="5.93828">
        <ele>123</ele>
        <time>2025-03-22T19:07:06Z</time>
      </trkpt>
    </trkseg>
  </trk>
  <trk>
    <name><![CDATA[jour_1_4_44km_sans_fin_ni_debut_4_pays]]></name>
    <extensions>
      <line xmlns="http://www.topografix.com/GPX/gpx_style/0/2">
        <color>00FFFF</color>
        <width>4</width>
      </line>
    </extensions>
    <trkseg>
      <trkpt lat="50.62459" lon="5.56676">
        <ele>69</ele>
        <time>2025-04-21T08:44:18Z</time>
      </trkpt>
      <trkpt lat="50.62478" lon="5.56758">
        <ele>65</ele>
        <time>2025-04-21T08:44:31Z</time>
      </trkpt>
      <trkpt lat="50.62439" lon="5.56826">
        <ele>67</ele>
        <time>2025-04-21T08:44:45Z</time>
      </trkpt>
      <trkpt lat="50.62514" lon="5.56895">
        <ele>67</ele>
        <time>2025-04-21T08:45:05Z</time>
      </trkpt>
      <trkpt lat="50.62536" lon="5.56923">
        <ele>67</ele>
        <time>2025-04-21T08:45:11Z</time>
      </trkpt>
      <trkpt lat="50.62626" lon="5.57087">
        <ele>66</ele>
        <time>2025-04-21T08:45:44Z</time>
      </trkpt>
      <trkpt lat="50.62753" lon="5.5727">
        <ele>70</ele>
        <time>2025-04-21T08:46:24Z</time>
      </trkpt>
      <trkpt lat="50.62768" lon="5.57303">
        <ele>67</ele>
        <time>2025-04-21T08:46:30Z</time>
      </trkpt>
      <trkpt lat="50.62761" lon="5.57312">
        <ele>67</ele>
        <time>2025-04-21T08:46:32Z</time>
      </trkpt>
      <trkpt lat="50.62781" lon="5.57369">
        <ele>61</ele>
        <time>2025-04-21T08:46:41Z</time>
      </trkpt>
      <trkpt lat="50.62865" lon="5.57542">
        <ele>65</ele>
        <time>2025-04-21T08:47:14Z</time>
      </trkpt>
      <trkpt lat="50.62848" lon="5.5756">
        <ele>66</ele>
        <time>2025-04-21T08:47:19Z</time>
      </trkpt>
      <trkpt lat="50.6279" lon="5.576">
        <ele>72</ele>
        <time>2025-04-21T08:47:33Z</time>
      </trkpt>
      <trkpt lat="50.62769" lon="5.57586">
        <ele>73</ele>
        <time>2025-04-21T08:47:39Z</time>
      </trkpt>
      <trkpt lat="50.62757" lon="5.57585">
        <ele>74</ele>
        <time>2025-04-21T08:47:41Z</time>
      </trkpt>
      <trkpt lat="50.62708" lon="5.57618">
        <ele>69</ele>
        <time>2025-04-21T08:47:54Z</time>
      </trkpt>
      <trkpt lat="50.62562" lon="5.57732">
        <ele>65</ele>
        <time>2025-04-21T08:48:32Z</time>
      </trkpt>
      <trkpt lat="50.62546" lon="5.57761">
        <ele>66</ele>
        <time>2025-04-21T08:48:38Z</time>
      </trkpt>
      <trkpt lat="50.62497" lon="5.57793">
        <ele>66</ele>
        <time>2025-04-21T08:48:50Z</time>
      </trkpt>
      <trkpt lat="50.62488" lon="5.57807">
        <ele>67</ele>
        <time>2025-04-21T08:48:53Z</time>
      </trkpt>
      <trkpt lat="50.62484" lon="5.57832">
        <ele>67</ele>
        <time>2025-04-21T08:48:57Z</time>
      </trkpt>
      <trkpt lat="50.625" lon="5.57977">
        <ele>66</ele>
        <time>2025-04-21T08:49:19Z</time>
      </trkpt>
      <trkpt lat="50.62425" lon="5.57984">
        <ele>63</ele>
        <time>2025-04-21T08:49:36Z</time>
      </trkpt>
      <trkpt lat="50.62398" lon="5.57993">
        <ele>62</ele>
        <time>2025-04-21T08:49:43Z</time>
      </trkpt>
      <trkpt lat="50.62364" lon="5.58012">
        <ele>61</ele>
        <time>2025-04-21T08:49:51Z</time>
      </trkpt>
      <trkpt lat="50.62331" lon="5.58038">
        <ele>61</ele>
        <time>2025-04-21T08:50:00Z</time>
      </trkpt>
      <trkpt lat="50.62281" lon="5.58093">
        <ele>62</ele>
        <time>2025-04-21T08:50:14Z</time>
      </trkpt>
      <trkpt lat="50.6228" lon="5.58103">
        <ele>63</ele>
        <time>2025-04-21T08:50:15Z</time>
      </trkpt>
      <trkpt lat="50.62223" lon="5.58216">
        <ele>66</ele>
        <time>2025-04-21T08:50:37Z</time>
      </trkpt>
      <trkpt lat="50.62212" lon="5.58221">
        <ele>65</ele>
        <time>2025-04-21T08:50:39Z</time>
      </trkpt>
      <trkpt lat="50.62206" lon="5.58229">
        <ele>65</ele>
        <time>2025-04-21T08:50:41Z</time>
      </trkpt>
      <trkpt lat="50.62197" lon="5.58249">
        <ele>66</ele>
        <time>2025-04-21T08:50:45Z</time>
      </trkpt>
      <trkpt lat="50.62162" lon="5.58342">
        <ele>69</ele>
        <time>2025-04-21T08:51:01Z</time>
      </trkpt>
      <trkpt lat="50.6216" lon="5.5836">
        <ele>69</ele>
        <time>2025-04-21T08:51:04Z</time>
      </trkpt>
      <trkpt lat="50.62042" lon="5.58702">
        <ele>65</ele>
        <time>2025-04-21T08:52:01Z</time>
      </trkpt>
      <trkpt lat="50.62011" lon="5.58803">
        <ele>66</ele>
        <time>2025-04-21T08:52:18Z</time>
      </trkpt>
      <trkpt lat="50.61961" lon="5.58935">
        <ele>69</ele>
        <time>2025-04-21T08:52:41Z</time>
      </trkpt>
      <trkpt lat="50.6192" lon="5.59032">
        <ele>70</ele>
        <time>2025-04-21T08:52:58Z</time>
      </trkpt>
      <trkpt lat="50.61833" lon="5.59211">
        <ele>64</ele>
        <time>2025-04-21T08:53:31Z</time>
      </trkpt>
      <trkpt lat="50.61821" lon="5.59222">
        <ele>64</ele>
        <time>2025-04-21T08:53:35Z</time>
      </trkpt>
      <trkpt lat="50.61762" lon="5.59153">
        <ele>65</ele>
        <time>2025-04-21T08:53:52Z</time>
      </trkpt>
      <trkpt lat="50.61703" lon="5.59281">
        <ele>70</ele>
        <time>2025-04-21T08:54:15Z</time>
      </trkpt>
      <trkpt lat="50.61628" lon="5.59468">
        <ele>72</ele>
        <time>2025-04-21T08:54:48Z</time>
      </trkpt>
      <trkpt lat="50.61571" lon="5.59655">
        <ele>67</ele>
        <time>2025-04-21T08:55:19Z</time>
      </trkpt>
      <trkpt lat="50.61505" lon="5.59902">
        <ele>64</ele>
        <time>2025-04-21T08:55:58Z</time>
      </trkpt>
      <trkpt lat="50.61487" lon="5.59983">
        <ele>64</ele>
        <time>2025-04-21T08:56:11Z</time>
      </trkpt>
      <trkpt lat="50.61482" lon="5.6004">
        <ele>64</ele>
        <time>2025-04-21T08:56:20Z</time>
      </trkpt>
      <trkpt lat="50.61473" lon="5.60093">
        <ele>65</ele>
        <time>2025-04-21T08:56:28Z</time>
      </trkpt>
      <trkpt lat="50.61455" lon="5.60131">
        <ele>65</ele>
        <time>2025-04-21T08:56:35Z</time>
      </trkpt>
      <trkpt lat="50.61448" lon="5.60184">
        <ele>66</ele>
        <time>2025-04-21T08:56:43Z</time>
      </trkpt>
      <trkpt lat="50.61428" lon="5.60195">
        <ele>67</ele>
        <time>2025-04-21T08:56:48Z</time>
      </trkpt>
      <trkpt lat="50.6141" lon="5.60246">
        <ele>68</ele>
        <time>2025-04-21T08:56:56Z</time>
      </trkpt>
      <trkpt lat="50.61152" lon="5.61203">
        <ele>65</ele>
        <time>2025-04-21T08:59:31Z</time>
      </trkpt>
      <trkpt lat="50.61127" lon="5.6119">
        <ele>64</ele>
        <time>2025-04-21T08:59:37Z</time>
      </trkpt>
      <trkpt lat="50.61118" lon="5.61224">
        <ele>65</ele>
        <time>2025-04-21T08:59:42Z</time>
      </trkpt>
      <trkpt lat="50.61108" lon="5.61238">
        <ele>65</ele>
        <time>2025-04-21T08:59:45Z</time>
      </trkpt>
      <trkpt lat="50.61093" lon="5.61248">
        <ele>64</ele>
        <time>2025-04-21T08:59:49Z</time>
      </trkpt>
      <trkpt lat="50.61074" lon="5.61252">
        <ele>64</ele>
        <time>2025-04-21T08:59:54Z</time>
      </trkpt>
      <trkpt lat="50.61052" lon="5.6125">
        <ele>65</ele>
        <time>2025-04-21T08:59:59Z</time>
      </trkpt>
      <trkpt lat="50.60952" lon="5.61221">
        <ele>67</ele>
        <time>2025-04-21T09:00:22Z</time>
      </trkpt>
      <trkpt lat="50.60892" lon="5.61197">
        <ele>68</ele>
        <time>2025-04-21T09:00:37Z</time>
      </trkpt>
      <trkpt lat="50.60926" lon="5.6122">
        <ele>67</ele>
        <time>2025-04-21T09:00:46Z</time>
      </trkpt>
      <trkpt lat="50.60854" lon="5.61471">
        <ele>67</ele>
        <time>2025-04-21T09:01:26Z</time>
      </trkpt>
      <trkpt lat="50.6084" lon="5.61557">
        <ele>69</ele>
        <time>2025-04-21T09:01:40Z</time>
      </trkpt>
      <trkpt lat="50.60851" lon="5.61565">
        <ele>69</ele>
        <time>2025-04-21T09:01:42Z</time>
      </trkpt>
      <trkpt lat="50.60849" lon="5.61612">
        <ele>69</ele>
        <time>2025-04-21T09:01:49Z</time>
      </trkpt>
      <trkpt lat="50.60814" lon="5.61728">
        <ele>70</ele>
        <time>2025-04-21T09:02:08Z</time>
      </trkpt>
      <trkpt lat="50.60815" lon="5.61745">
        <ele>70</ele>
        <time>2025-04-21T09:02:11Z</time>
      </trkpt>
      <trkpt lat="50.60802" lon="5.61794">
        <ele>70</ele>
        <time>2025-04-21T09:02:19Z</time>
      </trkpt>
      <trkpt lat="50.60744" lon="5.61975">
        <ele>71</ele>
        <time>2025-04-21T09:02:49Z</time>
      </trkpt>
      <trkpt lat="50.60686" lon="5.62091">
        <ele>71</ele>
        <time>2025-04-21T09:03:11Z</time>
      </trkpt>
      <trkpt lat="50.60663" lon="5.6215">
        <ele>72</ele>
        <time>2025-04-21T09:03:21Z</time>
      </trkpt>
      <trkpt lat="50.60504" lon="5.62638">
        <ele>70</ele>
        <time>2025-04-21T09:04:42Z</time>
      </trkpt>
      <trkpt lat="50.60464" lon="5.62767">
        <ele>70</ele>
        <time>2025-04-21T09:05:04Z</time>
      </trkpt>
      <trkpt lat="50.60446" lon="5.62758">
        <ele>70</ele>
        <time>2025-04-21T09:05:08Z</time>
      </trkpt>
      <trkpt lat="50.60441" lon="5.62762">
        <ele>70</ele>
        <time>2025-04-21T09:05:09Z</time>
      </trkpt>
      <trkpt lat="50.60425" lon="5.62801">
        <ele>70</ele>
        <time>2025-04-21T09:05:16Z</time>
      </trkpt>
      <trkpt lat="50.60396" lon="5.62964">
        <ele>70</ele>
        <time>2025-04-21T09:05:41Z</time>
      </trkpt>
      <trkpt lat="50.6035" lon="5.63151">
        <ele>71</ele>
        <time>2025-04-21T09:06:11Z</time>
      </trkpt>
      <trkpt lat="50.60335" lon="5.6325">
        <ele>70</ele>
        <time>2025-04-21T09:06:26Z</time>
      </trkpt>
      <trkpt lat="50.60322" lon="5.63363">
        <ele>72</ele>
        <time>2025-04-21T09:06:43Z</time>
      </trkpt>
      <trkpt lat="50.60317" lon="5.63439">
        <ele>73</ele>
        <time>2025-04-21T09:06:54Z</time>
      </trkpt>
      <trkpt lat="50.60318" lon="5.63457">
        <ele>73</ele>
        <time>2025-04-21T09:06:57Z</time>
      </trkpt>
      <trkpt lat="50.60331" lon="5.63503">
        <ele>74</ele>
        <time>2025-04-21T09:07:05Z</time>
      </trkpt>
      <trkpt lat="50.60346" lon="5.63505">
        <ele>75</ele>
        <time>2025-04-21T09:07:08Z</time>
      </trkpt>
      <trkpt lat="50.60355" lon="5.63523">
        <ele>76</ele>
        <time>2025-04-21T09:07:11Z</time>
      </trkpt>
      <trkpt lat="50.60354" lon="5.6355">
        <ele>77</ele>
        <time>2025-04-21T09:07:15Z</time>
      </trkpt>
      <trkpt lat="50.60348" lon="5.63563">
        <ele>78</ele>
        <time>2025-04-21T09:07:18Z</time>
      </trkpt>
      <trkpt lat="50.60351" lon="5.63584">
        <ele>79</ele>
        <time>2025-04-21T09:07:21Z</time>
      </trkpt>
      <trkpt lat="50.60373" lon="5.63602">
        <ele>81</ele>
        <time>2025-04-21T09:07:27Z</time>
      </trkpt>
      <trkpt lat="50.60402" lon="5.63632">
        <ele>83</ele>
        <time>2025-04-21T09:07:35Z</time>
      </trkpt>
      <trkpt lat="50.60448" lon="5.63619">
        <ele>84</ele>
        <time>2025-04-21T09:07:46Z</time>
      </trkpt>
      <trkpt lat="50.60486" lon="5.63582">
        <ele>83</ele>
        <time>2025-04-21T09:07:56Z</time>
      </trkpt>
      <trkpt lat="50.60536" lon="5.63634">
        <ele>87</ele>
        <time>2025-04-21T09:08:10Z</time>
      </trkpt>
      <trkpt lat="50.60618" lon="5.63705">
        <ele>93</ele>
        <time>2025-04-21T09:08:32Z</time>
      </trkpt>
      <trkpt lat="50.60628" lon="5.63689">
        <ele>93</ele>
        <time>2025-04-21T09:08:35Z</time>
      </trkpt>
      <trkpt lat="50.60642" lon="5.63685">
        <ele>93</ele>
        <time>2025-04-21T09:08:39Z</time>
      </trkpt>
      <trkpt lat="50.60694" lon="5.6368">
        <ele>95</ele>
        <time>2025-04-21T09:08:51Z</time>
      </trkpt>
      <trkpt lat="50.60772" lon="5.63648">
        <ele>96</ele>
        <time>2025-04-21T09:09:10Z</time>
      </trkpt>
      <trkpt lat="50.60823" lon="5.6362">
        <ele>96</ele>
        <time>2025-04-21T09:09:22Z</time>
      </trkpt>
      <trkpt lat="50.6085" lon="5.63595">
        <ele>95</ele>
        <time>2025-04-21T09:09:30Z</time>
      </trkpt>
      <trkpt lat="50.60904" lon="5.63528">
        <ele>93</ele>
        <time>2025-04-21T09:09:46Z</time>
      </trkpt>
      <trkpt lat="50.60913" lon="5.63538">
        <ele>94</ele>
        <time>2025-04-21T09:09:48Z</time>
      </trkpt>
      <trkpt lat="50.60937" lon="5.63498">
        <ele>92</ele>
        <time>2025-04-21T09:09:56Z</time>
      </trkpt>
      <trkpt lat="50.60972" lon="5.63538">
        <ele>94</ele>
        <time>2025-04-21T09:10:07Z</time>
      </trkpt>
      <trkpt lat="50.6105" lon="5.63677">
        <ele>96</ele>
        <time>2025-04-21T09:10:34Z</time>
      </trkpt>
      <trkpt lat="50.61087" lon="5.637">
        <ele>95</ele>
        <time>2025-04-21T09:10:43Z</time>
      </trkpt>
      <trkpt lat="50.61114" lon="5.63737">
        <ele>99</ele>
        <time>2025-04-21T09:10:52Z</time>
      </trkpt>
      <trkpt lat="50.61133" lon="5.63785">
        <ele>101</ele>
        <time>2025-04-21T09:11:00Z</time>
      </trkpt>
      <trkpt lat="50.61144" lon="5.63823">
        <ele>102</ele>
        <time>2025-04-21T09:11:06Z</time>
      </trkpt>
      <trkpt lat="50.6115" lon="5.63879">
        <ele>103</ele>
        <time>2025-04-21T09:11:15Z</time>
      </trkpt>
      <trkpt lat="50.61168" lon="5.63929">
        <ele>104</ele>
        <time>2025-04-21T09:11:23Z</time>
      </trkpt>
      <trkpt lat="50.61198" lon="5.63945">
        <ele>109</ele>
        <time>2025-04-21T09:11:31Z</time>
      </trkpt>
      <trkpt lat="50.61207" lon="5.63959">
        <ele>111</ele>
        <time>2025-04-21T09:11:34Z</time>
      </trkpt>
      <trkpt lat="50.61212" lon="5.63986">
        <ele>112</ele>
        <time>2025-04-21T09:11:38Z</time>
      </trkpt>
      <trkpt lat="50.6121" lon="5.64011">
        <ele>113</ele>
        <time>2025-04-21T09:11:41Z</time>
      </trkpt>
      <trkpt lat="50.612" lon="5.64069">
        <ele>115</ele>
        <time>2025-04-21T09:11:50Z</time>
      </trkpt>
      <trkpt lat="50.61197" lon="5.64117">
        <ele>118</ele>
        <time>2025-04-21T09:11:58Z</time>
      </trkpt>
      <trkpt lat="50.61188" lon="5.64156">
        <ele>119</ele>
        <time>2025-04-21T09:12:04Z</time>
      </trkpt>
      <trkpt lat="50.61174" lon="5.64201">
        <ele>120</ele>
        <time>2025-04-21T09:12:11Z</time>
      </trkpt>
      <trkpt lat="50.61161" lon="5.64222">
        <ele>120</ele>
        <time>2025-04-21T09:12:15Z</time>
      </trkpt>
      <trkpt lat="50.61165" lon="5.64238">
        <ele>122</ele>
        <time>2025-04-21T09:12:18Z</time>
      </trkpt>
      <trkpt lat="50.61169" lon="5.64271">
        <ele>126</ele>
        <time>2025-04-21T09:12:23Z</time>
      </trkpt>
      <trkpt lat="50.61174" lon="5.64283">
        <ele>128</ele>
        <time>2025-04-21T09:12:25Z</time>
      </trkpt>
      <trkpt lat="50.61188" lon="5.64296">
        <ele>132</ele>
        <time>2025-04-21T09:12:29Z</time>
      </trkpt>
      <trkpt lat="50.61197" lon="5.64318">
        <ele>135</ele>
        <time>2025-04-21T09:12:33Z</time>
      </trkpt>
      <trkpt lat="50.61225" lon="5.64347">
        <ele>142</ele>
        <time>2025-04-21T09:12:41Z</time>
      </trkpt>
      <trkpt lat="50.61261" lon="5.64372">
        <ele>150</ele>
        <time>2025-04-21T09:12:50Z</time>
      </trkpt>
      <trkpt lat="50.61312" lon="5.64423">
        <ele>165</ele>
        <time>2025-04-21T09:13:04Z</time>
      </trkpt>
      <trkpt lat="50.61341" lon="5.64448">
        <ele>173</ele>
        <time>2025-04-21T09:13:12Z</time>
      </trkpt>
      <trkpt lat="50.61354" lon="5.64479">
        <ele>177</ele>
        <time>2025-04-21T09:13:17Z</time>
      </trkpt>
      <trkpt lat="50.61364" lon="5.64586">
        <ele>187</ele>
        <time>2025-04-21T09:13:33Z</time>
      </trkpt>
      <trkpt lat="50.61371" lon="5.64612">
        <ele>189</ele>
        <time>2025-04-21T09:13:37Z</time>
      </trkpt>
      <trkpt lat="50.61395" lon="5.64643">
        <ele>196</ele>
        <time>2025-04-21T09:13:45Z</time>
      </trkpt>
      <trkpt lat="50.61422" lon="5.64665">
        <ele>204</ele>
        <time>2025-04-21T09:13:52Z</time>
      </trkpt>
      <trkpt lat="50.6145" lon="5.64717">
        <ele>211</ele>
        <time>2025-04-21T09:14:02Z</time>
      </trkpt>
      <trkpt lat="50.6146" lon="5.6472">
        <ele>213</ele>
        <time>2025-04-21T09:14:04Z</time>
      </trkpt>
      <trkpt lat="50.61478" lon="5.64701">
        <ele>215</ele>
        <time>2025-04-21T09:14:09Z</time>
      </trkpt>
      <trkpt lat="50.61604" lon="5.6466">
        <ele>225</ele>
        <time>2025-04-21T09:14:39Z</time>
      </trkpt>
      <trkpt lat="50.616" lon="5.64716">
        <ele>226</ele>
        <time>2025-04-21T09:14:48Z</time>
      </trkpt>
      <trkpt lat="50.61604" lon="5.64781">
        <ele>228</ele>
        <time>2025-04-21T09:14:57Z</time>
      </trkpt>
      <trkpt lat="50.61595" lon="5.64864">
        <ele>230</ele>
        <time>2025-04-21T09:15:10Z</time>
      </trkpt>
      <trkpt lat="50.6163" lon="5.65106">
        <ele>232</ele>
        <time>2025-04-21T09:15:47Z</time>
      </trkpt>
      <trkpt lat="50.61642" lon="5.65163">
        <ele>232</ele>
        <time>2025-04-21T09:15:55Z</time>
      </trkpt>
      <trkpt lat="50.61689" lon="5.65331">
        <ele>233</ele>
        <time>2025-04-21T09:16:23Z</time>
      </trkpt>
      <trkpt lat="50.61794" lon="5.65577">
        <ele>233</ele>
        <time>2025-04-21T09:17:07Z</time>
      </trkpt>
      <trkpt lat="50.61835" lon="5.65611">
        <ele>235</ele>
        <time>2025-04-21T09:17:17Z</time>
      </trkpt>
      <trkpt lat="50.61816" lon="5.65665">
        <ele>234</ele>
        <time>2025-04-21T09:17:27Z</time>
      </trkpt>
      <trkpt lat="50.61803" lon="5.65681">
        <ele>233</ele>
        <time>2025-04-21T09:17:30Z</time>
      </trkpt>
      <trkpt lat="50.61686" lon="5.66018">
        <ele>235</ele>
        <time>2025-04-21T09:18:27Z</time>
      </trkpt>
      <trkpt lat="50.61644" lon="5.66126">
        <ele>240</ele>
        <time>2025-04-21T09:18:46Z</time>
      </trkpt>
      <trkpt lat="50.61644" lon="5.66149">
        <ele>240</ele>
        <time>2025-04-21T09:18:50Z</time>
      </trkpt>
      <trkpt lat="50.61636" lon="5.6616">
        <ele>240</ele>
        <time>2025-04-21T09:18:52Z</time>
      </trkpt>
      <trkpt lat="50.61598" lon="5.66265">
        <ele>242</ele>
        <time>2025-04-21T09:19:10Z</time>
      </trkpt>
      <trkpt lat="50.61566" lon="5.66345">
        <ele>246</ele>
        <time>2025-04-21T09:19:24Z</time>
      </trkpt>
      <trkpt lat="50.61524" lon="5.66439">
        <ele>247</ele>
        <time>2025-04-21T09:19:41Z</time>
      </trkpt>
      <trkpt lat="50.61156" lon="5.67102">
        <ele>256</ele>
        <time>2025-04-21T09:21:51Z</time>
      </trkpt>
      <trkpt lat="50.61133" lon="5.67161">
        <ele>257</ele>
        <time>2025-04-21T09:22:02Z</time>
      </trkpt>
      <trkpt lat="50.61115" lon="5.67216">
        <ele>256</ele>
        <time>2025-04-21T09:22:11Z</time>
      </trkpt>
      <trkpt lat="50.61097" lon="5.67308">
        <ele>257</ele>
        <time>2025-04-21T09:22:25Z</time>
      </trkpt>
      <trkpt lat="50.61088" lon="5.67404">
        <ele>258</ele>
        <time>2025-04-21T09:22:40Z</time>
      </trkpt>
      <trkpt lat="50.61088" lon="5.67469">
        <ele>259</ele>
        <time>2025-04-21T09:22:49Z</time>
      </trkpt>
      <trkpt lat="50.61094" lon="5.67549">
        <ele>260</ele>
        <time>2025-04-21T09:23:01Z</time>
      </trkpt>
      <trkpt lat="50.61107" lon="5.67621">
        <ele>260</ele>
        <time>2025-04-21T09:23:12Z</time>
      </trkpt>
      <trkpt lat="50.61127" lon="5.67692">
        <ele>261</ele>
        <time>2025-04-21T09:23:24Z</time>
      </trkpt>
      <trkpt lat="50.61162" lon="5.67779">
        <ele>263</ele>
        <time>2025-04-21T09:23:39Z</time>
      </trkpt>
      <trkpt lat="50.61218" lon="5.67879">
        <ele>263</ele>
        <time>2025-04-21T09:23:59Z</time>
      </trkpt>
      <trkpt lat="50.61428" lon="5.68211">
        <ele>261</ele>
        <time>2025-04-21T09:25:08Z</time>
      </trkpt>
      <trkpt lat="50.61452" lon="5.68236">
        <ele>261</ele>
        <time>2025-04-21T09:25:15Z</time>
      </trkpt>
      <trkpt lat="50.61468" lon="5.68236">
        <ele>261</ele>
        <time>2025-04-21T09:25:19Z</time>
      </trkpt>
      <trkpt lat="50.61469" lon="5.68244">
        <ele>261</ele>
        <time>2025-04-21T09:25:20Z</time>
      </trkpt>
      <trkpt lat="50.61485" lon="5.68269">
        <ele>261</ele>
        <time>2025-04-21T09:25:25Z</time>
      </trkpt>
      <trkpt lat="50.61481" lon="5.68286">
        <ele>261</ele>
        <time>2025-04-21T09:25:28Z</time>
      </trkpt>
      <trkpt lat="50.61512" lon="5.68332">
        <ele>261</ele>
        <time>2025-04-21T09:25:38Z</time>
      </trkpt>
      <trkpt lat="50.61515" lon="5.68348">
        <ele>261</ele>
        <time>2025-04-21T09:25:40Z</time>
      </trkpt>
      <trkpt lat="50.61662" lon="5.68581">
        <ele>261</ele>
        <time>2025-04-21T09:26:29Z</time>
      </trkpt>
      <trkpt lat="50.61672" lon="5.68589">
        <ele>261</ele>
        <time>2025-04-21T09:26:32Z</time>
      </trkpt>
      <trkpt lat="50.61675" lon="5.68605">
        <ele>261</ele>
        <time>2025-04-21T09:26:34Z</time>
      </trkpt>
      <trkpt lat="50.61689" lon="5.68618">
        <ele>261</ele>
        <time>2025-04-21T09:26:38Z</time>
      </trkpt>
      <trkpt lat="50.61757" lon="5.68735">
        <ele>262</ele>
        <time>2025-04-21T09:27:01Z</time>
      </trkpt>
      <trkpt lat="50.61818" lon="5.68853">
        <ele>262</ele>
        <time>2025-04-21T09:27:24Z</time>
      </trkpt>
      <trkpt lat="50.62058" lon="5.69424">
        <ele>260</ele>
        <time>2025-04-21T09:29:05Z</time>
      </trkpt>
      <trkpt lat="50.62058" lon="5.69434">
        <ele>260</ele>
        <time>2025-04-21T09:29:07Z</time>
      </trkpt>
      <trkpt lat="50.62068" lon="5.69447">
        <ele>260</ele>
        <time>2025-04-21T09:29:10Z</time>
      </trkpt>
      <trkpt lat="50.6227" lon="5.69925">
        <ele>263</ele>
        <time>2025-04-21T09:30:35Z</time>
      </trkpt>
      <trkpt lat="50.6229" lon="5.69985">
        <ele>262</ele>
        <time>2025-04-21T09:30:45Z</time>
      </trkpt>
      <trkpt lat="50.62301" lon="5.69994">
        <ele>262</ele>
        <time>2025-04-21T09:30:48Z</time>
      </trkpt>
      <trkpt lat="50.62359" lon="5.70155">
        <ele>263</ele>
        <time>2025-04-21T09:31:15Z</time>
      </trkpt>
      <trkpt lat="50.627" lon="5.7127">
        <ele>272</ele>
        <time>2025-04-21T09:34:19Z</time>
      </trkpt>
      <trkpt lat="50.62904" lon="5.71922">
        <ele>266</ele>
        <time>2025-04-21T09:36:06Z</time>
      </trkpt>
      <trkpt lat="50.63133" lon="5.72911">
        <ele>274</ele>
        <time>2025-04-21T09:38:42Z</time>
      </trkpt>
      <trkpt lat="50.63145" lon="5.72956">
        <ele>274</ele>
        <time>2025-04-21T09:38:50Z</time>
      </trkpt>
      <trkpt lat="50.63166" lon="5.73005">
        <ele>273</ele>
        <time>2025-04-21T09:38:58Z</time>
      </trkpt>
      <trkpt lat="50.63195" lon="5.73122">
        <ele>274</ele>
        <time>2025-04-21T09:39:17Z</time>
      </trkpt>
      <trkpt lat="50.63195" lon="5.73196">
        <ele>275</ele>
        <time>2025-04-21T09:39:28Z</time>
      </trkpt>
      <trkpt lat="50.63205" lon="5.7325">
        <ele>275</ele>
        <time>2025-04-21T09:39:36Z</time>
      </trkpt>
      <trkpt lat="50.6326" lon="5.73484">
        <ele>276</ele>
        <time>2025-04-21T09:40:13Z</time>
      </trkpt>
      <trkpt lat="50.63277" lon="5.73541">
        <ele>277</ele>
        <time>2025-04-21T09:40:23Z</time>
      </trkpt>
      <trkpt lat="50.63333" lon="5.73783">
        <ele>278</ele>
        <time>2025-04-21T09:41:01Z</time>
      </trkpt>
      <trkpt lat="50.63499" lon="5.74532">
        <ele>278</ele>
        <time>2025-04-21T09:42:58Z</time>
      </trkpt>
      <trkpt lat="50.63509" lon="5.74543">
        <ele>278</ele>
        <time>2025-04-21T09:43:01Z</time>
      </trkpt>
      <trkpt lat="50.63513" lon="5.74558">
        <ele>278</ele>
        <time>2025-04-21T09:43:04Z</time>
      </trkpt>
      <trkpt lat="50.63511" lon="5.74575">
        <ele>278</ele>
        <time>2025-04-21T09:43:06Z</time>
      </trkpt>
      <trkpt lat="50.63516" lon="5.74605">
        <ele>278</ele>
        <time>2025-04-21T09:43:11Z</time>
      </trkpt>
      <trkpt lat="50.63636" lon="5.75131">
        <ele>277</ele>
        <time>2025-04-21T09:44:33Z</time>
      </trkpt>
      <trkpt lat="50.63665" lon="5.75272">
        <ele>278</ele>
        <time>2025-04-21T09:44:55Z</time>
      </trkpt>
      <trkpt lat="50.63681" lon="5.75365">
        <ele>278</ele>
        <time>2025-04-21T09:45:10Z</time>
      </trkpt>
      <trkpt lat="50.63705" lon="5.75545">
        <ele>279</ele>
        <time>2025-04-21T09:45:37Z</time>
      </trkpt>
      <trkpt lat="50.64009" lon="5.78272">
        <ele>299</ele>
        <time>2025-04-21T09:52:27Z</time>
      </trkpt>
      <trkpt lat="50.64041" lon="5.78413">
        <ele>299</ele>
        <time>2025-04-21T09:52:49Z</time>
      </trkpt>
      <trkpt lat="50.64231" lon="5.79058">
        <ele>305</ele>
        <time>2025-04-21T09:54:35Z</time>
      </trkpt>
      <trkpt lat="50.64239" lon="5.79077">
        <ele>305</ele>
        <time>2025-04-21T09:54:38Z</time>
      </trkpt>
      <trkpt lat="50.64247" lon="5.79114">
        <ele>305</ele>
        <time>2025-04-21T09:54:44Z</time>
      </trkpt>
      <trkpt lat="50.64287" lon="5.7922">
        <ele>307</ele>
        <time>2025-04-21T09:55:02Z</time>
      </trkpt>
      <trkpt lat="50.64305" lon="5.79252">
        <ele>308</ele>
        <time>2025-04-21T09:55:08Z</time>
      </trkpt>
      <trkpt lat="50.64335" lon="5.79294">
        <ele>309</ele>
        <time>2025-04-21T09:55:18Z</time>
      </trkpt>
      <trkpt lat="50.64384" lon="5.79338">
        <ele>310</ele>
        <time>2025-04-21T09:55:31Z</time>
      </trkpt>
      <trkpt lat="50.64496" lon="5.79422">
        <ele>309</ele>
        <time>2025-04-21T09:56:00Z</time>
      </trkpt>
      <trkpt lat="50.64567" lon="5.79484">
        <ele>309</ele>
        <time>2025-04-21T09:56:19Z</time>
      </trkpt>
      <trkpt lat="50.64585" lon="5.79504">
        <ele>310</ele>
        <time>2025-04-21T09:56:24Z</time>
      </trkpt>
      <trkpt lat="50.64645" lon="5.79592">
        <ele>309</ele>
        <time>2025-04-21T09:56:43Z</time>
      </trkpt>
      <trkpt lat="50.64668" lon="5.79632">
        <ele>309</ele>
        <time>2025-04-21T09:56:51Z</time>
      </trkpt>
      <trkpt lat="50.64699" lon="5.79706">
        <ele>309</ele>
        <time>2025-04-21T09:57:04Z</time>
      </trkpt>
      <trkpt lat="50.64708" lon="5.79714">
        <ele>308</ele>
        <time>2025-04-21T09:57:07Z</time>
      </trkpt>
      <trkpt lat="50.64707" lon="5.79728">
        <ele>309</ele>
        <time>2025-04-21T09:57:09Z</time>
      </trkpt>
      <trkpt lat="50.64761" lon="5.79909">
        <ele>311</ele>
        <time>2025-04-21T09:57:38Z</time>
      </trkpt>
      <trkpt lat="50.65068" lon="5.80975">
        <ele>318</ele>
        <time>2025-04-21T10:00:32Z</time>
      </trkpt>
      <trkpt lat="50.65073" lon="5.80985">
        <ele>318</ele>
        <time>2025-04-21T10:00:34Z</time>
      </trkpt>
      <trkpt lat="50.6508" lon="5.80987">
        <ele>318</ele>
        <time>2025-04-21T10:00:35Z</time>
      </trkpt>
      <trkpt lat="50.6508" lon="5.81014">
        <ele>318</ele>
        <time>2025-04-21T10:00:39Z</time>
      </trkpt>
      <trkpt lat="50.65188" lon="5.81394">
        <ele>318</ele>
        <time>2025-04-21T10:01:41Z</time>
      </trkpt>
      <trkpt lat="50.6521" lon="5.81516">
        <ele>317</ele>
        <time>2025-04-21T10:02:00Z</time>
      </trkpt>
      <trkpt lat="50.65214" lon="5.81625">
        <ele>317</ele>
        <time>2025-04-21T10:02:16Z</time>
      </trkpt>
      <trkpt lat="50.65213" lon="5.81689">
        <ele>317</ele>
        <time>2025-04-21T10:02:25Z</time>
      </trkpt>
      <trkpt lat="50.65203" lon="5.81799">
        <ele>315</ele>
        <time>2025-04-21T10:02:42Z</time>
      </trkpt>
      <trkpt lat="50.65192" lon="5.81855">
        <ele>315</ele>
        <time>2025-04-21T10:02:50Z</time>
      </trkpt>
      <trkpt lat="50.65171" lon="5.81932">
        <ele>316</ele>
        <time>2025-04-21T10:03:03Z</time>
      </trkpt>
      <trkpt lat="50.6515" lon="5.81998">
        <ele>316</ele>
        <time>2025-04-21T10:03:14Z</time>
      </trkpt>
      <trkpt lat="50.65109" lon="5.82099">
        <ele>318</ele>
        <time>2025-04-21T10:03:32Z</time>
      </trkpt>
      <trkpt lat="50.65014" lon="5.82353">
        <ele>316</ele>
        <time>2025-04-21T10:04:15Z</time>
      </trkpt>
      <trkpt lat="50.64928" lon="5.82599">
        <ele>319</ele>
        <time>2025-04-21T10:04:57Z</time>
      </trkpt>
      <trkpt lat="50.64908" lon="5.82675">
        <ele>318</ele>
        <time>2025-04-21T10:05:09Z</time>
      </trkpt>
      <trkpt lat="50.64908" lon="5.82776">
        <ele>317</ele>
        <time>2025-04-21T10:05:24Z</time>
      </trkpt>
      <trkpt lat="50.64908" lon="5.82867">
        <ele>317</ele>
        <time>2025-04-21T10:05:37Z</time>
      </trkpt>
      <trkpt lat="50.64931" lon="5.83066">
        <ele>317</ele>
        <time>2025-04-21T10:06:07Z</time>
      </trkpt>
      <trkpt lat="50.64932" lon="5.83081">
        <ele>318</ele>
        <time>2025-04-21T10:06:10Z</time>
      </trkpt>
      <trkpt lat="50.64922" lon="5.83121">
        <ele>319</ele>
        <time>2025-04-21T10:06:16Z</time>
      </trkpt>
      <trkpt lat="50.64924" lon="5.83153">
        <ele>320</ele>
        <time>2025-04-21T10:06:21Z</time>
      </trkpt>
      <trkpt lat="50.64936" lon="5.83167">
        <ele>320</ele>
        <time>2025-04-21T10:06:24Z</time>
      </trkpt>
      <trkpt lat="50.64937" lon="5.83176">
        <ele>320</ele>
        <time>2025-04-21T10:06:26Z</time>
      </trkpt>
      <trkpt lat="50.64934" lon="5.83286">
        <ele>322</ele>
        <time>2025-04-21T10:06:42Z</time>
      </trkpt>
      <trkpt lat="50.64925" lon="5.83379">
        <ele>324</ele>
        <time>2025-04-21T10:06:56Z</time>
      </trkpt>
      <trkpt lat="50.64903" lon="5.83469">
        <ele>323</ele>
        <time>2025-04-21T10:07:10Z</time>
      </trkpt>
      <trkpt lat="50.64811" lon="5.83727">
        <ele>312</ele>
        <time>2025-04-21T10:07:54Z</time>
      </trkpt>
      <trkpt lat="50.64762" lon="5.839">
        <ele>313</ele>
        <time>2025-04-21T10:08:22Z</time>
      </trkpt>
      <trkpt lat="50.6475" lon="5.83982">
        <ele>313</ele>
        <time>2025-04-21T10:08:34Z</time>
      </trkpt>
      <trkpt lat="50.64751" lon="5.84022">
        <ele>311</ele>
        <time>2025-04-21T10:08:40Z</time>
      </trkpt>
      <trkpt lat="50.64759" lon="5.84547">
        <ele>299</ele>
        <time>2025-04-21T10:09:58Z</time>
      </trkpt>
      <trkpt lat="50.64744" lon="5.84648">
        <ele>296</ele>
        <time>2025-04-21T10:10:13Z</time>
      </trkpt>
      <trkpt lat="50.64655" lon="5.85018">
        <ele>295</ele>
        <time>2025-04-21T10:11:12Z</time>
      </trkpt>
      <trkpt lat="50.64647" lon="5.85075">
        <ele>296</ele>
        <time>2025-04-21T10:11:21Z</time>
      </trkpt>
      <trkpt lat="50.64641" lon="5.85217">
        <ele>295</ele>
        <time>2025-04-21T10:11:42Z</time>
      </trkpt>
      <trkpt lat="50.6466" lon="5.85326">
        <ele>296</ele>
        <time>2025-04-21T10:11:59Z</time>
      </trkpt>
      <trkpt lat="50.64674" lon="5.85394">
        <ele>296</ele>
        <time>2025-04-21T10:12:09Z</time>
      </trkpt>
      <trkpt lat="50.64702" lon="5.85472">
        <ele>293</ele>
        <time>2025-04-21T10:12:22Z</time>
      </trkpt>
      <trkpt lat="50.64726" lon="5.85518">
        <ele>290</ele>
        <time>2025-04-21T10:12:31Z</time>
      </trkpt>
      <trkpt lat="50.64763" lon="5.85575">
        <ele>286</ele>
        <time>2025-04-21T10:12:43Z</time>
      </trkpt>
      <trkpt lat="50.65087" lon="5.85995">
        <ele>282</ele>
        <time>2025-04-21T10:14:21Z</time>
      </trkpt>
      <trkpt lat="50.65119" lon="5.86049">
        <ele>281</ele>
        <time>2025-04-21T10:14:32Z</time>
      </trkpt>
      <trkpt lat="50.65155" lon="5.86141">
        <ele>281</ele>
        <time>2025-04-21T10:14:48Z</time>
      </trkpt>
      <trkpt lat="50.65191" lon="5.86252">
        <ele>280</ele>
        <time>2025-04-21T10:15:07Z</time>
      </trkpt>
      <trkpt lat="50.65252" lon="5.86631">
        <ele>279</ele>
        <time>2025-04-21T10:16:05Z</time>
      </trkpt>
      <trkpt lat="50.65324" lon="5.87044">
        <ele>277</ele>
        <time>2025-04-21T10:17:08Z</time>
      </trkpt>
      <trkpt lat="50.65367" lon="5.87337">
        <ele>272</ele>
        <time>2025-04-21T10:17:52Z</time>
      </trkpt>
      <trkpt lat="50.65381" lon="5.87387">
        <ele>270</ele>
        <time>2025-04-21T10:18:01Z</time>
      </trkpt>
      <trkpt lat="50.65424" lon="5.87508">
        <ele>270</ele>
        <time>2025-04-21T10:18:21Z</time>
      </trkpt>
      <trkpt lat="50.65463" lon="5.87558">
        <ele>273</ele>
        <time>2025-04-21T10:18:33Z</time>
      </trkpt>
      <trkpt lat="50.6552" lon="5.8761">
        <ele>275</ele>
        <time>2025-04-21T10:18:48Z</time>
      </trkpt>
      <trkpt lat="50.65582" lon="5.87639">
        <ele>272</ele>
        <time>2025-04-21T10:19:03Z</time>
      </trkpt>
      <trkpt lat="50.65643" lon="5.87645">
        <ele>268</ele>
        <time>2025-04-21T10:19:18Z</time>
      </trkpt>
      <trkpt lat="50.65695" lon="5.87636">
        <ele>267</ele>
        <time>2025-04-21T10:19:30Z</time>
      </trkpt>
      <trkpt lat="50.65731" lon="5.8762">
        <ele>267</ele>
        <time>2025-04-21T10:19:39Z</time>
      </trkpt>
      <trkpt lat="50.66139" lon="5.87357">
        <ele>260</ele>
        <time>2025-04-21T10:21:21Z</time>
      </trkpt>
      <trkpt lat="50.66285" lon="5.87269">
        <ele>256</ele>
        <time>2025-04-21T10:21:58Z</time>
      </trkpt>
      <trkpt lat="50.6633" lon="5.87232">
        <ele>256</ele>
        <time>2025-04-21T10:22:10Z</time>
      </trkpt>
      <trkpt lat="50.66401" lon="5.87147">
        <ele>256</ele>
        <time>2025-04-21T10:22:31Z</time>
      </trkpt>
      <trkpt lat="50.66453" lon="5.87073">
        <ele>255</ele>
        <time>2025-04-21T10:22:47Z</time>
      </trkpt>
      <trkpt lat="50.66495" lon="5.86982">
        <ele>251</ele>
        <time>2025-04-21T10:23:04Z</time>
      </trkpt>
      <trkpt lat="50.66518" lon="5.86919">
        <ele>250</ele>
        <time>2025-04-21T10:23:14Z</time>
      </trkpt>
      <trkpt lat="50.66537" lon="5.86824">
        <ele>249</ele>
        <time>2025-04-21T10:23:29Z</time>
      </trkpt>
      <trkpt lat="50.66556" lon="5.86728">
        <ele>247</ele>
        <time>2025-04-21T10:23:44Z</time>
      </trkpt>
      <trkpt lat="50.66625" lon="5.86237">
        <ele>245</ele>
        <time>2025-04-21T10:24:59Z</time>
      </trkpt>
      <trkpt lat="50.66644" lon="5.86132">
        <ele>243</ele>
        <time>2025-04-21T10:25:15Z</time>
      </trkpt>
      <trkpt lat="50.66657" lon="5.86078">
        <ele>243</ele>
        <time>2025-04-21T10:25:23Z</time>
      </trkpt>
      <trkpt lat="50.66698" lon="5.85973">
        <ele>244</ele>
        <time>2025-04-21T10:25:41Z</time>
      </trkpt>
      <trkpt lat="50.66744" lon="5.85875">
        <ele>243</ele>
        <time>2025-04-21T10:26:00Z</time>
      </trkpt>
      <trkpt lat="50.6681" lon="5.85787">
        <ele>240</ele>
        <time>2025-04-21T10:26:20Z</time>
      </trkpt>
      <trkpt lat="50.66871" lon="5.85731">
        <ele>237</ele>
        <time>2025-04-21T10:26:36Z</time>
      </trkpt>
      <trkpt lat="50.66931" lon="5.85695">
        <ele>235</ele>
        <time>2025-04-21T10:26:51Z</time>
      </trkpt>
      <trkpt lat="50.67017" lon="5.85666">
        <ele>234</ele>
        <time>2025-04-21T10:27:12Z</time>
      </trkpt>
      <trkpt lat="50.67262" lon="5.85636">
        <ele>229</ele>
        <time>2025-04-21T10:28:09Z</time>
      </trkpt>
      <trkpt lat="50.67316" lon="5.85621">
        <ele>226</ele>
        <time>2025-04-21T10:28:22Z</time>
      </trkpt>
      <trkpt lat="50.67419" lon="5.85542">
        <ele>222</ele>
        <time>2025-04-21T10:28:49Z</time>
      </trkpt>
      <trkpt lat="50.67524" lon="5.85413">
        <ele>220</ele>
        <time>2025-04-21T10:29:20Z</time>
      </trkpt>
      <trkpt lat="50.6755" lon="5.85388">
        <ele>217</ele>
        <time>2025-04-21T10:29:27Z</time>
      </trkpt>
      <trkpt lat="50.67643" lon="5.85341">
        <ele>213</ele>
        <time>2025-04-21T10:29:50Z</time>
      </trkpt>
      <trkpt lat="50.67811" lon="5.85319">
        <ele>212</ele>
        <time>2025-04-21T10:30:29Z</time>
      </trkpt>
      <trkpt lat="50.67935" lon="5.85294">
        <ele>214</ele>
        <time>2025-04-21T10:30:58Z</time>
      </trkpt>
      <trkpt lat="50.68057" lon="5.85284">
        <ele>216</ele>
        <time>2025-04-21T10:31:27Z</time>
      </trkpt>
      <trkpt lat="50.68064" lon="5.85286">
        <ele>216</ele>
        <time>2025-04-21T10:31:28Z</time>
      </trkpt>
      <trkpt lat="50.68071" lon="5.8528">
        <ele>216</ele>
        <time>2025-04-21T10:31:30Z</time>
      </trkpt>
      <trkpt lat="50.68149" lon="5.85266">
        <ele>216</ele>
        <time>2025-04-21T10:31:49Z</time>
      </trkpt>
      <trkpt lat="50.68213" lon="5.8526">
        <ele>215</ele>
        <time>2025-04-21T10:32:04Z</time>
      </trkpt>
      <trkpt lat="50.68248" lon="5.85263">
        <ele>214</ele>
        <time>2025-04-21T10:32:12Z</time>
      </trkpt>
      <trkpt lat="50.68307" lon="5.85276">
        <ele>212</ele>
        <time>2025-04-21T10:32:26Z</time>
      </trkpt>
      <trkpt lat="50.68342" lon="5.85289">
        <ele>210</ele>
        <time>2025-04-21T10:32:34Z</time>
      </trkpt>
      <trkpt lat="50.68786" lon="5.85489">
        <ele>198</ele>
        <time>2025-04-21T10:34:22Z</time>
      </trkpt>
      <trkpt lat="50.68823" lon="5.85501">
        <ele>202</ele>
        <time>2025-04-21T10:34:31Z</time>
      </trkpt>
      <trkpt lat="50.68872" lon="5.85509">
        <ele>205</ele>
        <time>2025-04-21T10:34:42Z</time>
      </trkpt>
      <trkpt lat="50.6908" lon="5.85525">
        <ele>209</ele>
        <time>2025-04-21T10:35:31Z</time>
      </trkpt>
      <trkpt lat="50.69636" lon="5.85607">
        <ele>220</ele>
        <time>2025-04-21T10:37:41Z</time>
      </trkpt>
      <trkpt lat="50.69684" lon="5.85619">
        <ele>222</ele>
        <time>2025-04-21T10:37:53Z</time>
      </trkpt>
      <trkpt lat="50.69724" lon="5.85639">
        <ele>223</ele>
        <time>2025-04-21T10:38:02Z</time>
      </trkpt>
      <trkpt lat="50.6976" lon="5.85663">
        <ele>224</ele>
        <time>2025-04-21T10:38:12Z</time>
      </trkpt>
      <trkpt lat="50.69797" lon="5.85697">
        <ele>226</ele>
        <time>2025-04-21T10:38:22Z</time>
      </trkpt>
      <trkpt lat="50.69831" lon="5.85735">
        <ele>228</ele>
        <time>2025-04-21T10:38:31Z</time>
      </trkpt>
      <trkpt lat="50.69873" lon="5.85807">
        <ele>229</ele>
        <time>2025-04-21T10:38:46Z</time>
      </trkpt>
      <trkpt lat="50.69944" lon="5.85954">
        <ele>233</ele>
        <time>2025-04-21T10:39:13Z</time>
      </trkpt>
      <trkpt lat="50.69986" lon="5.86035">
        <ele>236</ele>
        <time>2025-04-21T10:39:29Z</time>
      </trkpt>
      <trkpt lat="50.70039" lon="5.86109">
        <ele>240</ele>
        <time>2025-04-21T10:39:45Z</time>
      </trkpt>
      <trkpt lat="50.70091" lon="5.86165">
        <ele>241</ele>
        <time>2025-04-21T10:40:00Z</time>
      </trkpt>
      <trkpt lat="50.70121" lon="5.8619">
        <ele>241</ele>
        <time>2025-04-21T10:40:08Z</time>
      </trkpt>
      <trkpt lat="50.70173" lon="5.86224">
        <ele>242</ele>
        <time>2025-04-21T10:40:21Z</time>
      </trkpt>
      <trkpt lat="50.70262" lon="5.86265">
        <ele>240</ele>
        <time>2025-04-21T10:40:42Z</time>
      </trkpt>
      <trkpt lat="50.70275" lon="5.86266">
        <ele>239</ele>
        <time>2025-04-21T10:40:46Z</time>
      </trkpt>
      <trkpt lat="50.70289" lon="5.86278">
        <ele>239</ele>
        <time>2025-04-21T10:40:49Z</time>
      </trkpt>
      <trkpt lat="50.70616" lon="5.864">
        <ele>241</ele>
        <time>2025-04-21T10:42:08Z</time>
      </trkpt>
      <trkpt lat="50.7068" lon="5.8643">
        <ele>244</ele>
        <time>2025-04-21T10:42:23Z</time>
      </trkpt>
      <trkpt lat="50.70717" lon="5.86458">
        <ele>245</ele>
        <time>2025-04-21T10:42:33Z</time>
      </trkpt>
      <trkpt lat="50.70746" lon="5.86496">
        <ele>247</ele>
        <time>2025-04-21T10:42:42Z</time>
      </trkpt>
      <trkpt lat="50.70782" lon="5.86549">
        <ele>245</ele>
        <time>2025-04-21T10:42:53Z</time>
      </trkpt>
      <trkpt lat="50.70811" lon="5.86608">
        <ele>242</ele>
        <time>2025-04-21T10:43:04Z</time>
      </trkpt>
      <trkpt lat="50.70841" lon="5.86703">
        <ele>240</ele>
        <time>2025-04-21T10:43:20Z</time>
      </trkpt>
      <trkpt lat="50.70848" lon="5.86789">
        <ele>240</ele>
        <time>2025-04-21T10:43:33Z</time>
      </trkpt>
      <trkpt lat="50.70849" lon="5.8684">
        <ele>240</ele>
        <time>2025-04-21T10:43:40Z</time>
      </trkpt>
      <trkpt lat="50.70842" lon="5.86927">
        <ele>242</ele>
        <time>2025-04-21T10:43:53Z</time>
      </trkpt>
      <trkpt lat="50.70794" lon="5.87274">
        <ele>250</ele>
        <time>2025-04-21T10:44:46Z</time>
      </trkpt>
      <trkpt lat="50.70786" lon="5.87392">
        <ele>254</ele>
        <time>2025-04-21T10:45:03Z</time>
      </trkpt>
      <trkpt lat="50.70786" lon="5.87572">
        <ele>257</ele>
        <time>2025-04-21T10:45:30Z</time>
      </trkpt>
      <trkpt lat="50.70791" lon="5.87649">
        <ele>258</ele>
        <time>2025-04-21T10:45:41Z</time>
      </trkpt>
      <trkpt lat="50.70807" lon="5.87793">
        <ele>261</ele>
        <time>2025-04-21T10:46:03Z</time>
      </trkpt>
      <trkpt lat="50.70829" lon="5.87918">
        <ele>263</ele>
        <time>2025-04-21T10:46:22Z</time>
      </trkpt>
      <trkpt lat="50.70865" lon="5.88045">
        <ele>266</ele>
        <time>2025-04-21T10:46:43Z</time>
      </trkpt>
      <trkpt lat="50.70914" lon="5.88166">
        <ele>272</ele>
        <time>2025-04-21T10:47:04Z</time>
      </trkpt>
      <trkpt lat="50.70942" lon="5.88219">
        <ele>274</ele>
        <time>2025-04-21T10:47:14Z</time>
      </trkpt>
      <trkpt lat="50.70982" lon="5.88278">
        <ele>278</ele>
        <time>2025-04-21T10:47:27Z</time>
      </trkpt>
      <trkpt lat="50.71081" lon="5.8839">
        <ele>276</ele>
        <time>2025-04-21T10:47:55Z</time>
      </trkpt>
      <trkpt lat="50.71137" lon="5.88443">
        <ele>272</ele>
        <time>2025-04-21T10:48:11Z</time>
      </trkpt>
      <trkpt lat="50.71373" lon="5.88687">
        <ele>263</ele>
        <time>2025-04-21T10:49:17Z</time>
      </trkpt>
      <trkpt lat="50.71494" lon="5.88843">
        <ele>262</ele>
        <time>2025-04-21T10:49:53Z</time>
      </trkpt>
      <trkpt lat="50.71587" lon="5.89002">
        <ele>256</ele>
        <time>2025-04-21T10:50:25Z</time>
      </trkpt>
      <trkpt lat="50.71732" lon="5.89269">
        <ele>255</ele>
        <time>2025-04-21T10:51:17Z</time>
      </trkpt>
      <trkpt lat="50.71769" lon="5.89333">
        <ele>249</ele>
        <time>2025-04-21T10:51:30Z</time>
      </trkpt>
      <trkpt lat="50.71816" lon="5.89394">
        <ele>244</ele>
        <time>2025-04-21T10:51:44Z</time>
      </trkpt>
      <trkpt lat="50.71877" lon="5.89454">
        <ele>243</ele>
        <time>2025-04-21T10:52:01Z</time>
      </trkpt>
      <trkpt lat="50.72006" lon="5.89538">
        <ele>240</ele>
        <time>2025-04-21T10:52:33Z</time>
      </trkpt>
      <trkpt lat="50.72102" lon="5.89588">
        <ele>237</ele>
        <time>2025-04-21T10:52:57Z</time>
      </trkpt>
      <trkpt lat="50.72133" lon="5.89618">
        <ele>236</ele>
        <time>2025-04-21T10:53:06Z</time>
      </trkpt>
      <trkpt lat="50.72165" lon="5.8966">
        <ele>236</ele>
        <time>2025-04-21T10:53:15Z</time>
      </trkpt>
      <trkpt lat="50.72206" lon="5.89731">
        <ele>235</ele>
        <time>2025-04-21T10:53:29Z</time>
      </trkpt>
      <trkpt lat="50.72228" lon="5.89794">
        <ele>236</ele>
        <time>2025-04-21T10:53:40Z</time>
      </trkpt>
      <trkpt lat="50.72247" lon="5.89899">
        <ele>238</ele>
        <time>2025-04-21T10:53:56Z</time>
      </trkpt>
      <trkpt lat="50.72251" lon="5.89964">
        <ele>237</ele>
        <time>2025-04-21T10:54:06Z</time>
      </trkpt>
      <trkpt lat="50.7225" lon="5.90009">
        <ele>237</ele>
        <time>2025-04-21T10:54:13Z</time>
      </trkpt>
      <trkpt lat="50.72241" lon="5.90082">
        <ele>233</ele>
        <time>2025-04-21T10:54:24Z</time>
      </trkpt>
      <trkpt lat="50.72216" lon="5.90181">
        <ele>229</ele>
        <time>2025-04-21T10:54:39Z</time>
      </trkpt>
      <trkpt lat="50.72196" lon="5.9023">
        <ele>228</ele>
        <time>2025-04-21T10:54:48Z</time>
      </trkpt>
      <trkpt lat="50.72048" lon="5.90479">
        <ele>219</ele>
        <time>2025-04-21T10:55:38Z</time>
      </trkpt>
      <trkpt lat="50.71907" lon="5.90724">
        <ele>224</ele>
        <time>2025-04-21T10:56:27Z</time>
      </trkpt>
      <trkpt lat="50.7189" lon="5.90768">
        <ele>222</ele>
        <time>2025-04-21T10:56:35Z</time>
      </trkpt>
      <trkpt lat="50.71872" lon="5.90825">
        <ele>221</ele>
        <time>2025-04-21T10:56:44Z</time>
      </trkpt>
      <trkpt lat="50.71863" lon="5.9087">
        <ele>219</ele>
        <time>2025-04-21T10:56:51Z</time>
      </trkpt>
      <trkpt lat="50.71854" lon="5.90953">
        <ele>217</ele>
        <time>2025-04-21T10:57:04Z</time>
      </trkpt>
      <trkpt lat="50.71857" lon="5.91062">
        <ele>216</ele>
        <time>2025-04-21T10:57:20Z</time>
      </trkpt>
      <trkpt lat="50.71865" lon="5.9111">
        <ele>214</ele>
        <time>2025-04-21T10:57:27Z</time>
      </trkpt>
      <trkpt lat="50.71882" lon="5.9117">
        <ele>212</ele>
        <time>2025-04-21T10:57:37Z</time>
      </trkpt>
      <trkpt lat="50.71918" lon="5.91259">
        <ele>210</ele>
        <time>2025-04-21T10:57:53Z</time>
      </trkpt>
      <trkpt lat="50.71949" lon="5.91308">
        <ele>210</ele>
        <time>2025-04-21T10:58:03Z</time>
      </trkpt>
      <trkpt lat="50.72" lon="5.91362">
        <ele>211</ele>
        <time>2025-04-21T10:58:17Z</time>
      </trkpt>
      <trkpt lat="50.72032" lon="5.91384">
        <ele>211</ele>
        <time>2025-04-21T10:58:25Z</time>
      </trkpt>
      <trkpt lat="50.7211" lon="5.91407">
        <ele>211</ele>
        <time>2025-04-21T10:58:44Z</time>
      </trkpt>
      <trkpt lat="50.72156" lon="5.91404">
        <ele>211</ele>
        <time>2025-04-21T10:58:55Z</time>
      </trkpt>
      <trkpt lat="50.72197" lon="5.91389">
        <ele>213</ele>
        <time>2025-04-21T10:59:05Z</time>
      </trkpt>
      <trkpt lat="50.72197" lon="5.91362">
        <ele>211</ele>
        <time>2025-04-21T10:59:09Z</time>
      </trkpt>
      <trkpt lat="50.72563" lon="5.91108">
        <ele>213</ele>
        <time>2025-04-21T11:00:42Z</time>
      </trkpt>
      <trkpt lat="50.72608" lon="5.91083">
        <ele>212</ele>
        <time>2025-04-21T11:00:53Z</time>
      </trkpt>
      <trkpt lat="50.7266" lon="5.91062">
        <ele>213</ele>
        <time>2025-04-21T11:01:06Z</time>
      </trkpt>
      <trkpt lat="50.72729" lon="5.91059">
        <ele>212</ele>
        <time>2025-04-21T11:01:22Z</time>
      </trkpt>
      <trkpt lat="50.72756" lon="5.91063">
        <ele>212</ele>
        <time>2025-04-21T11:01:28Z</time>
      </trkpt>
      <trkpt lat="50.72783" lon="5.91075">
        <ele>213</ele>
        <time>2025-04-21T11:01:35Z</time>
      </trkpt>
      <trkpt lat="50.72849" lon="5.91119">
        <ele>217</ele>
        <time>2025-04-21T11:01:51Z</time>
      </trkpt>
      <trkpt lat="50.72881" lon="5.91149">
        <ele>223</ele>
        <time>2025-04-21T11:02:00Z</time>
      </trkpt>
      <trkpt lat="50.72923" lon="5.91207">
        <ele>229</ele>
        <time>2025-04-21T11:02:13Z</time>
      </trkpt>
      <trkpt lat="50.72966" lon="5.91303">
        <ele>231</ele>
        <time>2025-04-21T11:02:30Z</time>
      </trkpt>
      <trkpt lat="50.72983" lon="5.91384">
        <ele>229</ele>
        <time>2025-04-21T11:02:43Z</time>
      </trkpt>
      <trkpt lat="50.72994" lon="5.91468">
        <ele>224</ele>
        <time>2025-04-21T11:02:56Z</time>
      </trkpt>
      <trkpt lat="50.72991" lon="5.91583">
        <ele>222</ele>
        <time>2025-04-21T11:03:13Z</time>
      </trkpt>
      <trkpt lat="50.72983" lon="5.91633">
        <ele>220</ele>
        <time>2025-04-21T11:03:20Z</time>
      </trkpt>
      <trkpt lat="50.72967" lon="5.91687">
        <ele>218</ele>
        <time>2025-04-21T11:03:29Z</time>
      </trkpt>
      <trkpt lat="50.7296" lon="5.91719">
        <ele>217</ele>
        <time>2025-04-21T11:03:34Z</time>
      </trkpt>
      <trkpt lat="50.73011" lon="5.91756">
        <ele>213</ele>
        <time>2025-04-21T11:03:47Z</time>
      </trkpt>
      <trkpt lat="50.73029" lon="5.91755">
        <ele>213</ele>
        <time>2025-04-21T11:03:51Z</time>
      </trkpt>
      <trkpt lat="50.73034" lon="5.91783">
        <ele>211</ele>
        <time>2025-04-21T11:03:56Z</time>
      </trkpt>
      <trkpt lat="50.73022" lon="5.91967">
        <ele>204</ele>
        <time>2025-04-21T11:04:23Z</time>
      </trkpt>
      <trkpt lat="50.73027" lon="5.92">
        <ele>203</ele>
        <time>2025-04-21T11:04:28Z</time>
      </trkpt>
      <trkpt lat="50.73042" lon="5.91998">
        <ele>203</ele>
        <time>2025-04-21T11:04:32Z</time>
      </trkpt>
      <trkpt lat="50.73065" lon="5.92003">
        <ele>202</ele>
        <time>2025-04-21T11:04:37Z</time>
      </trkpt>
      <trkpt lat="50.73118" lon="5.92042">
        <ele>201</ele>
        <time>2025-04-21T11:04:51Z</time>
      </trkpt>
      <trkpt lat="50.7314" lon="5.92071">
        <ele>199</ele>
        <time>2025-04-21T11:04:57Z</time>
      </trkpt>
      <trkpt lat="50.73182" lon="5.92192">
        <ele>193</ele>
        <time>2025-04-21T11:05:18Z</time>
      </trkpt>
      <trkpt lat="50.73203" lon="5.92232">
        <ele>192</ele>
        <time>2025-04-21T11:05:25Z</time>
      </trkpt>
      <trkpt lat="50.73284" lon="5.92343">
        <ele>192</ele>
        <time>2025-04-21T11:05:51Z</time>
      </trkpt>
      <trkpt lat="50.73299" lon="5.92356">
        <ele>191</ele>
        <time>2025-04-21T11:05:55Z</time>
      </trkpt>
      <trkpt lat="50.73717" lon="5.92522">
        <ele>187</ele>
        <time>2025-04-21T11:07:35Z</time>
      </trkpt>
      <trkpt lat="50.73754" lon="5.92618">
        <ele>184</ele>
        <time>2025-04-21T11:07:52Z</time>
      </trkpt>
      <trkpt lat="50.73849" lon="5.92916">
        <ele>178</ele>
        <time>2025-04-21T11:08:41Z</time>
      </trkpt>
      <trkpt lat="50.73906" lon="5.93081">
        <ele>178</ele>
        <time>2025-04-21T11:09:09Z</time>
      </trkpt>
      <trkpt lat="50.73946" lon="5.93163">
        <ele>174</ele>
        <time>2025-04-21T11:09:24Z</time>
      </trkpt>
      <trkpt lat="50.73991" lon="5.93238">
        <ele>171</ele>
        <time>2025-04-21T11:09:39Z</time>
      </trkpt>
      <trkpt lat="50.74038" lon="5.93309">
        <ele>167</ele>
        <time>2025-04-21T11:09:55Z</time>
      </trkpt>
      <trkpt lat="50.74079" lon="5.93363">
        <ele>164</ele>
        <time>2025-04-21T11:10:07Z</time>
      </trkpt>
      <trkpt lat="50.74104" lon="5.93384">
        <ele>163</ele>
        <time>2025-04-21T11:10:14Z</time>
      </trkpt>
      <trkpt lat="50.74218" lon="5.93461">
        <ele>160</ele>
        <time>2025-04-21T11:10:43Z</time>
      </trkpt>
      <trkpt lat="50.74286" lon="5.93504">
        <ele>160</ele>
        <time>2025-04-21T11:11:00Z</time>
      </trkpt>
      <trkpt lat="50.74397" lon="5.93564">
        <ele>161</ele>
        <time>2025-04-21T11:11:27Z</time>
      </trkpt>
      <trkpt lat="50.74424" lon="5.93593">
        <ele>161</ele>
        <time>2025-04-21T11:11:35Z</time>
      </trkpt>
      <trkpt lat="50.74471" lon="5.93699">
        <ele>159</ele>
        <time>2025-04-21T11:11:54Z</time>
      </trkpt>
      <trkpt lat="50.74536" lon="5.9383">
        <ele>158</ele>
        <time>2025-04-21T11:12:19Z</time>
      </trkpt>
      <trkpt lat="50.7458" lon="5.93781">
        <ele>156</ele>
        <time>2025-04-21T11:12:31Z</time>
      </trkpt>
      <trkpt lat="50.74706" lon="5.93598">
        <ele>149</ele>
        <time>2025-04-21T11:13:11Z</time>
      </trkpt>
      <trkpt lat="50.74727" lon="5.9358">
        <ele>148</ele>
        <time>2025-04-21T11:13:17Z</time>
      </trkpt>
      <trkpt lat="50.74745" lon="5.93574">
        <ele>148</ele>
        <time>2025-04-21T11:13:21Z</time>
      </trkpt>
      <trkpt lat="50.7477" lon="5.93577">
        <ele>147</ele>
        <time>2025-04-21T11:13:27Z</time>
      </trkpt>
      <trkpt lat="50.74906" lon="5.93624">
        <ele>142</ele>
        <time>2025-04-21T11:13:59Z</time>
      </trkpt>
      <trkpt lat="50.74923" lon="5.93624">
        <ele>142</ele>
        <time>2025-04-21T11:14:03Z</time>
      </trkpt>
      <trkpt lat="50.74973" lon="5.93588">
        <ele>141</ele>
        <time>2025-04-21T11:14:16Z</time>
      </trkpt>
      <trkpt lat="50.75044" lon="5.93524">
        <ele>146</ele>
        <time>2025-04-21T11:14:35Z</time>
      </trkpt>
      <trkpt lat="50.75058" lon="5.93504">
        <ele>148</ele>
        <time>2025-04-21T11:14:40Z</time>
      </trkpt>
      <trkpt lat="50.75064" lon="5.93484">
        <ele>149</ele>
        <time>2025-04-21T11:14:43Z</time>
      </trkpt>
      <trkpt lat="50.7507" lon="5.93444">
        <ele>152</ele>
        <time>2025-04-21T11:14:49Z</time>
      </trkpt>
      <trkpt lat="50.75072" lon="5.93396">
        <ele>155</ele>
        <time>2025-04-21T11:14:56Z</time>
      </trkpt>
      <trkpt lat="50.75077" lon="5.93367">
        <ele>156</ele>
        <time>2025-04-21T11:15:00Z</time>
      </trkpt>
      <trkpt lat="50.75091" lon="5.93374">
        <ele>155</ele>
        <time>2025-04-21T11:15:04Z</time>
      </trkpt>
      <trkpt lat="50.75116" lon="5.93371">
        <ele>154</ele>
        <time>2025-04-21T11:15:10Z</time>
      </trkpt>
      <trkpt lat="50.75145" lon="5.93441">
        <ele>148</ele>
        <time>2025-04-21T11:15:22Z</time>
      </trkpt>
      <trkpt lat="50.75167" lon="5.93437">
        <ele>146</ele>
        <time>2025-04-21T11:15:27Z</time>
      </trkpt>
      <trkpt lat="50.75195" lon="5.93437">
        <ele>145</ele>
        <time>2025-04-21T11:15:34Z</time>
      </trkpt>
      <trkpt lat="50.75256" lon="5.93445">
        <ele>142</ele>
        <time>2025-04-21T11:15:48Z</time>
      </trkpt>
      <trkpt lat="50.75315" lon="5.93469">
        <ele>140</ele>
        <time>2025-04-21T11:16:02Z</time>
      </trkpt>
      <trkpt lat="50.75347" lon="5.93467">
        <ele>140</ele>
        <time>2025-04-21T11:16:10Z</time>
      </trkpt>
      <trkpt lat="50.75361" lon="5.93496">
        <ele>137</ele>
        <time>2025-04-21T11:16:15Z</time>
      </trkpt>
      <trkpt lat="50.75393" lon="5.93521">
        <ele>134</ele>
        <time>2025-04-21T11:16:24Z</time>
      </trkpt>
      <trkpt lat="50.7548" lon="5.93634">
        <ele>128</ele>
        <time>2025-04-21T11:16:50Z</time>
      </trkpt>
      <trkpt lat="50.75516" lon="5.9365">
        <ele>127</ele>
        <time>2025-04-21T11:16:59Z</time>
      </trkpt>
      <trkpt lat="50.75552" lon="5.93698">
        <ele>124</ele>
        <time>2025-04-21T11:17:10Z</time>
      </trkpt>
      <trkpt lat="50.7557" lon="5.93709">
        <ele>124</ele>
        <time>2025-04-21T11:17:14Z</time>
      </trkpt>
      <trkpt lat="50.75594" lon="5.93728">
        <ele>123</ele>
        <time>2025-04-21T11:17:20Z</time>
      </trkpt>
      <trkpt lat="50.75628" lon="5.93698">
        <ele>123</ele>
        <time>2025-04-21T11:17:29Z</time>
      </trkpt>
      <trkpt lat="50.75632" lon="5.93706">
        <ele>123</ele>
        <time>2025-04-21T11:17:31Z</time>
      </trkpt>
      <trkpt lat="50.75632" lon="5.93727">
        <ele>123</ele>
        <time>2025-04-21T11:17:34Z</time>
      </trkpt>
      <trkpt lat="50.75641" lon="5.93773">
        <ele>122</ele>
        <time>2025-04-21T11:17:41Z</time>
      </trkpt>
      <trkpt lat="50.75646" lon="5.93786">
        <ele>123</ele>
        <time>2025-04-21T11:17:43Z</time>
      </trkpt>
      <trkpt lat="50.75641" lon="5.93828">
        <ele>123</ele>
        <time>2025-04-21T11:17:50Z</time>
      </trkpt>
    </trkseg>
  </trk>
  <trk>
    <name><![CDATA[jour_1_5_39km_sans_fin_ni_milieu_ni_debut_4_pays]]></name>
    <extensions>
      <line xmlns="http://www.topografix.com/GPX/gpx_style/0/2">
        <color>FFFF00</color>
        <width>4</width>
      </line>
    </extensions>
    <trkseg>
      <trkpt lat="50.62459" lon="5.56676">
        <ele>69</ele>
        <time>2025-04-21T08:44:06Z</time>
      </trkpt>
      <trkpt lat="50.62478" lon="5.56758">
        <ele>65</ele>
        <time>2025-04-21T08:44:19Z</time>
      </trkpt>
      <trkpt lat="50.62439" lon="5.56826">
        <ele>67</ele>
        <time>2025-04-21T08:44:33Z</time>
      </trkpt>
      <trkpt lat="50.62514" lon="5.56895">
        <ele>67</ele>
        <time>2025-04-21T08:44:53Z</time>
      </trkpt>
      <trkpt lat="50.62536" lon="5.56923">
        <ele>67</ele>
        <time>2025-04-21T08:44:59Z</time>
      </trkpt>
      <trkpt lat="50.62626" lon="5.57087">
        <ele>66</ele>
        <time>2025-04-21T08:45:32Z</time>
      </trkpt>
      <trkpt lat="50.62753" lon="5.5727">
        <ele>70</ele>
        <time>2025-04-21T08:46:12Z</time>
      </trkpt>
      <trkpt lat="50.62768" lon="5.57303">
        <ele>67</ele>
        <time>2025-04-21T08:46:18Z</time>
      </trkpt>
      <trkpt lat="50.62761" lon="5.57312">
        <ele>67</ele>
        <time>2025-04-21T08:46:20Z</time>
      </trkpt>
      <trkpt lat="50.62781" lon="5.57369">
        <ele>61</ele>
        <time>2025-04-21T08:46:29Z</time>
      </trkpt>
      <trkpt lat="50.62865" lon="5.57542">
        <ele>65</ele>
        <time>2025-04-21T08:47:02Z</time>
      </trkpt>
      <trkpt lat="50.62848" lon="5.5756">
        <ele>66</ele>
        <time>2025-04-21T08:47:07Z</time>
      </trkpt>
      <trkpt lat="50.6279" lon="5.576">
        <ele>72</ele>
        <time>2025-04-21T08:47:21Z</time>
      </trkpt>
      <trkpt lat="50.62769" lon="5.57586">
        <ele>73</ele>
        <time>2025-04-21T08:47:27Z</time>
      </trkpt>
      <trkpt lat="50.62757" lon="5.57585">
        <ele>74</ele>
        <time>2025-04-21T08:47:29Z</time>
      </trkpt>
      <trkpt lat="50.62708" lon="5.57618">
        <ele>69</ele>
        <time>2025-04-21T08:47:42Z</time>
      </trkpt>
      <trkpt lat="50.62562" lon="5.57732">
        <ele>65</ele>
        <time>2025-04-21T08:48:20Z</time>
      </trkpt>
      <trkpt lat="50.62546" lon="5.57761">
        <ele>66</ele>
        <time>2025-04-21T08:48:26Z</time>
      </trkpt>
      <trkpt lat="50.62497" lon="5.57793">
        <ele>66</ele>
        <time>2025-04-21T08:48:38Z</time>
      </trkpt>
      <trkpt lat="50.62488" lon="5.57807">
        <ele>67</ele>
        <time>2025-04-21T08:48:41Z</time>
      </trkpt>
      <trkpt lat="50.62484" lon="5.57832">
        <ele>67</ele>
        <time>2025-04-21T08:48:45Z</time>
      </trkpt>
      <trkpt lat="50.625" lon="5.57977">
        <ele>66</ele>
        <time>2025-04-21T08:49:07Z</time>
      </trkpt>
      <trkpt lat="50.62425" lon="5.57984">
        <ele>63</ele>
        <time>2025-04-21T08:49:24Z</time>
      </trkpt>
      <trkpt lat="50.62398" lon="5.57993">
        <ele>62</ele>
        <time>2025-04-21T08:49:31Z</time>
      </trkpt>
      <trkpt lat="50.62364" lon="5.58012">
        <ele>61</ele>
        <time>2025-04-21T08:49:39Z</time>
      </trkpt>
      <trkpt lat="50.62331" lon="5.58038">
        <ele>61</ele>
        <time>2025-04-21T08:49:48Z</time>
      </trkpt>
      <trkpt lat="50.62281" lon="5.58093">
        <ele>62</ele>
        <time>2025-04-21T08:50:02Z</time>
      </trkpt>
      <trkpt lat="50.6228" lon="5.58103">
        <ele>63</ele>
        <time>2025-04-21T08:50:03Z</time>
      </trkpt>
      <trkpt lat="50.62223" lon="5.58216">
        <ele>66</ele>
        <time>2025-04-21T08:50:25Z</time>
      </trkpt>
      <trkpt lat="50.62212" lon="5.58221">
        <ele>65</ele>
        <time>2025-04-21T08:50:27Z</time>
      </trkpt>
      <trkpt lat="50.62206" lon="5.58229">
        <ele>65</ele>
        <time>2025-04-21T08:50:29Z</time>
      </trkpt>
      <trkpt lat="50.62197" lon="5.58249">
        <ele>66</ele>
        <time>2025-04-21T08:50:33Z</time>
      </trkpt>
      <trkpt lat="50.62162" lon="5.58342">
        <ele>69</ele>
        <time>2025-04-21T08:50:49Z</time>
      </trkpt>
      <trkpt lat="50.6216" lon="5.5836">
        <ele>69</ele>
        <time>2025-04-21T08:50:52Z</time>
      </trkpt>
      <trkpt lat="50.62042" lon="5.58702">
        <ele>65</ele>
        <time>2025-04-21T08:51:49Z</time>
      </trkpt>
      <trkpt lat="50.62011" lon="5.58803">
        <ele>66</ele>
        <time>2025-04-21T08:52:06Z</time>
      </trkpt>
      <trkpt lat="50.61961" lon="5.58935">
        <ele>69</ele>
        <time>2025-04-21T08:52:29Z</time>
      </trkpt>
      <trkpt lat="50.6192" lon="5.59032">
        <ele>70</ele>
        <time>2025-04-21T08:52:46Z</time>
      </trkpt>
      <trkpt lat="50.61833" lon="5.59211">
        <ele>64</ele>
        <time>2025-04-21T08:53:19Z</time>
      </trkpt>
      <trkpt lat="50.61821" lon="5.59222">
        <ele>64</ele>
        <time>2025-04-21T08:53:23Z</time>
      </trkpt>
      <trkpt lat="50.61762" lon="5.59153">
        <ele>65</ele>
        <time>2025-04-21T08:53:40Z</time>
      </trkpt>
      <trkpt lat="50.61703" lon="5.59281">
        <ele>70</ele>
        <time>2025-04-21T08:54:03Z</time>
      </trkpt>
      <trkpt lat="50.61628" lon="5.59468">
        <ele>72</ele>
        <time>2025-04-21T08:54:36Z</time>
      </trkpt>
      <trkpt lat="50.61571" lon="5.59655">
        <ele>67</ele>
        <time>2025-04-21T08:55:07Z</time>
      </trkpt>
      <trkpt lat="50.61505" lon="5.59902">
        <ele>64</ele>
        <time>2025-04-21T08:55:46Z</time>
      </trkpt>
      <trkpt lat="50.61487" lon="5.59983">
        <ele>64</ele>
        <time>2025-04-21T08:55:59Z</time>
      </trkpt>
      <trkpt lat="50.61482" lon="5.6004">
        <ele>64</ele>
        <time>2025-04-21T08:56:08Z</time>
      </trkpt>
      <trkpt lat="50.61473" lon="5.60093">
        <ele>65</ele>
        <time>2025-04-21T08:56:16Z</time>
      </trkpt>
      <trkpt lat="50.61455" lon="5.60131">
        <ele>65</ele>
        <time>2025-04-21T08:56:23Z</time>
      </trkpt>
      <trkpt lat="50.61448" lon="5.60184">
        <ele>66</ele>
        <time>2025-04-21T08:56:31Z</time>
      </trkpt>
      <trkpt lat="50.61428" lon="5.60195">
        <ele>67</ele>
        <time>2025-04-21T08:56:36Z</time>
      </trkpt>
      <trkpt lat="50.6141" lon="5.60246">
        <ele>68</ele>
        <time>2025-04-21T08:56:44Z</time>
      </trkpt>
      <trkpt lat="50.61152" lon="5.61203">
        <ele>65</ele>
        <time>2025-04-21T08:59:19Z</time>
      </trkpt>
      <trkpt lat="50.61127" lon="5.6119">
        <ele>64</ele>
        <time>2025-04-21T08:59:25Z</time>
      </trkpt>
      <trkpt lat="50.61118" lon="5.61224">
        <ele>65</ele>
        <time>2025-04-21T08:59:30Z</time>
      </trkpt>
      <trkpt lat="50.61108" lon="5.61238">
        <ele>65</ele>
        <time>2025-04-21T08:59:33Z</time>
      </trkpt>
      <trkpt lat="50.61093" lon="5.61248">
        <ele>64</ele>
        <time>2025-04-21T08:59:37Z</time>
      </trkpt>
      <trkpt lat="50.61074" lon="5.61252">
        <ele>64</ele>
        <time>2025-04-21T08:59:42Z</time>
      </trkpt>
      <trkpt lat="50.61052" lon="5.6125">
        <ele>65</ele>
        <time>2025-04-21T08:59:47Z</time>
      </trkpt>
      <trkpt lat="50.60952" lon="5.61221">
        <ele>67</ele>
        <time>2025-04-21T09:00:10Z</time>
      </trkpt>
      <trkpt lat="50.60892" lon="5.61197">
        <ele>68</ele>
        <time>2025-04-21T09:00:25Z</time>
      </trkpt>
      <trkpt lat="50.60926" lon="5.6122">
        <ele>67</ele>
        <time>2025-04-21T09:00:34Z</time>
      </trkpt>
      <trkpt lat="50.60854" lon="5.61471">
        <ele>67</ele>
        <time>2025-04-21T09:01:14Z</time>
      </trkpt>
      <trkpt lat="50.6084" lon="5.61557">
        <ele>69</ele>
        <time>2025-04-21T09:01:28Z</time>
      </trkpt>
      <trkpt lat="50.60851" lon="5.61565">
        <ele>69</ele>
        <time>2025-04-21T09:01:30Z</time>
      </trkpt>
      <trkpt lat="50.60849" lon="5.61612">
        <ele>69</ele>
        <time>2025-04-21T09:01:37Z</time>
      </trkpt>
      <trkpt lat="50.60814" lon="5.61728">
        <ele>70</ele>
        <time>2025-04-21T09:01:56Z</time>
      </trkpt>
      <trkpt lat="50.60815" lon="5.61745">
        <ele>70</ele>
        <time>2025-04-21T09:01:59Z</time>
      </trkpt>
      <trkpt lat="50.60802" lon="5.61794">
        <ele>70</ele>
        <time>2025-04-21T09:02:07Z</time>
      </trkpt>
      <trkpt lat="50.60744" lon="5.61975">
        <ele>71</ele>
        <time>2025-04-21T09:02:37Z</time>
      </trkpt>
      <trkpt lat="50.60686" lon="5.62091">
        <ele>71</ele>
        <time>2025-04-21T09:02:59Z</time>
      </trkpt>
      <trkpt lat="50.60663" lon="5.6215">
        <ele>72</ele>
        <time>2025-04-21T09:03:09Z</time>
      </trkpt>
      <trkpt lat="50.60504" lon="5.62638">
        <ele>70</ele>
        <time>2025-04-21T09:04:30Z</time>
      </trkpt>
      <trkpt lat="50.60464" lon="5.62767">
        <ele>70</ele>
        <time>2025-04-21T09:04:52Z</time>
      </trkpt>
      <trkpt lat="50.60446" lon="5.62758">
        <ele>70</ele>
        <time>2025-04-21T09:04:56Z</time>
      </trkpt>
      <trkpt lat="50.60441" lon="5.62762">
        <ele>70</ele>
        <time>2025-04-21T09:04:57Z</time>
      </trkpt>
      <trkpt lat="50.60425" lon="5.62801">
        <ele>70</ele>
        <time>2025-04-21T09:05:04Z</time>
      </trkpt>
      <trkpt lat="50.60396" lon="5.62964">
        <ele>70</ele>
        <time>2025-04-21T09:05:29Z</time>
      </trkpt>
      <trkpt lat="50.6035" lon="5.63151">
        <ele>71</ele>
        <time>2025-04-21T09:05:59Z</time>
      </trkpt>
      <trkpt lat="50.60335" lon="5.6325">
        <ele>70</ele>
        <time>2025-04-21T09:06:14Z</time>
      </trkpt>
      <trkpt lat="50.60322" lon="5.63363">
        <ele>72</ele>
        <time>2025-04-21T09:06:31Z</time>
      </trkpt>
      <trkpt lat="50.60317" lon="5.63439">
        <ele>73</ele>
        <time>2025-04-21T09:06:42Z</time>
      </trkpt>
      <trkpt lat="50.60318" lon="5.63457">
        <ele>73</ele>
        <time>2025-04-21T09:06:45Z</time>
      </trkpt>
      <trkpt lat="50.60331" lon="5.63503">
        <ele>74</ele>
        <time>2025-04-21T09:06:53Z</time>
      </trkpt>
      <trkpt lat="50.60346" lon="5.63505">
        <ele>75</ele>
        <time>2025-04-21T09:06:56Z</time>
      </trkpt>
      <trkpt lat="50.60355" lon="5.63523">
        <ele>76</ele>
        <time>2025-04-21T09:06:59Z</time>
      </trkpt>
      <trkpt lat="50.60354" lon="5.6355">
        <ele>77</ele>
        <time>2025-04-21T09:07:03Z</time>
      </trkpt>
      <trkpt lat="50.60348" lon="5.63563">
        <ele>78</ele>
        <time>2025-04-21T09:07:06Z</time>
      </trkpt>
      <trkpt lat="50.60351" lon="5.63584">
        <ele>79</ele>
        <time>2025-04-21T09:07:09Z</time>
      </trkpt>
      <trkpt lat="50.60373" lon="5.63602">
        <ele>81</ele>
        <time>2025-04-21T09:07:15Z</time>
      </trkpt>
      <trkpt lat="50.60402" lon="5.63632">
        <ele>83</ele>
        <time>2025-04-21T09:07:23Z</time>
      </trkpt>
      <trkpt lat="50.60448" lon="5.63619">
        <ele>84</ele>
        <time>2025-04-21T09:07:34Z</time>
      </trkpt>
      <trkpt lat="50.60486" lon="5.63582">
        <ele>83</ele>
        <time>2025-04-21T09:07:44Z</time>
      </trkpt>
      <trkpt lat="50.60536" lon="5.63634">
        <ele>87</ele>
        <time>2025-04-21T09:07:58Z</time>
      </trkpt>
      <trkpt lat="50.60618" lon="5.63705">
        <ele>93</ele>
        <time>2025-04-21T09:08:20Z</time>
      </trkpt>
      <trkpt lat="50.60628" lon="5.63689">
        <ele>93</ele>
        <time>2025-04-21T09:08:23Z</time>
      </trkpt>
      <trkpt lat="50.60642" lon="5.63685">
        <ele>93</ele>
        <time>2025-04-21T09:08:27Z</time>
      </trkpt>
      <trkpt lat="50.60694" lon="5.6368">
        <ele>95</ele>
        <time>2025-04-21T09:08:39Z</time>
      </trkpt>
      <trkpt lat="50.60772" lon="5.63648">
        <ele>96</ele>
        <time>2025-04-21T09:08:58Z</time>
      </trkpt>
      <trkpt lat="50.60823" lon="5.6362">
        <ele>96</ele>
        <time>2025-04-21T09:09:10Z</time>
      </trkpt>
      <trkpt lat="50.6085" lon="5.63595">
        <ele>95</ele>
        <time>2025-04-21T09:09:18Z</time>
      </trkpt>
      <trkpt lat="50.60889" lon="5.63548">
        <ele>94</ele>
        <time>2025-04-21T09:09:29Z</time>
      </trkpt>
      <trkpt lat="50.60904" lon="5.63528">
        <ele>93</ele>
        <time>2025-04-21T09:09:34Z</time>
      </trkpt>
      <trkpt lat="50.60913" lon="5.63538">
        <ele>94</ele>
        <time>2025-04-21T09:09:36Z</time>
      </trkpt>
      <trkpt lat="50.60937" lon="5.63498">
        <ele>92</ele>
        <time>2025-04-21T09:09:44Z</time>
      </trkpt>
      <trkpt lat="50.60972" lon="5.63538">
        <ele>94</ele>
        <time>2025-04-21T09:09:55Z</time>
      </trkpt>
      <trkpt lat="50.6105" lon="5.63677">
        <ele>96</ele>
        <time>2025-04-21T09:10:22Z</time>
      </trkpt>
      <trkpt lat="50.61087" lon="5.637">
        <ele>95</ele>
        <time>2025-04-21T09:10:31Z</time>
      </trkpt>
      <trkpt lat="50.61114" lon="5.63737">
        <ele>99</ele>
        <time>2025-04-21T09:10:40Z</time>
      </trkpt>
      <trkpt lat="50.61133" lon="5.63785">
        <ele>101</ele>
        <time>2025-04-21T09:10:48Z</time>
      </trkpt>
      <trkpt lat="50.61144" lon="5.63823">
        <ele>102</ele>
        <time>2025-04-21T09:10:54Z</time>
      </trkpt>
      <trkpt lat="50.6115" lon="5.63879">
        <ele>103</ele>
        <time>2025-04-21T09:11:03Z</time>
      </trkpt>
      <trkpt lat="50.61168" lon="5.63929">
        <ele>104</ele>
        <time>2025-04-21T09:11:11Z</time>
      </trkpt>
      <trkpt lat="50.61198" lon="5.63945">
        <ele>109</ele>
        <time>2025-04-21T09:11:19Z</time>
      </trkpt>
      <trkpt lat="50.61207" lon="5.63959">
        <ele>111</ele>
        <time>2025-04-21T09:11:22Z</time>
      </trkpt>
      <trkpt lat="50.61212" lon="5.63986">
        <ele>112</ele>
        <time>2025-04-21T09:11:26Z</time>
      </trkpt>
      <trkpt lat="50.6121" lon="5.64011">
        <ele>113</ele>
        <time>2025-04-21T09:11:29Z</time>
      </trkpt>
      <trkpt lat="50.612" lon="5.64069">
        <ele>115</ele>
        <time>2025-04-21T09:11:38Z</time>
      </trkpt>
      <trkpt lat="50.61197" lon="5.64117">
        <ele>118</ele>
        <time>2025-04-21T09:11:46Z</time>
      </trkpt>
      <trkpt lat="50.61188" lon="5.64156">
        <ele>119</ele>
        <time>2025-04-21T09:11:52Z</time>
      </trkpt>
      <trkpt lat="50.61174" lon="5.64201">
        <ele>120</ele>
        <time>2025-04-21T09:11:59Z</time>
      </trkpt>
      <trkpt lat="50.61161" lon="5.64222">
        <ele>120</ele>
        <time>2025-04-21T09:12:03Z</time>
      </trkpt>
      <trkpt lat="50.61165" lon="5.64238">
        <ele>122</ele>
        <time>2025-04-21T09:12:06Z</time>
      </trkpt>
      <trkpt lat="50.61169" lon="5.64271">
        <ele>126</ele>
        <time>2025-04-21T09:12:11Z</time>
      </trkpt>
      <trkpt lat="50.61174" lon="5.64283">
        <ele>128</ele>
        <time>2025-04-21T09:12:13Z</time>
      </trkpt>
      <trkpt lat="50.61188" lon="5.64296">
        <ele>132</ele>
        <time>2025-04-21T09:12:17Z</time>
      </trkpt>
      <trkpt lat="50.61197" lon="5.64318">
        <ele>135</ele>
        <time>2025-04-21T09:12:21Z</time>
      </trkpt>
      <trkpt lat="50.61225" lon="5.64347">
        <ele>142</ele>
        <time>2025-04-21T09:12:29Z</time>
      </trkpt>
      <trkpt lat="50.61261" lon="5.64372">
        <ele>150</ele>
        <time>2025-04-21T09:12:38Z</time>
      </trkpt>
      <trkpt lat="50.61312" lon="5.64423">
        <ele>165</ele>
        <time>2025-04-21T09:12:52Z</time>
      </trkpt>
      <trkpt lat="50.61341" lon="5.64448">
        <ele>173</ele>
        <time>2025-04-21T09:13:00Z</time>
      </trkpt>
      <trkpt lat="50.61354" lon="5.64479">
        <ele>177</ele>
        <time>2025-04-21T09:13:05Z</time>
      </trkpt>
      <trkpt lat="50.61364" lon="5.64586">
        <ele>187</ele>
        <time>2025-04-21T09:13:21Z</time>
      </trkpt>
      <trkpt lat="50.61371" lon="5.64612">
        <ele>189</ele>
        <time>2025-04-21T09:13:25Z</time>
      </trkpt>
      <trkpt lat="50.61395" lon="5.64643">
        <ele>196</ele>
        <time>2025-04-21T09:13:33Z</time>
      </trkpt>
      <trkpt lat="50.61422" lon="5.64665">
        <ele>204</ele>
        <time>2025-04-21T09:13:40Z</time>
      </trkpt>
      <trkpt lat="50.6145" lon="5.64717">
        <ele>211</ele>
        <time>2025-04-21T09:13:50Z</time>
      </trkpt>
      <trkpt lat="50.6146" lon="5.6472">
        <ele>213</ele>
        <time>2025-04-21T09:13:52Z</time>
      </trkpt>
      <trkpt lat="50.61478" lon="5.64701">
        <ele>215</ele>
        <time>2025-04-21T09:13:57Z</time>
      </trkpt>
      <trkpt lat="50.61604" lon="5.6466">
        <ele>225</ele>
        <time>2025-04-21T09:14:27Z</time>
      </trkpt>
      <trkpt lat="50.616" lon="5.64716">
        <ele>226</ele>
        <time>2025-04-21T09:14:36Z</time>
      </trkpt>
      <trkpt lat="50.61604" lon="5.64781">
        <ele>228</ele>
        <time>2025-04-21T09:14:45Z</time>
      </trkpt>
      <trkpt lat="50.61595" lon="5.64864">
        <ele>230</ele>
        <time>2025-04-21T09:14:58Z</time>
      </trkpt>
      <trkpt lat="50.6161" lon="5.64969">
        <ele>232</ele>
        <time>2025-04-21T09:15:14Z</time>
      </trkpt>
      <trkpt lat="50.6163" lon="5.65106">
        <ele>232</ele>
        <time>2025-04-21T09:15:35Z</time>
      </trkpt>
      <trkpt lat="50.61642" lon="5.65163">
        <ele>232</ele>
        <time>2025-04-21T09:15:43Z</time>
      </trkpt>
      <trkpt lat="50.61689" lon="5.65331">
        <ele>233</ele>
        <time>2025-04-21T09:16:11Z</time>
      </trkpt>
      <trkpt lat="50.61794" lon="5.65577">
        <ele>233</ele>
        <time>2025-04-21T09:16:55Z</time>
      </trkpt>
      <trkpt lat="50.61835" lon="5.65611">
        <ele>235</ele>
        <time>2025-04-21T09:17:05Z</time>
      </trkpt>
      <trkpt lat="50.61816" lon="5.65665">
        <ele>234</ele>
        <time>2025-04-21T09:17:15Z</time>
      </trkpt>
      <trkpt lat="50.61803" lon="5.65681">
        <ele>233</ele>
        <time>2025-04-21T09:17:18Z</time>
      </trkpt>
      <trkpt lat="50.61756" lon="5.65818">
        <ele>233</ele>
        <time>2025-04-21T09:17:42Z</time>
      </trkpt>
      <trkpt lat="50.61716" lon="5.65929">
        <ele>234</ele>
        <time>2025-04-21T09:18:00Z</time>
      </trkpt>
      <trkpt lat="50.61686" lon="5.66018">
        <ele>235</ele>
        <time>2025-04-21T09:18:15Z</time>
      </trkpt>
      <trkpt lat="50.61644" lon="5.66126">
        <ele>240</ele>
        <time>2025-04-21T09:18:34Z</time>
      </trkpt>
      <trkpt lat="50.61644" lon="5.66149">
        <ele>240</ele>
        <time>2025-04-21T09:18:38Z</time>
      </trkpt>
      <trkpt lat="50.61636" lon="5.6616">
        <ele>240</ele>
        <time>2025-04-21T09:18:40Z</time>
      </trkpt>
      <trkpt lat="50.61598" lon="5.66265">
        <ele>242</ele>
        <time>2025-04-21T09:18:58Z</time>
      </trkpt>
      <trkpt lat="50.61566" lon="5.66345">
        <ele>246</ele>
        <time>2025-04-21T09:19:12Z</time>
      </trkpt>
      <trkpt lat="50.61524" lon="5.66439">
        <ele>247</ele>
        <time>2025-04-21T09:19:29Z</time>
      </trkpt>
      <trkpt lat="50.61189" lon="5.67044">
        <ele>256</ele>
        <time>2025-04-21T09:21:28Z</time>
      </trkpt>
      <trkpt lat="50.61156" lon="5.67102">
        <ele>256</ele>
        <time>2025-04-21T09:21:40Z</time>
      </trkpt>
      <trkpt lat="50.61133" lon="5.67161">
        <ele>257</ele>
        <time>2025-04-21T09:21:50Z</time>
      </trkpt>
      <trkpt lat="50.61115" lon="5.67216">
        <ele>256</ele>
        <time>2025-04-21T09:21:59Z</time>
      </trkpt>
      <trkpt lat="50.61097" lon="5.67308">
        <ele>257</ele>
        <time>2025-04-21T09:22:13Z</time>
      </trkpt>
      <trkpt lat="50.61088" lon="5.67404">
        <ele>258</ele>
        <time>2025-04-21T09:22:28Z</time>
      </trkpt>
      <trkpt lat="50.61088" lon="5.67469">
        <ele>259</ele>
        <time>2025-04-21T09:22:37Z</time>
      </trkpt>
      <trkpt lat="50.61094" lon="5.67549">
        <ele>260</ele>
        <time>2025-04-21T09:22:49Z</time>
      </trkpt>
      <trkpt lat="50.61107" lon="5.67621">
        <ele>260</ele>
        <time>2025-04-21T09:23:00Z</time>
      </trkpt>
      <trkpt lat="50.61127" lon="5.67692">
        <ele>261</ele>
        <time>2025-04-21T09:23:12Z</time>
      </trkpt>
      <trkpt lat="50.61162" lon="5.67779">
        <ele>263</ele>
        <time>2025-04-21T09:23:27Z</time>
      </trkpt>
      <trkpt lat="50.61218" lon="5.67879">
        <ele>263</ele>
        <time>2025-04-21T09:23:47Z</time>
      </trkpt>
      <trkpt lat="50.61428" lon="5.68211">
        <ele>261</ele>
        <time>2025-04-21T09:24:56Z</time>
      </trkpt>
      <trkpt lat="50.61452" lon="5.68236">
        <ele>261</ele>
        <time>2025-04-21T09:25:03Z</time>
      </trkpt>
      <trkpt lat="50.61468" lon="5.68236">
        <ele>261</ele>
        <time>2025-04-21T09:25:07Z</time>
      </trkpt>
      <trkpt lat="50.61469" lon="5.68244">
        <ele>261</ele>
        <time>2025-04-21T09:25:08Z</time>
      </trkpt>
      <trkpt lat="50.61485" lon="5.68269">
        <ele>261</ele>
        <time>2025-04-21T09:25:13Z</time>
      </trkpt>
      <trkpt lat="50.61481" lon="5.68286">
        <ele>261</ele>
        <time>2025-04-21T09:25:16Z</time>
      </trkpt>
      <trkpt lat="50.61512" lon="5.68332">
        <ele>261</ele>
        <time>2025-04-21T09:25:26Z</time>
      </trkpt>
      <trkpt lat="50.61515" lon="5.68348">
        <ele>261</ele>
        <time>2025-04-21T09:25:28Z</time>
      </trkpt>
      <trkpt lat="50.61662" lon="5.68581">
        <ele>261</ele>
        <time>2025-04-21T09:26:17Z</time>
      </trkpt>
      <trkpt lat="50.61672" lon="5.68589">
        <ele>261</ele>
        <time>2025-04-21T09:26:20Z</time>
      </trkpt>
      <trkpt lat="50.61675" lon="5.68605">
        <ele>261</ele>
        <time>2025-04-21T09:26:22Z</time>
      </trkpt>
      <trkpt lat="50.61689" lon="5.68618">
        <ele>261</ele>
        <time>2025-04-21T09:26:26Z</time>
      </trkpt>
      <trkpt lat="50.61757" lon="5.68735">
        <ele>262</ele>
        <time>2025-04-21T09:26:49Z</time>
      </trkpt>
      <trkpt lat="50.61818" lon="5.68853">
        <ele>262</ele>
        <time>2025-04-21T09:27:12Z</time>
      </trkpt>
      <trkpt lat="50.62058" lon="5.69424">
        <ele>260</ele>
        <time>2025-04-21T09:28:53Z</time>
      </trkpt>
      <trkpt lat="50.62058" lon="5.69434">
        <ele>260</ele>
        <time>2025-04-21T09:28:55Z</time>
      </trkpt>
      <trkpt lat="50.62068" lon="5.69447">
        <ele>260</ele>
        <time>2025-04-21T09:28:58Z</time>
      </trkpt>
      <trkpt lat="50.6227" lon="5.69925">
        <ele>263</ele>
        <time>2025-04-21T09:30:23Z</time>
      </trkpt>
      <trkpt lat="50.6229" lon="5.69985">
        <ele>262</ele>
        <time>2025-04-21T09:30:33Z</time>
      </trkpt>
      <trkpt lat="50.62301" lon="5.69994">
        <ele>262</ele>
        <time>2025-04-21T09:30:36Z</time>
      </trkpt>
      <trkpt lat="50.62359" lon="5.70155">
        <ele>263</ele>
        <time>2025-04-21T09:31:03Z</time>
      </trkpt>
      <trkpt lat="50.627" lon="5.7127">
        <ele>272</ele>
        <time>2025-04-21T09:34:07Z</time>
      </trkpt>
      <trkpt lat="50.62904" lon="5.71922">
        <ele>266</ele>
        <time>2025-04-21T09:35:54Z</time>
      </trkpt>
      <trkpt lat="50.63133" lon="5.72911">
        <ele>274</ele>
        <time>2025-04-21T09:38:30Z</time>
      </trkpt>
      <trkpt lat="50.63145" lon="5.72956">
        <ele>274</ele>
        <time>2025-04-21T09:38:38Z</time>
      </trkpt>
      <trkpt lat="50.63166" lon="5.73005">
        <ele>273</ele>
        <time>2025-04-21T09:38:46Z</time>
      </trkpt>
      <trkpt lat="50.63195" lon="5.73122">
        <ele>274</ele>
        <time>2025-04-21T09:39:05Z</time>
      </trkpt>
      <trkpt lat="50.63195" lon="5.73196">
        <ele>275</ele>
        <time>2025-04-21T09:39:16Z</time>
      </trkpt>
      <trkpt lat="50.63205" lon="5.7325">
        <ele>275</ele>
        <time>2025-04-21T09:39:24Z</time>
      </trkpt>
      <trkpt lat="50.6326" lon="5.73484">
        <ele>276</ele>
        <time>2025-04-21T09:40:01Z</time>
      </trkpt>
      <trkpt lat="50.63277" lon="5.73541">
        <ele>277</ele>
        <time>2025-04-21T09:40:11Z</time>
      </trkpt>
      <trkpt lat="50.63333" lon="5.73783">
        <ele>278</ele>
        <time>2025-04-21T09:40:49Z</time>
      </trkpt>
      <trkpt lat="50.63499" lon="5.74532">
        <ele>278</ele>
        <time>2025-04-21T09:42:46Z</time>
      </trkpt>
      <trkpt lat="50.63509" lon="5.74543">
        <ele>278</ele>
        <time>2025-04-21T09:42:49Z</time>
      </trkpt>
      <trkpt lat="50.63513" lon="5.74558">
        <ele>278</ele>
        <time>2025-04-21T09:42:52Z</time>
      </trkpt>
      <trkpt lat="50.63511" lon="5.74575">
        <ele>278</ele>
        <time>2025-04-21T09:42:54Z</time>
      </trkpt>
      <trkpt lat="50.63516" lon="5.74605">
        <ele>278</ele>
        <time>2025-04-21T09:42:59Z</time>
      </trkpt>
      <trkpt lat="50.63636" lon="5.75131">
        <ele>277</ele>
        <time>2025-04-21T09:44:21Z</time>
      </trkpt>
      <trkpt lat="50.63665" lon="5.75272">
        <ele>278</ele>
        <time>2025-04-21T09:44:43Z</time>
      </trkpt>
      <trkpt lat="50.63681" lon="5.75365">
        <ele>278</ele>
        <time>2025-04-21T09:44:58Z</time>
      </trkpt>
      <trkpt lat="50.63705" lon="5.75545">
        <ele>279</ele>
        <time>2025-04-21T09:45:25Z</time>
      </trkpt>
      <trkpt lat="50.64009" lon="5.78272">
        <ele>299</ele>
        <time>2025-04-21T09:52:15Z</time>
      </trkpt>
      <trkpt lat="50.64041" lon="5.78413">
        <ele>299</ele>
        <time>2025-04-21T09:52:37Z</time>
      </trkpt>
      <trkpt lat="50.64231" lon="5.79058">
        <ele>305</ele>
        <time>2025-04-21T09:54:23Z</time>
      </trkpt>
      <trkpt lat="50.64239" lon="5.79077">
        <ele>305</ele>
        <time>2025-04-21T09:54:26Z</time>
      </trkpt>
      <trkpt lat="50.64247" lon="5.79114">
        <ele>305</ele>
        <time>2025-04-21T09:54:32Z</time>
      </trkpt>
      <trkpt lat="50.64287" lon="5.7922">
        <ele>307</ele>
        <time>2025-04-21T09:54:50Z</time>
      </trkpt>
      <trkpt lat="50.64305" lon="5.79252">
        <ele>308</ele>
        <time>2025-04-21T09:54:56Z</time>
      </trkpt>
      <trkpt lat="50.64335" lon="5.79294">
        <ele>309</ele>
        <time>2025-04-21T09:55:06Z</time>
      </trkpt>
      <trkpt lat="50.64384" lon="5.79338">
        <ele>310</ele>
        <time>2025-04-21T09:55:19Z</time>
      </trkpt>
      <trkpt lat="50.64496" lon="5.79422">
        <ele>309</ele>
        <time>2025-04-21T09:55:48Z</time>
      </trkpt>
      <trkpt lat="50.64567" lon="5.79484">
        <ele>309</ele>
        <time>2025-04-21T09:56:07Z</time>
      </trkpt>
      <trkpt lat="50.64585" lon="5.79504">
        <ele>310</ele>
        <time>2025-04-21T09:56:12Z</time>
      </trkpt>
      <trkpt lat="50.64645" lon="5.79592">
        <ele>309</ele>
        <time>2025-04-21T09:56:31Z</time>
      </trkpt>
      <trkpt lat="50.64668" lon="5.79632">
        <ele>309</ele>
        <time>2025-04-21T09:56:39Z</time>
      </trkpt>
      <trkpt lat="50.64699" lon="5.79706">
        <ele>309</ele>
        <time>2025-04-21T09:56:52Z</time>
      </trkpt>
      <trkpt lat="50.64708" lon="5.79714">
        <ele>308</ele>
        <time>2025-04-21T09:56:55Z</time>
      </trkpt>
      <trkpt lat="50.64707" lon="5.79728">
        <ele>309</ele>
        <time>2025-04-21T09:56:57Z</time>
      </trkpt>
      <trkpt lat="50.64761" lon="5.79909">
        <ele>311</ele>
        <time>2025-04-21T09:57:26Z</time>
      </trkpt>
      <trkpt lat="50.65068" lon="5.80975">
        <ele>318</ele>
        <time>2025-04-21T10:00:20Z</time>
      </trkpt>
      <trkpt lat="50.65073" lon="5.80985">
        <ele>318</ele>
        <time>2025-04-21T10:00:22Z</time>
      </trkpt>
      <trkpt lat="50.6508" lon="5.80987">
        <ele>318</ele>
        <time>2025-04-21T10:00:23Z</time>
      </trkpt>
      <trkpt lat="50.6508" lon="5.81014">
        <ele>318</ele>
        <time>2025-04-21T10:00:27Z</time>
      </trkpt>
      <trkpt lat="50.65188" lon="5.81394">
        <ele>318</ele>
        <time>2025-04-21T10:01:29Z</time>
      </trkpt>
      <trkpt lat="50.6521" lon="5.81516">
        <ele>317</ele>
        <time>2025-04-21T10:01:48Z</time>
      </trkpt>
      <trkpt lat="50.65214" lon="5.81625">
        <ele>317</ele>
        <time>2025-04-21T10:02:04Z</time>
      </trkpt>
      <trkpt lat="50.65213" lon="5.81689">
        <ele>317</ele>
        <time>2025-04-21T10:02:13Z</time>
      </trkpt>
      <trkpt lat="50.65203" lon="5.81799">
        <ele>315</ele>
        <time>2025-04-21T10:02:30Z</time>
      </trkpt>
      <trkpt lat="50.65192" lon="5.81855">
        <ele>315</ele>
        <time>2025-04-21T10:02:38Z</time>
      </trkpt>
      <trkpt lat="50.65171" lon="5.81932">
        <ele>316</ele>
        <time>2025-04-21T10:02:51Z</time>
      </trkpt>
      <trkpt lat="50.6515" lon="5.81998">
        <ele>316</ele>
        <time>2025-04-21T10:03:02Z</time>
      </trkpt>
      <trkpt lat="50.65109" lon="5.82099">
        <ele>318</ele>
        <time>2025-04-21T10:03:20Z</time>
      </trkpt>
      <trkpt lat="50.65193" lon="5.82237">
        <ele>307</ele>
        <time>2025-04-21T10:03:48Z</time>
      </trkpt>
      <trkpt lat="50.65243" lon="5.82369">
        <ele>297</ele>
        <time>2025-04-21T10:04:11Z</time>
      </trkpt>
      <trkpt lat="50.6536" lon="5.82565">
        <ele>279</ele>
        <time>2025-04-21T10:04:50Z</time>
      </trkpt>
      <trkpt lat="50.65481" lon="5.82806">
        <ele>264</ele>
        <time>2025-04-21T10:05:36Z</time>
      </trkpt>
      <trkpt lat="50.65519" lon="5.82868">
        <ele>262</ele>
        <time>2025-04-21T10:05:49Z</time>
      </trkpt>
      <trkpt lat="50.6556" lon="5.82904">
        <ele>261</ele>
        <time>2025-04-21T10:06:00Z</time>
      </trkpt>
      <trkpt lat="50.65615" lon="5.83029">
        <ele>275</ele>
        <time>2025-04-21T10:06:22Z</time>
      </trkpt>
      <trkpt lat="50.65653" lon="5.83066">
        <ele>281</ele>
        <time>2025-04-21T10:06:33Z</time>
      </trkpt>
      <trkpt lat="50.65672" lon="5.83126">
        <ele>284</ele>
        <time>2025-04-21T10:06:43Z</time>
      </trkpt>
      <trkpt lat="50.65731" lon="5.83211">
        <ele>283</ele>
        <time>2025-04-21T10:07:01Z</time>
      </trkpt>
      <trkpt lat="50.65763" lon="5.83229">
        <ele>282</ele>
        <time>2025-04-21T10:07:09Z</time>
      </trkpt>
      <trkpt lat="50.65832" lon="5.83301">
        <ele>277</ele>
        <time>2025-04-21T10:07:29Z</time>
      </trkpt>
      <trkpt lat="50.65934" lon="5.83415">
        <ele>268</ele>
        <time>2025-04-21T10:07:58Z</time>
      </trkpt>
      <trkpt lat="50.66104" lon="5.83665">
        <ele>264</ele>
        <time>2025-04-21T10:08:52Z</time>
      </trkpt>
      <trkpt lat="50.66211" lon="5.83916">
        <ele>257</ele>
        <time>2025-04-21T10:09:37Z</time>
      </trkpt>
      <trkpt lat="50.66263" lon="5.84021">
        <ele>256</ele>
        <time>2025-04-21T10:09:56Z</time>
      </trkpt>
      <trkpt lat="50.66297" lon="5.84022">
        <ele>254</ele>
        <time>2025-04-21T10:10:04Z</time>
      </trkpt>
      <trkpt lat="50.66621" lon="5.83899">
        <ele>241</ele>
        <time>2025-04-21T10:11:22Z</time>
      </trkpt>
      <trkpt lat="50.66808" lon="5.84044">
        <ele>233</ele>
        <time>2025-04-21T10:12:11Z</time>
      </trkpt>
      <trkpt lat="50.6682" lon="5.84077">
        <ele>233</ele>
        <time>2025-04-21T10:12:17Z</time>
      </trkpt>
      <trkpt lat="50.66841" lon="5.84072">
        <ele>232</ele>
        <time>2025-04-21T10:12:22Z</time>
      </trkpt>
      <trkpt lat="50.67072" lon="5.84235">
        <ele>224</ele>
        <time>2025-04-21T10:13:21Z</time>
      </trkpt>
      <trkpt lat="50.67166" lon="5.84319">
        <ele>217</ele>
        <time>2025-04-21T10:13:46Z</time>
      </trkpt>
      <trkpt lat="50.6722" lon="5.84373">
        <ele>213</ele>
        <time>2025-04-21T10:14:01Z</time>
      </trkpt>
      <trkpt lat="50.67341" lon="5.84531">
        <ele>202</ele>
        <time>2025-04-21T10:14:37Z</time>
      </trkpt>
      <trkpt lat="50.67384" lon="5.84572">
        <ele>198</ele>
        <time>2025-04-21T10:14:49Z</time>
      </trkpt>
      <trkpt lat="50.67467" lon="5.84593">
        <ele>194</ele>
        <time>2025-04-21T10:15:09Z</time>
      </trkpt>
      <trkpt lat="50.67549" lon="5.84579">
        <ele>191</ele>
        <time>2025-04-21T10:15:28Z</time>
      </trkpt>
      <trkpt lat="50.67626" lon="5.84572">
        <ele>189</ele>
        <time>2025-04-21T10:15:46Z</time>
      </trkpt>
      <trkpt lat="50.67721" lon="5.84594">
        <ele>188</ele>
        <time>2025-04-21T10:16:08Z</time>
      </trkpt>
      <trkpt lat="50.67758" lon="5.84619">
        <ele>189</ele>
        <time>2025-04-21T10:16:18Z</time>
      </trkpt>
      <trkpt lat="50.67787" lon="5.84668">
        <ele>191</ele>
        <time>2025-04-21T10:16:28Z</time>
      </trkpt>
      <trkpt lat="50.67902" lon="5.84894">
        <ele>197</ele>
        <time>2025-04-21T10:17:11Z</time>
      </trkpt>
      <trkpt lat="50.67989" lon="5.85019">
        <ele>204</ele>
        <time>2025-04-21T10:17:38Z</time>
      </trkpt>
      <trkpt lat="50.67996" lon="5.85036">
        <ele>205</ele>
        <time>2025-04-21T10:17:41Z</time>
      </trkpt>
      <trkpt lat="50.68057" lon="5.85104">
        <ele>210</ele>
        <time>2025-04-21T10:17:59Z</time>
      </trkpt>
      <trkpt lat="50.68095" lon="5.85151">
        <ele>212</ele>
        <time>2025-04-21T10:18:10Z</time>
      </trkpt>
      <trkpt lat="50.68066" lon="5.85247">
        <ele>215</ele>
        <time>2025-04-21T10:18:26Z</time>
      </trkpt>
      <trkpt lat="50.68057" lon="5.85284">
        <ele>216</ele>
        <time>2025-04-21T10:18:32Z</time>
      </trkpt>
      <trkpt lat="50.68064" lon="5.85286">
        <ele>216</ele>
        <time>2025-04-21T10:18:33Z</time>
      </trkpt>
      <trkpt lat="50.68071" lon="5.8528">
        <ele>216</ele>
        <time>2025-04-21T10:18:35Z</time>
      </trkpt>
      <trkpt lat="50.68149" lon="5.85266">
        <ele>216</ele>
        <time>2025-04-21T10:18:53Z</time>
      </trkpt>
      <trkpt lat="50.68213" lon="5.8526">
        <ele>215</ele>
        <time>2025-04-21T10:19:08Z</time>
      </trkpt>
      <trkpt lat="50.68248" lon="5.85263">
        <ele>214</ele>
        <time>2025-04-21T10:19:17Z</time>
      </trkpt>
      <trkpt lat="50.68307" lon="5.85276">
        <ele>212</ele>
        <time>2025-04-21T10:19:30Z</time>
      </trkpt>
      <trkpt lat="50.68342" lon="5.85289">
        <ele>210</ele>
        <time>2025-04-21T10:19:39Z</time>
      </trkpt>
      <trkpt lat="50.68786" lon="5.85489">
        <ele>198</ele>
        <time>2025-04-21T10:21:27Z</time>
      </trkpt>
      <trkpt lat="50.68823" lon="5.85501">
        <ele>202</ele>
        <time>2025-04-21T10:21:35Z</time>
      </trkpt>
      <trkpt lat="50.68872" lon="5.85509">
        <ele>205</ele>
        <time>2025-04-21T10:21:47Z</time>
      </trkpt>
      <trkpt lat="50.6908" lon="5.85525">
        <ele>209</ele>
        <time>2025-04-21T10:22:36Z</time>
      </trkpt>
      <trkpt lat="50.69636" lon="5.85607">
        <ele>220</ele>
        <time>2025-04-21T10:24:46Z</time>
      </trkpt>
      <trkpt lat="50.69684" lon="5.85619">
        <ele>222</ele>
        <time>2025-04-21T10:24:57Z</time>
      </trkpt>
      <trkpt lat="50.69724" lon="5.85639">
        <ele>223</ele>
        <time>2025-04-21T10:25:07Z</time>
      </trkpt>
      <trkpt lat="50.6976" lon="5.85663">
        <ele>224</ele>
        <time>2025-04-21T10:25:16Z</time>
      </trkpt>
      <trkpt lat="50.69797" lon="5.85697">
        <ele>226</ele>
        <time>2025-04-21T10:25:26Z</time>
      </trkpt>
      <trkpt lat="50.69831" lon="5.85735">
        <ele>228</ele>
        <time>2025-04-21T10:25:36Z</time>
      </trkpt>
      <trkpt lat="50.69873" lon="5.85807">
        <ele>229</ele>
        <time>2025-04-21T10:25:51Z</time>
      </trkpt>
      <trkpt lat="50.69944" lon="5.85954">
        <ele>233</ele>
        <time>2025-04-21T10:26:18Z</time>
      </trkpt>
      <trkpt lat="50.69986" lon="5.86035">
        <ele>236</ele>
        <time>2025-04-21T10:26:33Z</time>
      </trkpt>
      <trkpt lat="50.70039" lon="5.86109">
        <ele>240</ele>
        <time>2025-04-21T10:26:50Z</time>
      </trkpt>
      <trkpt lat="50.70091" lon="5.86165">
        <ele>241</ele>
        <time>2025-04-21T10:27:05Z</time>
      </trkpt>
      <trkpt lat="50.70121" lon="5.8619">
        <ele>241</ele>
        <time>2025-04-21T10:27:12Z</time>
      </trkpt>
      <trkpt lat="50.70173" lon="5.86224">
        <ele>242</ele>
        <time>2025-04-21T10:27:26Z</time>
      </trkpt>
      <trkpt lat="50.70262" lon="5.86265">
        <ele>240</ele>
        <time>2025-04-21T10:27:47Z</time>
      </trkpt>
      <trkpt lat="50.70275" lon="5.86266">
        <ele>239</ele>
        <time>2025-04-21T10:27:50Z</time>
      </trkpt>
      <trkpt lat="50.70289" lon="5.86278">
        <ele>239</ele>
        <time>2025-04-21T10:27:54Z</time>
      </trkpt>
      <trkpt lat="50.70616" lon="5.864">
        <ele>241</ele>
        <time>2025-04-21T10:29:12Z</time>
      </trkpt>
      <trkpt lat="50.7068" lon="5.8643">
        <ele>244</ele>
        <time>2025-04-21T10:29:28Z</time>
      </trkpt>
      <trkpt lat="50.70717" lon="5.86458">
        <ele>245</ele>
        <time>2025-04-21T10:29:38Z</time>
      </trkpt>
      <trkpt lat="50.70746" lon="5.86496">
        <ele>247</ele>
        <time>2025-04-21T10:29:46Z</time>
      </trkpt>
      <trkpt lat="50.70782" lon="5.86549">
        <ele>245</ele>
        <time>2025-04-21T10:29:58Z</time>
      </trkpt>
      <trkpt lat="50.70811" lon="5.86608">
        <ele>242</ele>
        <time>2025-04-21T10:30:09Z</time>
      </trkpt>
      <trkpt lat="50.70841" lon="5.86703">
        <ele>240</ele>
        <time>2025-04-21T10:30:25Z</time>
      </trkpt>
      <trkpt lat="50.70848" lon="5.86789">
        <ele>240</ele>
        <time>2025-04-21T10:30:38Z</time>
      </trkpt>
      <trkpt lat="50.70849" lon="5.8684">
        <ele>240</ele>
        <time>2025-04-21T10:30:45Z</time>
      </trkpt>
      <trkpt lat="50.70842" lon="5.86927">
        <ele>242</ele>
        <time>2025-04-21T10:30:58Z</time>
      </trkpt>
      <trkpt lat="50.70794" lon="5.87274">
        <ele>250</ele>
        <time>2025-04-21T10:31:51Z</time>
      </trkpt>
      <trkpt lat="50.70786" lon="5.87392">
        <ele>254</ele>
        <time>2025-04-21T10:32:08Z</time>
      </trkpt>
      <trkpt lat="50.70786" lon="5.87572">
        <ele>257</ele>
        <time>2025-04-21T10:32:35Z</time>
      </trkpt>
      <trkpt lat="50.70791" lon="5.87649">
        <ele>258</ele>
        <time>2025-04-21T10:32:46Z</time>
      </trkpt>
      <trkpt lat="50.70807" lon="5.87793">
        <ele>261</ele>
        <time>2025-04-21T10:33:08Z</time>
      </trkpt>
      <trkpt lat="50.70829" lon="5.87918">
        <ele>263</ele>
        <time>2025-04-21T10:33:27Z</time>
      </trkpt>
      <trkpt lat="50.70865" lon="5.88045">
        <ele>266</ele>
        <time>2025-04-21T10:33:48Z</time>
      </trkpt>
      <trkpt lat="50.70914" lon="5.88166">
        <ele>272</ele>
        <time>2025-04-21T10:34:09Z</time>
      </trkpt>
      <trkpt lat="50.70942" lon="5.88219">
        <ele>274</ele>
        <time>2025-04-21T10:34:19Z</time>
      </trkpt>
      <trkpt lat="50.70982" lon="5.88278">
        <ele>278</ele>
        <time>2025-04-21T10:34:32Z</time>
      </trkpt>
      <trkpt lat="50.71081" lon="5.8839">
        <ele>276</ele>
        <time>2025-04-21T10:35:00Z</time>
      </trkpt>
      <trkpt lat="50.71137" lon="5.88443">
        <ele>272</ele>
        <time>2025-04-21T10:35:15Z</time>
      </trkpt>
      <trkpt lat="50.71373" lon="5.88687">
        <ele>263</ele>
        <time>2025-04-21T10:36:21Z</time>
      </trkpt>
      <trkpt lat="50.71494" lon="5.88843">
        <ele>262</ele>
        <time>2025-04-21T10:36:58Z</time>
      </trkpt>
      <trkpt lat="50.71587" lon="5.89002">
        <ele>256</ele>
        <time>2025-04-21T10:37:30Z</time>
      </trkpt>
      <trkpt lat="50.71732" lon="5.89269">
        <ele>255</ele>
        <time>2025-04-21T10:38:22Z</time>
      </trkpt>
      <trkpt lat="50.71769" lon="5.89333">
        <ele>249</ele>
        <time>2025-04-21T10:38:35Z</time>
      </trkpt>
      <trkpt lat="50.71816" lon="5.89394">
        <ele>244</ele>
        <time>2025-04-21T10:38:49Z</time>
      </trkpt>
      <trkpt lat="50.71877" lon="5.89454">
        <ele>243</ele>
        <time>2025-04-21T10:39:06Z</time>
      </trkpt>
      <trkpt lat="50.72006" lon="5.89538">
        <ele>240</ele>
        <time>2025-04-21T10:39:38Z</time>
      </trkpt>
      <trkpt lat="50.72102" lon="5.89588">
        <ele>237</ele>
        <time>2025-04-21T10:40:02Z</time>
      </trkpt>
      <trkpt lat="50.72133" lon="5.89618">
        <ele>236</ele>
        <time>2025-04-21T10:40:10Z</time>
      </trkpt>
      <trkpt lat="50.72165" lon="5.8966">
        <ele>236</ele>
        <time>2025-04-21T10:40:20Z</time>
      </trkpt>
      <trkpt lat="50.72206" lon="5.89731">
        <ele>235</ele>
        <time>2025-04-21T10:40:34Z</time>
      </trkpt>
      <trkpt lat="50.72228" lon="5.89794">
        <ele>236</ele>
        <time>2025-04-21T10:40:45Z</time>
      </trkpt>
      <trkpt lat="50.72247" lon="5.89899">
        <ele>238</ele>
        <time>2025-04-21T10:41:01Z</time>
      </trkpt>
      <trkpt lat="50.72251" lon="5.89964">
        <ele>237</ele>
        <time>2025-04-21T10:41:11Z</time>
      </trkpt>
      <trkpt lat="50.7225" lon="5.90009">
        <ele>237</ele>
        <time>2025-04-21T10:41:17Z</time>
      </trkpt>
      <trkpt lat="50.72241" lon="5.90082">
        <ele>233</ele>
        <time>2025-04-21T10:41:28Z</time>
      </trkpt>
      <trkpt lat="50.72216" lon="5.90181">
        <ele>229</ele>
        <time>2025-04-21T10:41:44Z</time>
      </trkpt>
      <trkpt lat="50.72196" lon="5.9023">
        <ele>228</ele>
        <time>2025-04-21T10:41:53Z</time>
      </trkpt>
      <trkpt lat="50.72048" lon="5.90479">
        <ele>219</ele>
        <time>2025-04-21T10:42:43Z</time>
      </trkpt>
      <trkpt lat="50.71907" lon="5.90724">
        <ele>224</ele>
        <time>2025-04-21T10:43:32Z</time>
      </trkpt>
      <trkpt lat="50.7189" lon="5.90768">
        <ele>222</ele>
        <time>2025-04-21T10:43:40Z</time>
      </trkpt>
      <trkpt lat="50.71872" lon="5.90825">
        <ele>221</ele>
        <time>2025-04-21T10:43:49Z</time>
      </trkpt>
      <trkpt lat="50.71863" lon="5.9087">
        <ele>219</ele>
        <time>2025-04-21T10:43:56Z</time>
      </trkpt>
      <trkpt lat="50.71854" lon="5.90953">
        <ele>217</ele>
        <time>2025-04-21T10:44:09Z</time>
      </trkpt>
      <trkpt lat="50.71857" lon="5.91062">
        <ele>216</ele>
        <time>2025-04-21T10:44:25Z</time>
      </trkpt>
      <trkpt lat="50.71865" lon="5.9111">
        <ele>214</ele>
        <time>2025-04-21T10:44:32Z</time>
      </trkpt>
      <trkpt lat="50.71882" lon="5.9117">
        <ele>212</ele>
        <time>2025-04-21T10:44:42Z</time>
      </trkpt>
      <trkpt lat="50.71918" lon="5.91259">
        <ele>210</ele>
        <time>2025-04-21T10:44:57Z</time>
      </trkpt>
      <trkpt lat="50.71949" lon="5.91308">
        <ele>210</ele>
        <time>2025-04-21T10:45:08Z</time>
      </trkpt>
      <trkpt lat="50.72" lon="5.91362">
        <ele>211</ele>
        <time>2025-04-21T10:45:22Z</time>
      </trkpt>
      <trkpt lat="50.72032" lon="5.91384">
        <ele>211</ele>
        <time>2025-04-21T10:45:30Z</time>
      </trkpt>
      <trkpt lat="50.7211" lon="5.91407">
        <ele>211</ele>
        <time>2025-04-21T10:45:49Z</time>
      </trkpt>
      <trkpt lat="50.72156" lon="5.91404">
        <ele>211</ele>
        <time>2025-04-21T10:45:59Z</time>
      </trkpt>
      <trkpt lat="50.72197" lon="5.91389">
        <ele>213</ele>
        <time>2025-04-21T10:46:09Z</time>
      </trkpt>
      <trkpt lat="50.72197" lon="5.91362">
        <ele>211</ele>
        <time>2025-04-21T10:46:13Z</time>
      </trkpt>
      <trkpt lat="50.72563" lon="5.91108">
        <ele>213</ele>
        <time>2025-04-21T10:47:47Z</time>
      </trkpt>
      <trkpt lat="50.72608" lon="5.91083">
        <ele>212</ele>
        <time>2025-04-21T10:47:58Z</time>
      </trkpt>
      <trkpt lat="50.7266" lon="5.91062">
        <ele>213</ele>
        <time>2025-04-21T10:48:10Z</time>
      </trkpt>
      <trkpt lat="50.72729" lon="5.91059">
        <ele>212</ele>
        <time>2025-04-21T10:48:26Z</time>
      </trkpt>
      <trkpt lat="50.72756" lon="5.91063">
        <ele>212</ele>
        <time>2025-04-21T10:48:33Z</time>
      </trkpt>
      <trkpt lat="50.72783" lon="5.91075">
        <ele>213</ele>
        <time>2025-04-21T10:48:39Z</time>
      </trkpt>
      <trkpt lat="50.72849" lon="5.91119">
        <ele>217</ele>
        <time>2025-04-21T10:48:56Z</time>
      </trkpt>
      <trkpt lat="50.72881" lon="5.91149">
        <ele>223</ele>
        <time>2025-04-21T10:49:05Z</time>
      </trkpt>
      <trkpt lat="50.72923" lon="5.91207">
        <ele>229</ele>
        <time>2025-04-21T10:49:18Z</time>
      </trkpt>
      <trkpt lat="50.72966" lon="5.91303">
        <ele>231</ele>
        <time>2025-04-21T10:49:35Z</time>
      </trkpt>
      <trkpt lat="50.72983" lon="5.91384">
        <ele>229</ele>
        <time>2025-04-21T10:49:48Z</time>
      </trkpt>
      <trkpt lat="50.72994" lon="5.91468">
        <ele>224</ele>
        <time>2025-04-21T10:50:00Z</time>
      </trkpt>
      <trkpt lat="50.72991" lon="5.91583">
        <ele>222</ele>
        <time>2025-04-21T10:50:17Z</time>
      </trkpt>
      <trkpt lat="50.72983" lon="5.91633">
        <ele>220</ele>
        <time>2025-04-21T10:50:25Z</time>
      </trkpt>
      <trkpt lat="50.72967" lon="5.91687">
        <ele>218</ele>
        <time>2025-04-21T10:50:34Z</time>
      </trkpt>
      <trkpt lat="50.7296" lon="5.91719">
        <ele>217</ele>
        <time>2025-04-21T10:50:39Z</time>
      </trkpt>
      <trkpt lat="50.73011" lon="5.91756">
        <ele>213</ele>
        <time>2025-04-21T10:50:52Z</time>
      </trkpt>
      <trkpt lat="50.73029" lon="5.91755">
        <ele>213</ele>
        <time>2025-04-21T10:50:56Z</time>
      </trkpt>
      <trkpt lat="50.73034" lon="5.91783">
        <ele>211</ele>
        <time>2025-04-21T10:51:01Z</time>
      </trkpt>
      <trkpt lat="50.73022" lon="5.91967">
        <ele>204</ele>
        <time>2025-04-21T10:51:28Z</time>
      </trkpt>
      <trkpt lat="50.73027" lon="5.92">
        <ele>203</ele>
        <time>2025-04-21T10:51:33Z</time>
      </trkpt>
      <trkpt lat="50.73042" lon="5.91998">
        <ele>203</ele>
        <time>2025-04-21T10:51:36Z</time>
      </trkpt>
      <trkpt lat="50.73065" lon="5.92003">
        <ele>202</ele>
        <time>2025-04-21T10:51:42Z</time>
      </trkpt>
      <trkpt lat="50.73118" lon="5.92042">
        <ele>201</ele>
        <time>2025-04-21T10:51:55Z</time>
      </trkpt>
      <trkpt lat="50.7314" lon="5.92071">
        <ele>199</ele>
        <time>2025-04-21T10:52:02Z</time>
      </trkpt>
      <trkpt lat="50.73182" lon="5.92192">
        <ele>193</ele>
        <time>2025-04-21T10:52:23Z</time>
      </trkpt>
      <trkpt lat="50.73203" lon="5.92232">
        <ele>192</ele>
        <time>2025-04-21T10:52:30Z</time>
      </trkpt>
      <trkpt lat="50.73284" lon="5.92343">
        <ele>192</ele>
        <time>2025-04-21T10:52:55Z</time>
      </trkpt>
      <trkpt lat="50.73299" lon="5.92356">
        <ele>191</ele>
        <time>2025-04-21T10:52:59Z</time>
      </trkpt>
      <trkpt lat="50.73717" lon="5.92522">
        <ele>187</ele>
        <time>2025-04-21T10:54:40Z</time>
      </trkpt>
      <trkpt lat="50.73754" lon="5.92618">
        <ele>184</ele>
        <time>2025-04-21T10:54:57Z</time>
      </trkpt>
      <trkpt lat="50.73849" lon="5.92916">
        <ele>178</ele>
        <time>2025-04-21T10:55:46Z</time>
      </trkpt>
      <trkpt lat="50.73906" lon="5.93081">
        <ele>178</ele>
        <time>2025-04-21T10:56:14Z</time>
      </trkpt>
      <trkpt lat="50.73946" lon="5.93163">
        <ele>174</ele>
        <time>2025-04-21T10:56:29Z</time>
      </trkpt>
      <trkpt lat="50.73991" lon="5.93238">
        <ele>171</ele>
        <time>2025-04-21T10:56:44Z</time>
      </trkpt>
      <trkpt lat="50.74038" lon="5.93309">
        <ele>167</ele>
        <time>2025-04-21T10:56:59Z</time>
      </trkpt>
      <trkpt lat="50.74079" lon="5.93363">
        <ele>164</ele>
        <time>2025-04-21T10:57:12Z</time>
      </trkpt>
      <trkpt lat="50.74104" lon="5.93384">
        <ele>163</ele>
        <time>2025-04-21T10:57:18Z</time>
      </trkpt>
      <trkpt lat="50.74218" lon="5.93461">
        <ele>160</ele>
        <time>2025-04-21T10:57:47Z</time>
      </trkpt>
      <trkpt lat="50.74286" lon="5.93504">
        <ele>160</ele>
        <time>2025-04-21T10:58:05Z</time>
      </trkpt>
      <trkpt lat="50.74397" lon="5.93564">
        <ele>161</ele>
        <time>2025-04-21T10:58:32Z</time>
      </trkpt>
      <trkpt lat="50.74424" lon="5.93593">
        <ele>161</ele>
        <time>2025-04-21T10:58:40Z</time>
      </trkpt>
      <trkpt lat="50.74471" lon="5.93699">
        <ele>159</ele>
        <time>2025-04-21T10:58:59Z</time>
      </trkpt>
      <trkpt lat="50.74536" lon="5.9383">
        <ele>158</ele>
        <time>2025-04-21T10:59:23Z</time>
      </trkpt>
      <trkpt lat="50.7458" lon="5.93781">
        <ele>156</ele>
        <time>2025-04-21T10:59:36Z</time>
      </trkpt>
      <trkpt lat="50.74706" lon="5.93598">
        <ele>149</ele>
        <time>2025-04-21T11:00:16Z</time>
      </trkpt>
      <trkpt lat="50.74727" lon="5.9358">
        <ele>148</ele>
        <time>2025-04-21T11:00:21Z</time>
      </trkpt>
      <trkpt lat="50.74745" lon="5.93574">
        <ele>148</ele>
        <time>2025-04-21T11:00:26Z</time>
      </trkpt>
      <trkpt lat="50.7477" lon="5.93577">
        <ele>147</ele>
        <time>2025-04-21T11:00:32Z</time>
      </trkpt>
      <trkpt lat="50.74906" lon="5.93624">
        <ele>142</ele>
        <time>2025-04-21T11:01:04Z</time>
      </trkpt>
      <trkpt lat="50.74923" lon="5.93624">
        <ele>142</ele>
        <time>2025-04-21T11:01:08Z</time>
      </trkpt>
      <trkpt lat="50.74973" lon="5.93588">
        <ele>141</ele>
        <time>2025-04-21T11:01:21Z</time>
      </trkpt>
      <trkpt lat="50.75044" lon="5.93524">
        <ele>146</ele>
        <time>2025-04-21T11:01:40Z</time>
      </trkpt>
      <trkpt lat="50.75058" lon="5.93504">
        <ele>148</ele>
        <time>2025-04-21T11:01:44Z</time>
      </trkpt>
      <trkpt lat="50.75064" lon="5.93484">
        <ele>149</ele>
        <time>2025-04-21T11:01:48Z</time>
      </trkpt>
      <trkpt lat="50.7507" lon="5.93444">
        <ele>152</ele>
        <time>2025-04-21T11:01:54Z</time>
      </trkpt>
      <trkpt lat="50.75072" lon="5.93396">
        <ele>155</ele>
        <time>2025-04-21T11:02:01Z</time>
      </trkpt>
      <trkpt lat="50.75077" lon="5.93367">
        <ele>156</ele>
        <time>2025-04-21T11:02:05Z</time>
      </trkpt>
      <trkpt lat="50.75091" lon="5.93374">
        <ele>155</ele>
        <time>2025-04-21T11:02:09Z</time>
      </trkpt>
      <trkpt lat="50.75116" lon="5.93371">
        <ele>154</ele>
        <time>2025-04-21T11:02:15Z</time>
      </trkpt>
      <trkpt lat="50.75145" lon="5.93441">
        <ele>148</ele>
        <time>2025-04-21T11:02:27Z</time>
      </trkpt>
      <trkpt lat="50.75167" lon="5.93437">
        <ele>146</ele>
        <time>2025-04-21T11:02:32Z</time>
      </trkpt>
      <trkpt lat="50.75195" lon="5.93437">
        <ele>145</ele>
        <time>2025-04-21T11:02:39Z</time>
      </trkpt>
      <trkpt lat="50.75256" lon="5.93445">
        <ele>142</ele>
        <time>2025-04-21T11:02:53Z</time>
      </trkpt>
      <trkpt lat="50.75315" lon="5.93469">
        <ele>140</ele>
        <time>2025-04-21T11:03:07Z</time>
      </trkpt>
      <trkpt lat="50.75347" lon="5.93467">
        <ele>140</ele>
        <time>2025-04-21T11:03:15Z</time>
      </trkpt>
      <trkpt lat="50.75361" lon="5.93496">
        <ele>137</ele>
        <time>2025-04-21T11:03:20Z</time>
      </trkpt>
      <trkpt lat="50.75393" lon="5.93521">
        <ele>134</ele>
        <time>2025-04-21T11:03:28Z</time>
      </trkpt>
      <trkpt lat="50.7548" lon="5.93634">
        <ele>128</ele>
        <time>2025-04-21T11:03:55Z</time>
      </trkpt>
      <trkpt lat="50.75516" lon="5.9365">
        <ele>127</ele>
        <time>2025-04-21T11:04:03Z</time>
      </trkpt>
      <trkpt lat="50.75552" lon="5.93698">
        <ele>124</ele>
        <time>2025-04-21T11:04:14Z</time>
      </trkpt>
      <trkpt lat="50.7557" lon="5.93709">
        <ele>124</ele>
        <time>2025-04-21T11:04:19Z</time>
      </trkpt>
      <trkpt lat="50.75594" lon="5.93728">
        <ele>123</ele>
        <time>2025-04-21T11:04:25Z</time>
      </trkpt>
      <trkpt lat="50.75628" lon="5.93698">
        <ele>123</ele>
        <time>2025-04-21T11:04:34Z</time>
      </trkpt>
      <trkpt lat="50.75632" lon="5.93706">
        <ele>123</ele>
        <time>2025-04-21T11:04:36Z</time>
      </trkpt>
      <trkpt lat="50.75632" lon="5.93727">
        <ele>123</ele>
        <time>2025-04-21T11:04:39Z</time>
      </trkpt>
      <trkpt lat="50.75641" lon="5.93773">
        <ele>122</ele>
        <time>2025-04-21T11:04:46Z</time>
      </trkpt>
      <trkpt lat="50.75646" lon="5.93786">
        <ele>123</ele>
        <time>2025-04-21T11:04:48Z</time>
      </trkpt>
      <trkpt lat="50.75641" lon="5.93828">
        <ele>123</ele>
        <time>2025-04-21T11:04:55Z</time>
      </trkpt>
    </trkseg>
  </trk>
</gpx>